<?xml version="1.0" encoding="utf-8"?>
<gpx xmlns:xsi="http://www.w3.org/2001/XMLSchema-instance" xmlns:xsd="http://www.w3.org/2001/XMLSchema" version="1.1" creator="Shapelink.com" xmlns="http://www.topografix.com/GPX/1/1" xmlns:gpxtpx="http://www.garmin.com/xmlschemas/TrackPointExtension/v1">
  <metadata>
    <name>Löpning 6.28 km, 2018-01-29</name>
    <desc></desc>
    <author><name>Bengt-Åke Forslund</name></author> 
    <time>2018-01-29T18:01:20Z</time>
  </metadata>
  <trk>
    <name>Löpning 6.28 km, 2018-01-29</name>
    <trkseg>
      <trkpt lat="62.637302849066" lon="17.966505336141">
        <ele>31.2</ele>
        <time>2018-01-29T18:01:20Z</time>
      </trkpt>
      <trkpt lat="62.637297987564" lon="17.966506844883">
        <ele>31.2</ele>
        <time>2018-01-29T18:01:21Z</time>
      </trkpt>
      <trkpt lat="62.637295556813" lon="17.966497624793">
        <ele>31.2</ele>
        <time>2018-01-29T18:01:22Z</time>
      </trkpt>
      <trkpt lat="62.637523712131" lon="17.966115913067">
        <ele>30.8</ele>
        <time>2018-01-29T18:05:12Z</time>
      </trkpt>
      <trkpt lat="62.637526142882" lon="17.966118092361">
        <ele>30.8</ele>
        <time>2018-01-29T18:05:13Z</time>
      </trkpt>
      <trkpt lat="62.637540727388" lon="17.966312217165">
        <ele>30.6</ele>
        <time>2018-01-29T18:05:17Z</time>
      </trkpt>
      <trkpt lat="62.637546846175" lon="17.966311127518">
        <ele>30.6</ele>
        <time>2018-01-29T18:05:18Z</time>
      </trkpt>
      <trkpt lat="62.637540727388" lon="17.966317833038">
        <ele>30.6</ele>
        <time>2018-01-29T18:05:19Z</time>
      </trkpt>
      <trkpt lat="62.637533183678" lon="17.966305344007">
        <ele>30.8</ele>
        <time>2018-01-29T18:05:20Z</time>
      </trkpt>
      <trkpt lat="62.637559670482" lon="17.966403663694">
        <ele>30.8</ele>
        <time>2018-01-29T18:05:21Z</time>
      </trkpt>
      <trkpt lat="62.637563358518" lon="17.96641154268">
        <ele>31</ele>
        <time>2018-01-29T18:05:22Z</time>
      </trkpt>
      <trkpt lat="62.637545337433" lon="17.966405172436">
        <ele>31</ele>
        <time>2018-01-29T18:05:23Z</time>
      </trkpt>
      <trkpt lat="62.637531088203" lon="17.966416823277">
        <ele>31</ele>
        <time>2018-01-29T18:05:24Z</time>
      </trkpt>
      <trkpt lat="62.637514659679" lon="17.966431156326">
        <ele>31</ele>
        <time>2018-01-29T18:05:25Z</time>
      </trkpt>
      <trkpt lat="62.637503008838" lon="17.966432748887">
        <ele>31</ele>
        <time>2018-01-29T18:05:26Z</time>
      </trkpt>
      <trkpt lat="62.637503427933" lon="17.966432748887">
        <ele>31</ele>
        <time>2018-01-29T18:05:27Z</time>
      </trkpt>
      <trkpt lat="62.637457411302" lon="17.966426881557">
        <ele>30.8</ele>
        <time>2018-01-29T18:05:36Z</time>
      </trkpt>
      <trkpt lat="62.637457327483" lon="17.966427049195">
        <ele>30.8</ele>
        <time>2018-01-29T18:05:37Z</time>
      </trkpt>
      <trkpt lat="62.63747685731" lon="17.966343481652">
        <ele>31.2</ele>
        <time>2018-01-29T18:05:53Z</time>
      </trkpt>
      <trkpt lat="62.637402426038" lon="17.966262931593">
        <ele>31.4</ele>
        <time>2018-01-29T18:05:54Z</time>
      </trkpt>
      <trkpt lat="62.637374179035" lon="17.966231164192">
        <ele>31.4</ele>
        <time>2018-01-29T18:05:55Z</time>
      </trkpt>
      <trkpt lat="62.637356325588" lon="17.966200234981">
        <ele>31.4</ele>
        <time>2018-01-29T18:05:56Z</time>
      </trkpt>
      <trkpt lat="62.637341154349" lon="17.966183219724">
        <ele>31.4</ele>
        <time>2018-01-29T18:05:57Z</time>
      </trkpt>
      <trkpt lat="62.637322881807" lon="17.966166120648">
        <ele>31.4</ele>
        <time>2018-01-29T18:05:58Z</time>
      </trkpt>
      <trkpt lat="62.637309806043" lon="17.966145333536">
        <ele>31.2</ele>
        <time>2018-01-29T18:05:59Z</time>
      </trkpt>
      <trkpt lat="62.637296478822" lon="17.966131000487">
        <ele>31</ele>
        <time>2018-01-29T18:06:00Z</time>
      </trkpt>
      <trkpt lat="62.637283403058" lon="17.966115493972">
        <ele>30.8</ele>
        <time>2018-01-29T18:06:01Z</time>
      </trkpt>
      <trkpt lat="62.637270830208" lon="17.966099316905">
        <ele>30.8</ele>
        <time>2018-01-29T18:06:02Z</time>
      </trkpt>
      <trkpt lat="62.637256497159" lon="17.966084564761">
        <ele>30.6</ele>
        <time>2018-01-29T18:06:03Z</time>
      </trkpt>
      <trkpt lat="62.637246522698" lon="17.966065956943">
        <ele>30.6</ele>
        <time>2018-01-29T18:06:04Z</time>
      </trkpt>
      <trkpt lat="62.637240068635" lon="17.966047432944">
        <ele>30.4</ele>
        <time>2018-01-29T18:06:05Z</time>
      </trkpt>
      <trkpt lat="62.637237218789" lon="17.966027903117">
        <ele>30.4</ele>
        <time>2018-01-29T18:06:06Z</time>
      </trkpt>
      <trkpt lat="62.637231602916" lon="17.966015833181">
        <ele>30.4</ele>
        <time>2018-01-29T18:06:07Z</time>
      </trkpt>
      <trkpt lat="62.637223137197" lon="17.965997812096">
        <ele>30.2</ele>
        <time>2018-01-29T18:06:08Z</time>
      </trkpt>
      <trkpt lat="62.637214420021" lon="17.965977695536">
        <ele>30.2</ele>
        <time>2018-01-29T18:06:09Z</time>
      </trkpt>
      <trkpt lat="62.637207546863" lon="17.965963194849">
        <ele>30.2</ele>
        <time>2018-01-29T18:06:10Z</time>
      </trkpt>
      <trkpt lat="62.637202098628" lon="17.965952633655">
        <ele>30.2</ele>
        <time>2018-01-29T18:06:11Z</time>
      </trkpt>
      <trkpt lat="62.637195476927" lon="17.965941066633">
        <ele>30.2</ele>
        <time>2018-01-29T18:06:12Z</time>
      </trkpt>
      <trkpt lat="62.637188939045" lon="17.96592203972">
        <ele>30</ele>
        <time>2018-01-29T18:06:13Z</time>
      </trkpt>
      <trkpt lat="62.637188017036" lon="17.965904186273">
        <ele>30</ele>
        <time>2018-01-29T18:06:14Z</time>
      </trkpt>
      <trkpt lat="62.637185251009" lon="17.965880800772">
        <ele>30.2</ele>
        <time>2018-01-29T18:06:15Z</time>
      </trkpt>
      <trkpt lat="62.637180808602" lon="17.965870491035">
        <ele>30.4</ele>
        <time>2018-01-29T18:06:16Z</time>
      </trkpt>
      <trkpt lat="62.63717510891" lon="17.965864623705">
        <ele>30.6</ele>
        <time>2018-01-29T18:06:17Z</time>
      </trkpt>
      <trkpt lat="62.637168151933" lon="17.965850709751">
        <ele>30.8</ele>
        <time>2018-01-29T18:06:18Z</time>
      </trkpt>
      <trkpt lat="62.637160356766" lon="17.96583486796">
        <ele>30.8</ele>
        <time>2018-01-29T18:06:19Z</time>
      </trkpt>
      <trkpt lat="62.637152058685" lon="17.965817768884">
        <ele>30.8</ele>
        <time>2018-01-29T18:06:20Z</time>
      </trkpt>
      <trkpt lat="62.637144766432" lon="17.965793126098">
        <ele>30.8</ele>
        <time>2018-01-29T18:06:21Z</time>
      </trkpt>
      <trkpt lat="62.637134540514" lon="17.965761861611">
        <ele>30.8</ele>
        <time>2018-01-29T18:06:22Z</time>
      </trkpt>
      <trkpt lat="62.637126912985" lon="17.965726238536">
        <ele>30.8</ele>
        <time>2018-01-29T18:06:23Z</time>
      </trkpt>
      <trkpt lat="62.637116854705" lon="17.965686843606">
        <ele>30.8</ele>
        <time>2018-01-29T18:06:24Z</time>
      </trkpt>
      <trkpt lat="62.637108305167" lon="17.965645688477">
        <ele>31</ele>
        <time>2018-01-29T18:06:25Z</time>
      </trkpt>
      <trkpt lat="62.637102102561" lon="17.965613418162">
        <ele>31</ele>
        <time>2018-01-29T18:06:26Z</time>
      </trkpt>
      <trkpt lat="62.637092044281" lon="17.965565976608">
        <ele>31.2</ele>
        <time>2018-01-29T18:06:27Z</time>
      </trkpt>
      <trkpt lat="62.637086763684" lon="17.965527419868">
        <ele>31.2</ele>
        <time>2018-01-29T18:06:28Z</time>
      </trkpt>
      <trkpt lat="62.637080477259" lon="17.965492634983">
        <ele>31.2</ele>
        <time>2018-01-29T18:06:29Z</time>
      </trkpt>
      <trkpt lat="62.637068323504" lon="17.965448043275">
        <ele>31.2</ele>
        <time>2018-01-29T18:06:30Z</time>
      </trkpt>
      <trkpt lat="62.637064803106" lon="17.965415018589">
        <ele>31.2</ele>
        <time>2018-01-29T18:06:31Z</time>
      </trkpt>
      <trkpt lat="62.637058432862" lon="17.96537973079">
        <ele>31.2</ele>
        <time>2018-01-29T18:06:32Z</time>
      </trkpt>
      <trkpt lat="62.637049464229" lon="17.965339413851">
        <ele>31.2</ele>
        <time>2018-01-29T18:06:33Z</time>
      </trkpt>
      <trkpt lat="62.637041333786" lon="17.965309490468">
        <ele>31</ele>
        <time>2018-01-29T18:06:34Z</time>
      </trkpt>
      <trkpt lat="62.637033119524" lon="17.965267161873">
        <ele>31</ele>
        <time>2018-01-29T18:06:35Z</time>
      </trkpt>
      <trkpt lat="62.637022139235" lon="17.965234556282">
        <ele>31</ele>
        <time>2018-01-29T18:06:36Z</time>
      </trkpt>
      <trkpt lat="62.637011745679" lon="17.965198011198">
        <ele>31</ele>
        <time>2018-01-29T18:06:37Z</time>
      </trkpt>
      <trkpt lat="62.637001519761" lon="17.965156520793">
        <ele>31</ele>
        <time>2018-01-29T18:06:38Z</time>
      </trkpt>
      <trkpt lat="62.636993137861" lon="17.965126094496">
        <ele>31</ele>
        <time>2018-01-29T18:06:39Z</time>
      </trkpt>
      <trkpt lat="62.636984085409" lon="17.965078988218">
        <ele>31.2</ele>
        <time>2018-01-29T18:06:40Z</time>
      </trkpt>
      <trkpt lat="62.636969836179" lon="17.965047388455">
        <ele>31.2</ele>
        <time>2018-01-29T18:06:41Z</time>
      </trkpt>
      <trkpt lat="62.636961957193" lon="17.96500841262">
        <ele>31</ele>
        <time>2018-01-29T18:06:42Z</time>
      </trkpt>
      <trkpt lat="62.636948210877" lon="17.964969185328">
        <ele>31</ele>
        <time>2018-01-29T18:06:43Z</time>
      </trkpt>
      <trkpt lat="62.636937398226" lon="17.964935993004">
        <ele>31.2</ele>
        <time>2018-01-29T18:06:44Z</time>
      </trkpt>
      <trkpt lat="62.636925998842" lon="17.96489860973">
        <ele>31.2</ele>
        <time>2018-01-29T18:06:45Z</time>
      </trkpt>
      <trkpt lat="62.636911581974" lon="17.964863908664">
        <ele>31.2</ele>
        <time>2018-01-29T18:06:46Z</time>
      </trkpt>
      <trkpt lat="62.636902613341" lon="17.964838427688">
        <ele>31.2</ele>
        <time>2018-01-29T18:06:47Z</time>
      </trkpt>
      <trkpt lat="62.636887023007" lon="17.96478796865">
        <ele>31.2</ele>
        <time>2018-01-29T18:06:48Z</time>
      </trkpt>
      <trkpt lat="62.636875539804" lon="17.964763996416">
        <ele>31.2</ele>
        <time>2018-01-29T18:06:49Z</time>
      </trkpt>
      <trkpt lat="62.636865481524" lon="17.964730049721">
        <ele>31.2</ele>
        <time>2018-01-29T18:06:50Z</time>
      </trkpt>
      <trkpt lat="62.636853830683" lon="17.964684452185">
        <ele>31.2</ele>
        <time>2018-01-29T18:06:51Z</time>
      </trkpt>
      <trkpt lat="62.636839413815" lon="17.964649834938">
        <ele>31.2</ele>
        <time>2018-01-29T18:06:52Z</time>
      </trkpt>
      <trkpt lat="62.636825248404" lon="17.96461446332">
        <ele>31.2</ele>
        <time>2018-01-29T18:06:53Z</time>
      </trkpt>
      <trkpt lat="62.63681468721" lon="17.964576493313">
        <ele>31.2</ele>
        <time>2018-01-29T18:06:54Z</time>
      </trkpt>
      <trkpt lat="62.636800354161" lon="17.964540367324">
        <ele>31.2</ele>
        <time>2018-01-29T18:06:55Z</time>
      </trkpt>
      <trkpt lat="62.63678618875" lon="17.964504325154">
        <ele>31.2</ele>
        <time>2018-01-29T18:06:56Z</time>
      </trkpt>
      <trkpt lat="62.636771688063" lon="17.964467193337">
        <ele>31</ele>
        <time>2018-01-29T18:06:57Z</time>
      </trkpt>
      <trkpt lat="62.636758025566" lon="17.964437856687">
        <ele>31</ele>
        <time>2018-01-29T18:06:58Z</time>
      </trkpt>
      <trkpt lat="62.636746961458" lon="17.964402485069">
        <ele>30.8</ele>
        <time>2018-01-29T18:06:59Z</time>
      </trkpt>
      <trkpt lat="62.636733634237" lon="17.964367784003">
        <ele>30.8</ele>
        <time>2018-01-29T18:07:00Z</time>
      </trkpt>
      <trkpt lat="62.636718630636" lon="17.964333585851">
        <ele>31</ele>
        <time>2018-01-29T18:07:01Z</time>
      </trkpt>
      <trkpt lat="62.636704800501" lon="17.964294861473">
        <ele>30.8</ele>
        <time>2018-01-29T18:07:02Z</time>
      </trkpt>
      <trkpt lat="62.636690467452" lon="17.964253035792">
        <ele>30.8</ele>
        <time>2018-01-29T18:07:03Z</time>
      </trkpt>
      <trkpt lat="62.636675966765" lon="17.964208527903">
        <ele>30.8</ele>
        <time>2018-01-29T18:07:04Z</time>
      </trkpt>
      <trkpt lat="62.63666381301" lon="17.964169719706">
        <ele>30.8</ele>
        <time>2018-01-29T18:07:05Z</time>
      </trkpt>
      <trkpt lat="62.636647719762" lon="17.964126888197">
        <ele>30.8</ele>
        <time>2018-01-29T18:07:06Z</time>
      </trkpt>
      <trkpt lat="62.636631710333" lon="17.964081458299">
        <ele>30.6</ele>
        <time>2018-01-29T18:07:07Z</time>
      </trkpt>
      <trkpt lat="62.636617125827" lon="17.964043823568">
        <ele>30.6</ele>
        <time>2018-01-29T18:07:08Z</time>
      </trkpt>
      <trkpt lat="62.636604050063" lon="17.964000992059">
        <ele>30.6</ele>
        <time>2018-01-29T18:07:09Z</time>
      </trkpt>
      <trkpt lat="62.636590387566" lon="17.963958328188">
        <ele>30.6</ele>
        <time>2018-01-29T18:07:10Z</time>
      </trkpt>
      <trkpt lat="62.636582257123" lon="17.963926141692">
        <ele>30.6</ele>
        <time>2018-01-29T18:07:11Z</time>
      </trkpt>
      <trkpt lat="62.636565409504" lon="17.963878113405">
        <ele>30.6</ele>
        <time>2018-01-29T18:07:12Z</time>
      </trkpt>
      <trkpt lat="62.636555099767" lon="17.96384751947">
        <ele>30.8</ele>
        <time>2018-01-29T18:07:13Z</time>
      </trkpt>
      <trkpt lat="62.636542107822" lon="17.963813908051">
        <ele>30.6</ele>
        <time>2018-01-29T18:07:14Z</time>
      </trkpt>
      <trkpt lat="62.636530037886" lon="17.963776357139">
        <ele>30.6</ele>
        <time>2018-01-29T18:07:15Z</time>
      </trkpt>
      <trkpt lat="62.636522661814" lon="17.963752804">
        <ele>30.6</ele>
        <time>2018-01-29T18:07:16Z</time>
      </trkpt>
      <trkpt lat="62.636508580222" lon="17.963729753775">
        <ele>30.6</ele>
        <time>2018-01-29T18:07:17Z</time>
      </trkpt>
      <trkpt lat="62.636491229689" lon="17.963722964436">
        <ele>30.6</ele>
        <time>2018-01-29T18:07:18Z</time>
      </trkpt>
      <trkpt lat="62.636475052622" lon="17.963729837594">
        <ele>30.6</ele>
        <time>2018-01-29T18:07:19Z</time>
      </trkpt>
      <trkpt lat="62.636454600786" lon="17.963746769032">
        <ele>30.6</ele>
        <time>2018-01-29T18:07:20Z</time>
      </trkpt>
      <trkpt lat="62.636434819502" lon="17.963765293031">
        <ele>30.4</ele>
        <time>2018-01-29T18:07:21Z</time>
      </trkpt>
      <trkpt lat="62.636410009078" lon="17.963790354912">
        <ele>30.4</ele>
        <time>2018-01-29T18:07:22Z</time>
      </trkpt>
      <trkpt lat="62.636393161459" lon="17.963815500612">
        <ele>30.2</ele>
        <time>2018-01-29T18:07:23Z</time>
      </trkpt>
      <trkpt lat="62.636372793442" lon="17.963841987416">
        <ele>30.2</ele>
        <time>2018-01-29T18:07:24Z</time>
      </trkpt>
      <trkpt lat="62.636349324122" lon="17.963866462564">
        <ele>30.2</ele>
        <time>2018-01-29T18:07:25Z</time>
      </trkpt>
      <trkpt lat="62.636333901426" lon="17.963900073983">
        <ele>30.4</ele>
        <time>2018-01-29T18:07:26Z</time>
      </trkpt>
      <trkpt lat="62.636309342459" lon="17.963929159176">
        <ele>30.6</ele>
        <time>2018-01-29T18:07:27Z</time>
      </trkpt>
      <trkpt lat="62.636289225899" lon="17.963952377039">
        <ele>30.6</ele>
        <time>2018-01-29T18:07:28Z</time>
      </trkpt>
      <trkpt lat="62.636273467927" lon="17.963978780024">
        <ele>30.6</ele>
        <time>2018-01-29T18:07:29Z</time>
      </trkpt>
      <trkpt lat="62.636247316399" lon="17.964005015371">
        <ele>30.8</ele>
        <time>2018-01-29T18:07:30Z</time>
      </trkpt>
      <trkpt lat="62.636229043857" lon="17.964032591822">
        <ele>30.8</ele>
        <time>2018-01-29T18:07:31Z</time>
      </trkpt>
      <trkpt lat="62.63620867584" lon="17.964058408074">
        <ele>31</ele>
        <time>2018-01-29T18:07:32Z</time>
      </trkpt>
      <trkpt lat="62.636190990031" lon="17.964077937901">
        <ele>30.8</ele>
        <time>2018-01-29T18:07:33Z</time>
      </trkpt>
      <trkpt lat="62.636169029453" lon="17.964108699474">
        <ele>31</ele>
        <time>2018-01-29T18:07:34Z</time>
      </trkpt>
      <trkpt lat="62.636145141038" lon="17.964132587889">
        <ele>30.8</ele>
        <time>2018-01-29T18:07:35Z</time>
      </trkpt>
      <trkpt lat="62.636124605383" lon="17.964151950078">
        <ele>30.6</ele>
        <time>2018-01-29T18:07:36Z</time>
      </trkpt>
      <trkpt lat="62.636095771647" lon="17.964182963108">
        <ele>30.4</ele>
        <time>2018-01-29T18:07:37Z</time>
      </trkpt>
      <trkpt lat="62.636076325639" lon="17.964207438256">
        <ele>30.6</ele>
        <time>2018-01-29T18:07:38Z</time>
      </trkpt>
      <trkpt lat="62.636055454708" lon="17.964228728282">
        <ele>30.6</ele>
        <time>2018-01-29T18:07:39Z</time>
      </trkpt>
      <trkpt lat="62.636028884085" lon="17.96425404162">
        <ele>30.6</ele>
        <time>2018-01-29T18:07:40Z</time>
      </trkpt>
      <trkpt lat="62.636010443905" lon="17.96427583456">
        <ele>30.8</ele>
        <time>2018-01-29T18:07:41Z</time>
      </trkpt>
      <trkpt lat="62.635981358712" lon="17.96430014207">
        <ele>30.8</ele>
        <time>2018-01-29T18:07:42Z</time>
      </trkpt>
      <trkpt lat="62.635961745066" lon="17.964321683553">
        <ele>31</ele>
        <time>2018-01-29T18:07:43Z</time>
      </trkpt>
      <trkpt lat="62.63594045504" lon="17.964343811769">
        <ele>30.8</ele>
        <time>2018-01-29T18:07:44Z</time>
      </trkpt>
      <trkpt lat="62.635919584109" lon="17.964363341596">
        <ele>30.8</ele>
        <time>2018-01-29T18:07:45Z</time>
      </trkpt>
      <trkpt lat="62.635895528056" lon="17.964386308002">
        <ele>30.8</ele>
        <time>2018-01-29T18:07:46Z</time>
      </trkpt>
      <trkpt lat="62.635873567478" lon="17.964401311603">
        <ele>31</ele>
        <time>2018-01-29T18:07:47Z</time>
      </trkpt>
      <trkpt lat="62.635853115642" lon="17.964425702932">
        <ele>31.2</ele>
        <time>2018-01-29T18:07:48Z</time>
      </trkpt>
      <trkpt lat="62.635831322702" lon="17.964440790352">
        <ele>31.2</ele>
        <time>2018-01-29T18:07:49Z</time>
      </trkpt>
      <trkpt lat="62.635807099011" lon="17.964460320179">
        <ele>31.2</ele>
        <time>2018-01-29T18:07:50Z</time>
      </trkpt>
      <trkpt lat="62.635784970795" lon="17.96448286749">
        <ele>31.4</ele>
        <time>2018-01-29T18:07:51Z</time>
      </trkpt>
      <trkpt lat="62.635757645801" lon="17.964510192484">
        <ele>31.6</ele>
        <time>2018-01-29T18:07:52Z</time>
      </trkpt>
      <trkpt lat="62.635738618888" lon="17.964527375379">
        <ele>31.8</ele>
        <time>2018-01-29T18:07:53Z</time>
      </trkpt>
      <trkpt lat="62.635714311378" lon="17.964548497767">
        <ele>32</ele>
        <time>2018-01-29T18:07:54Z</time>
      </trkpt>
      <trkpt lat="62.635685729099" lon="17.964569368698">
        <ele>32</ele>
        <time>2018-01-29T18:07:55Z</time>
      </trkpt>
      <trkpt lat="62.635662092141" lon="17.964596526054">
        <ele>32</ele>
        <time>2018-01-29T18:07:56Z</time>
      </trkpt>
      <trkpt lat="62.635636359708" lon="17.964611278198">
        <ele>32.2</ele>
        <time>2018-01-29T18:07:57Z</time>
      </trkpt>
      <trkpt lat="62.635617668071" lon="17.964623180496">
        <ele>32.4</ele>
        <time>2018-01-29T18:07:58Z</time>
      </trkpt>
      <trkpt lat="62.635597886787" lon="17.964638603192">
        <ele>32.4</ele>
        <time>2018-01-29T18:07:59Z</time>
      </trkpt>
      <trkpt lat="62.635566119386" lon="17.964666514919">
        <ele>32.2</ele>
        <time>2018-01-29T18:08:00Z</time>
      </trkpt>
      <trkpt lat="62.635546924835" lon="17.964684787461">
        <ele>32.2</ele>
        <time>2018-01-29T18:08:01Z</time>
      </trkpt>
      <trkpt lat="62.635523455515" lon="17.964697025035">
        <ele>32.4</ele>
        <time>2018-01-29T18:08:02Z</time>
      </trkpt>
      <trkpt lat="62.635499818557" lon="17.964721164907">
        <ele>32.4</ele>
        <time>2018-01-29T18:08:03Z</time>
      </trkpt>
      <trkpt lat="62.635479366721" lon="17.964731390825">
        <ele>32.2</ele>
        <time>2018-01-29T18:08:04Z</time>
      </trkpt>
      <trkpt lat="62.635456065039" lon="17.964749831005">
        <ele>32.2</ele>
        <time>2018-01-29T18:08:05Z</time>
      </trkpt>
      <trkpt lat="62.635434607375" lon="17.964763409683">
        <ele>32.2</ele>
        <time>2018-01-29T18:08:06Z</time>
      </trkpt>
      <trkpt lat="62.635412311521" lon="17.964779251474">
        <ele>32.4</ele>
        <time>2018-01-29T18:08:07Z</time>
      </trkpt>
      <trkpt lat="62.635390434762" lon="17.964793333066">
        <ele>32.4</ele>
        <time>2018-01-29T18:08:08Z</time>
      </trkpt>
      <trkpt lat="62.635366965442" lon="17.964805822097">
        <ele>32.4</ele>
        <time>2018-01-29T18:08:09Z</time>
      </trkpt>
      <trkpt lat="62.63534114919" lon="17.964824094639">
        <ele>32.2</ele>
        <time>2018-01-29T18:08:10Z</time>
      </trkpt>
      <trkpt lat="62.635321619363" lon="17.964832727996">
        <ele>32.4</ele>
        <time>2018-01-29T18:08:11Z</time>
      </trkpt>
      <trkpt lat="62.635291612161" lon="17.96484664195">
        <ele>32.4</ele>
        <time>2018-01-29T18:08:12Z</time>
      </trkpt>
      <trkpt lat="62.635271160325" lon="17.964854437117">
        <ele>32.4</ele>
        <time>2018-01-29T18:08:13Z</time>
      </trkpt>
      <trkpt lat="62.635249535023" lon="17.964867093786">
        <ele>32.6</ele>
        <time>2018-01-29T18:08:14Z</time>
      </trkpt>
      <trkpt lat="62.635220868925" lon="17.96487933136">
        <ele>32.8</ele>
        <time>2018-01-29T18:08:15Z</time>
      </trkpt>
      <trkpt lat="62.635197986338" lon="17.964887377984">
        <ele>33</ele>
        <time>2018-01-29T18:08:16Z</time>
      </trkpt>
      <trkpt lat="62.635175355208" lon="17.964894502599">
        <ele>33</ele>
        <time>2018-01-29T18:08:17Z</time>
      </trkpt>
      <trkpt lat="62.635152724078" lon="17.964899531739">
        <ele>33</ele>
        <time>2018-01-29T18:08:18Z</time>
      </trkpt>
      <trkpt lat="62.635133110432" lon="17.964901375757">
        <ele>33</ele>
        <time>2018-01-29T18:08:19Z</time>
      </trkpt>
      <trkpt lat="62.635109473474" lon="17.964900369929">
        <ele>33</ele>
        <time>2018-01-29T18:08:20Z</time>
      </trkpt>
      <trkpt lat="62.635086926163" lon="17.964906404897">
        <ele>33.2</ele>
        <time>2018-01-29T18:08:21Z</time>
      </trkpt>
      <trkpt lat="62.635060104083" lon="17.964910512028">
        <ele>33.2</ele>
        <time>2018-01-29T18:08:22Z</time>
      </trkpt>
      <trkpt lat="62.63503772441" lon="17.964908165096">
        <ele>33.2</ele>
        <time>2018-01-29T18:08:23Z</time>
      </trkpt>
      <trkpt lat="62.635012075796" lon="17.964918139557">
        <ele>33.2</ele>
        <time>2018-01-29T18:08:24Z</time>
      </trkpt>
      <trkpt lat="62.63498408025" lon="17.964918391014">
        <ele>33.4</ele>
        <time>2018-01-29T18:08:25Z</time>
      </trkpt>
      <trkpt lat="62.634958515455" lon="17.964923671611">
        <ele>33.6</ele>
        <time>2018-01-29T18:08:26Z</time>
      </trkpt>
      <trkpt lat="62.634931441918" lon="17.96492627">
        <ele>33.6</ele>
        <time>2018-01-29T18:08:27Z</time>
      </trkpt>
      <trkpt lat="62.634904955114" lon="17.964924845077">
        <ele>33.6</ele>
        <time>2018-01-29T18:08:28Z</time>
      </trkpt>
      <trkpt lat="62.634884838554" lon="17.964929036027">
        <ele>33.8</ele>
        <time>2018-01-29T18:08:29Z</time>
      </trkpt>
      <trkpt lat="62.634855585723" lon="17.964929119846">
        <ele>33.8</ele>
        <time>2018-01-29T18:08:30Z</time>
      </trkpt>
      <trkpt lat="62.634827422539" lon="17.964929538941">
        <ele>33.8</ele>
        <time>2018-01-29T18:08:31Z</time>
      </trkpt>
      <trkpt lat="62.634805126685" lon="17.964928365475">
        <ele>34</ele>
        <time>2018-01-29T18:08:32Z</time>
      </trkpt>
      <trkpt lat="62.634775454759" lon="17.964926689095">
        <ele>34</ele>
        <time>2018-01-29T18:08:33Z</time>
      </trkpt>
      <trkpt lat="62.634752488353" lon="17.964928533113">
        <ele>34</ele>
        <time>2018-01-29T18:08:34Z</time>
      </trkpt>
      <trkpt lat="62.634726923558" lon="17.964923503973">
        <ele>34</ele>
        <time>2018-01-29T18:08:35Z</time>
      </trkpt>
      <trkpt lat="62.634701274944" lon="17.964919145385">
        <ele>34</ele>
        <time>2018-01-29T18:08:36Z</time>
      </trkpt>
      <trkpt lat="62.634676548339" lon="17.964920151213">
        <ele>33.8</ele>
        <time>2018-01-29T18:08:37Z</time>
      </trkpt>
      <trkpt lat="62.634650145354" lon="17.964916379358">
        <ele>33.8</ele>
        <time>2018-01-29T18:08:38Z</time>
      </trkpt>
      <trkpt lat="62.634628939147" lon="17.964918810109">
        <ele>33.8</ele>
        <time>2018-01-29T18:08:39Z</time>
      </trkpt>
      <trkpt lat="62.63460018923" lon="17.964917217548">
        <ele>33.8</ele>
        <time>2018-01-29T18:08:40Z</time>
      </trkpt>
      <trkpt lat="62.634577474281" lon="17.964916044082">
        <ele>34</ele>
        <time>2018-01-29T18:08:41Z</time>
      </trkpt>
      <trkpt lat="62.634553082952" lon="17.964918474833">
        <ele>34</ele>
        <time>2018-01-29T18:08:42Z</time>
      </trkpt>
      <trkpt lat="62.634524584492" lon="17.964916295539">
        <ele>34.2</ele>
        <time>2018-01-29T18:08:43Z</time>
      </trkpt>
      <trkpt lat="62.634500025525" lon="17.964918055738">
        <ele>34.4</ele>
        <time>2018-01-29T18:08:44Z</time>
      </trkpt>
      <trkpt lat="62.634474293092" lon="17.964920318851">
        <ele>34.4</ele>
        <time>2018-01-29T18:08:45Z</time>
      </trkpt>
      <trkpt lat="62.634448141564" lon="17.964920235032">
        <ele>34.4</ele>
        <time>2018-01-29T18:08:46Z</time>
      </trkpt>
      <trkpt lat="62.634424672244" lon="17.964920151213">
        <ele>34.6</ele>
        <time>2018-01-29T18:08:47Z</time>
      </trkpt>
      <trkpt lat="62.634399526544" lon="17.964920486489">
        <ele>34.8</ele>
        <time>2018-01-29T18:08:48Z</time>
      </trkpt>
      <trkpt lat="62.634375051396" lon="17.964921911412">
        <ele>34.8</ele>
        <time>2018-01-29T18:08:49Z</time>
      </trkpt>
      <trkpt lat="62.634350827705" lon="17.964921576136">
        <ele>35</ele>
        <time>2018-01-29T18:08:50Z</time>
      </trkpt>
      <trkpt lat="62.634326604014" lon="17.964921995231">
        <ele>35</ele>
        <time>2018-01-29T18:08:51Z</time>
      </trkpt>
      <trkpt lat="62.634303386151" lon="17.964922833421">
        <ele>35</ele>
        <time>2018-01-29T18:08:52Z</time>
      </trkpt>
      <trkpt lat="62.634279833012" lon="17.964928616932">
        <ele>35.2</ele>
        <time>2018-01-29T18:08:53Z</time>
      </trkpt>
      <trkpt lat="62.634252843294" lon="17.964924425982">
        <ele>35</ele>
        <time>2018-01-29T18:08:54Z</time>
      </trkpt>
      <trkpt lat="62.63422635649" lon="17.964926018543">
        <ele>35</ele>
        <time>2018-01-29T18:08:55Z</time>
      </trkpt>
      <trkpt lat="62.634200624057" lon="17.964926437638">
        <ele>35.2</ele>
        <time>2018-01-29T18:08:56Z</time>
      </trkpt>
      <trkpt lat="62.634175729814" lon="17.964927192009">
        <ele>35</ele>
        <time>2018-01-29T18:08:57Z</time>
      </trkpt>
      <trkpt lat="62.634151170847" lon="17.96492794638">
        <ele>35</ele>
        <time>2018-01-29T18:08:58Z</time>
      </trkpt>
      <trkpt lat="62.634125606052" lon="17.96492878457">
        <ele>35</ele>
        <time>2018-01-29T18:08:59Z</time>
      </trkpt>
      <trkpt lat="62.634102052913" lon="17.964925515629">
        <ele>35.2</ele>
        <time>2018-01-29T18:09:00Z</time>
      </trkpt>
      <trkpt lat="62.634078080679" lon="17.964919983575">
        <ele>35.2</ele>
        <time>2018-01-29T18:09:01Z</time>
      </trkpt>
      <trkpt lat="62.634055198092" lon="17.964925012715">
        <ele>35.2</ele>
        <time>2018-01-29T18:09:02Z</time>
      </trkpt>
      <trkpt lat="62.634031477315" lon="17.964928030199">
        <ele>35.2</ele>
        <time>2018-01-29T18:09:03Z</time>
      </trkpt>
      <trkpt lat="62.6340075889" lon="17.964924090706">
        <ele>35.4</ele>
        <time>2018-01-29T18:09:04Z</time>
      </trkpt>
      <trkpt lat="62.633983197571" lon="17.964925599448">
        <ele>35.6</ele>
        <time>2018-01-29T18:09:05Z</time>
      </trkpt>
      <trkpt lat="62.633958219509" lon="17.964929538941">
        <ele>35.6</ele>
        <time>2018-01-29T18:09:06Z</time>
      </trkpt>
      <trkpt lat="62.633933409085" lon="17.964941692696">
        <ele>35.6</ele>
        <time>2018-01-29T18:09:07Z</time>
      </trkpt>
      <trkpt lat="62.633908011928" lon="17.96495812122">
        <ele>35.6</ele>
        <time>2018-01-29T18:09:08Z</time>
      </trkpt>
      <trkpt lat="62.633893259784" lon="17.964990391535">
        <ele>35.6</ele>
        <time>2018-01-29T18:09:09Z</time>
      </trkpt>
      <trkpt lat="62.633881273667" lon="17.96502350004">
        <ele>35.6</ele>
        <time>2018-01-29T18:09:10Z</time>
      </trkpt>
      <trkpt lat="62.633873562319" lon="17.965065912454">
        <ele>35.6</ele>
        <time>2018-01-29T18:09:11Z</time>
      </trkpt>
      <trkpt lat="62.633869371369" lon="17.965106397031">
        <ele>35.8</ele>
        <time>2018-01-29T18:09:12Z</time>
      </trkpt>
      <trkpt lat="62.633870041921" lon="17.965144534676">
        <ele>36</ele>
        <time>2018-01-29T18:09:13Z</time>
      </trkpt>
      <trkpt lat="62.633867024437" lon="17.96520622546">
        <ele>36.2</ele>
        <time>2018-01-29T18:09:14Z</time>
      </trkpt>
      <trkpt lat="62.633865012781" lon="17.965253499376">
        <ele>36.4</ele>
        <time>2018-01-29T18:09:15Z</time>
      </trkpt>
      <trkpt lat="62.633862498211" lon="17.965301946758">
        <ele>36.6</ele>
        <time>2018-01-29T18:09:16Z</time>
      </trkpt>
      <trkpt lat="62.633867275894" lon="17.965337402195">
        <ele>36.6</ele>
        <time>2018-01-29T18:09:17Z</time>
      </trkpt>
      <trkpt lat="62.633870544835" lon="17.965381658627">
        <ele>36.6</ele>
        <time>2018-01-29T18:09:18Z</time>
      </trkpt>
      <trkpt lat="62.633869119912" lon="17.965436476253">
        <ele>36.8</ele>
        <time>2018-01-29T18:09:20Z</time>
      </trkpt>
      <trkpt lat="62.633871550663" lon="17.965485007454">
        <ele>37</ele>
        <time>2018-01-29T18:09:21Z</time>
      </trkpt>
      <trkpt lat="62.633873562319" lon="17.965532532827">
        <ele>37.2</ele>
        <time>2018-01-29T18:09:22Z</time>
      </trkpt>
      <trkpt lat="62.633875573975" lon="17.965575699612">
        <ele>37.4</ele>
        <time>2018-01-29T18:09:23Z</time>
      </trkpt>
      <trkpt lat="62.63387515488" lon="17.965620207501">
        <ele>37.8</ele>
        <time>2018-01-29T18:09:24Z</time>
      </trkpt>
      <trkpt lat="62.633878004726" lon="17.965669493073">
        <ele>38</ele>
        <time>2018-01-29T18:09:25Z</time>
      </trkpt>
      <trkpt lat="62.633881441305" lon="17.965717772817">
        <ele>38.2</ele>
        <time>2018-01-29T18:09:26Z</time>
      </trkpt>
      <trkpt lat="62.633882195676" lon="17.965766555475">
        <ele>38.4</ele>
        <time>2018-01-29T18:09:27Z</time>
      </trkpt>
      <trkpt lat="62.633883704418" lon="17.965811147183">
        <ele>38.6</ele>
        <time>2018-01-29T18:09:28Z</time>
      </trkpt>
      <trkpt lat="62.633882195676" lon="17.965854230149">
        <ele>38.6</ele>
        <time>2018-01-29T18:09:29Z</time>
      </trkpt>
      <trkpt lat="62.633880686934" lon="17.965905862653">
        <ele>38.8</ele>
        <time>2018-01-29T18:09:30Z</time>
      </trkpt>
      <trkpt lat="62.633878926735" lon="17.965954561492">
        <ele>39</ele>
        <time>2018-01-29T18:09:31Z</time>
      </trkpt>
      <trkpt lat="62.633872221215" lon="17.965998734105">
        <ele>39</ele>
        <time>2018-01-29T18:09:32Z</time>
      </trkpt>
      <trkpt lat="62.633864174591" lon="17.966044080184">
        <ele>39.2</ele>
        <time>2018-01-29T18:09:33Z</time>
      </trkpt>
      <trkpt lat="62.633854954501" lon="17.966080960544">
        <ele>39.2</ele>
        <time>2018-01-29T18:09:34Z</time>
      </trkpt>
      <trkpt lat="62.633845902049" lon="17.966123708234">
        <ele>39.4</ele>
        <time>2018-01-29T18:09:35Z</time>
      </trkpt>
      <trkpt lat="62.633834670303" lon="17.966167210295">
        <ele>39.4</ele>
        <time>2018-01-29T18:09:36Z</time>
      </trkpt>
      <trkpt lat="62.633820421073" lon="17.966206772863">
        <ele>39.6</ele>
        <time>2018-01-29T18:09:37Z</time>
      </trkpt>
      <trkpt lat="62.633805417472" lon="17.966240971015">
        <ele>39.8</ele>
        <time>2018-01-29T18:09:38Z</time>
      </trkpt>
      <trkpt lat="62.633786725835" lon="17.966268379828">
        <ele>40</ele>
        <time>2018-01-29T18:09:39Z</time>
      </trkpt>
      <trkpt lat="62.633763591791" lon="17.96629419608">
        <ele>40.2</ele>
        <time>2018-01-29T18:09:40Z</time>
      </trkpt>
      <trkpt lat="62.63374272086" lon="17.966315067011">
        <ele>40.4</ele>
        <time>2018-01-29T18:09:41Z</time>
      </trkpt>
      <trkpt lat="62.633719083902" lon="17.966334513019">
        <ele>40.4</ele>
        <time>2018-01-29T18:09:42Z</time>
      </trkpt>
      <trkpt lat="62.633697374781" lon="17.966351444457">
        <ele>40.6</ele>
        <time>2018-01-29T18:09:43Z</time>
      </trkpt>
      <trkpt lat="62.63367566566" lon="17.966364520221">
        <ele>40.8</ele>
        <time>2018-01-29T18:09:44Z</time>
      </trkpt>
      <trkpt lat="62.633648675942" lon="17.966376171062">
        <ele>41</ele>
        <time>2018-01-29T18:09:45Z</time>
      </trkpt>
      <trkpt lat="62.633625122803" lon="17.966379356184">
        <ele>41.2</ele>
        <time>2018-01-29T18:09:46Z</time>
      </trkpt>
      <trkpt lat="62.633602324035" lon="17.966382708944">
        <ele>41.2</ele>
        <time>2018-01-29T18:09:47Z</time>
      </trkpt>
      <trkpt lat="62.633579609086" lon="17.966375584329">
        <ele>41.2</ele>
        <time>2018-01-29T18:09:48Z</time>
      </trkpt>
      <trkpt lat="62.633558402879" lon="17.966373907949">
        <ele>41.2</ele>
        <time>2018-01-29T18:09:49Z</time>
      </trkpt>
      <trkpt lat="62.633535101197" lon="17.966376506338">
        <ele>41</ele>
        <time>2018-01-29T18:09:50Z</time>
      </trkpt>
      <trkpt lat="62.633509955497" lon="17.966377512166">
        <ele>40.8</ele>
        <time>2018-01-29T18:09:51Z</time>
      </trkpt>
      <trkpt lat="62.633486150901" lon="17.966377847442">
        <ele>40.8</ele>
        <time>2018-01-29T18:09:52Z</time>
      </trkpt>
      <trkpt lat="62.633462346305" lon="17.966372483026">
        <ele>40.8</ele>
        <time>2018-01-29T18:09:53Z</time>
      </trkpt>
      <trkpt lat="62.633437032967" lon="17.966366112782">
        <ele>40.8</ele>
        <time>2018-01-29T18:09:54Z</time>
      </trkpt>
      <trkpt lat="62.633410629982" lon="17.966360077814">
        <ele>40.8</ele>
        <time>2018-01-29T18:09:55Z</time>
      </trkpt>
      <trkpt lat="62.633385316644" lon="17.966360077814">
        <ele>40.8</ele>
        <time>2018-01-29T18:09:56Z</time>
      </trkpt>
      <trkpt lat="62.633358075469" lon="17.966359323443">
        <ele>40.8</ele>
        <time>2018-01-29T18:09:57Z</time>
      </trkpt>
      <trkpt lat="62.633333097407" lon="17.966361418918">
        <ele>40.8</ele>
        <time>2018-01-29T18:09:58Z</time>
      </trkpt>
      <trkpt lat="62.633310047182" lon="17.966363262936">
        <ele>40.8</ele>
        <time>2018-01-29T18:09:59Z</time>
      </trkpt>
      <trkpt lat="62.633278698876" lon="17.966362843841">
        <ele>40.8</ele>
        <time>2018-01-29T18:10:00Z</time>
      </trkpt>
      <trkpt lat="62.633251709158" lon="17.96636544223">
        <ele>40.6</ele>
        <time>2018-01-29T18:10:01Z</time>
      </trkpt>
      <trkpt lat="62.633226731096" lon="17.966367370067">
        <ele>40.8</ele>
        <time>2018-01-29T18:10:02Z</time>
      </trkpt>
      <trkpt lat="62.633198316455" lon="17.966367621524">
        <ele>40.6</ele>
        <time>2018-01-29T18:10:03Z</time>
      </trkpt>
      <trkpt lat="62.633175182411" lon="17.966369214085">
        <ele>40.6</ele>
        <time>2018-01-29T18:10:04Z</time>
      </trkpt>
      <trkpt lat="62.633147941236" lon="17.966373321216">
        <ele>40.6</ele>
        <time>2018-01-29T18:10:05Z</time>
      </trkpt>
      <trkpt lat="62.633121119156" lon="17.966372650664">
        <ele>40.4</ele>
        <time>2018-01-29T18:10:06Z</time>
      </trkpt>
      <trkpt lat="62.63309647637" lon="17.966371812474">
        <ele>40.4</ele>
        <time>2018-01-29T18:10:07Z</time>
      </trkpt>
      <trkpt lat="62.633070743937" lon="17.966370890465">
        <ele>40.2</ele>
        <time>2018-01-29T18:10:08Z</time>
      </trkpt>
      <trkpt lat="62.633046017332" lon="17.966371393379">
        <ele>40</ele>
        <time>2018-01-29T18:10:09Z</time>
      </trkpt>
      <trkpt lat="62.633020871632" lon="17.96637298594">
        <ele>40</ele>
        <time>2018-01-29T18:10:10Z</time>
      </trkpt>
      <trkpt lat="62.632997402312" lon="17.966372566845">
        <ele>40</ele>
        <time>2018-01-29T18:10:11Z</time>
      </trkpt>
      <trkpt lat="62.632970999327" lon="17.966376003424">
        <ele>40</ele>
        <time>2018-01-29T18:10:12Z</time>
      </trkpt>
      <trkpt lat="62.632947613826" lon="17.966377931261">
        <ele>40</ele>
        <time>2018-01-29T18:10:13Z</time>
      </trkpt>
      <trkpt lat="62.632922216669" lon="17.96637550051">
        <ele>40</ele>
        <time>2018-01-29T18:10:14Z</time>
      </trkpt>
      <trkpt lat="62.632896568055" lon="17.966374327044">
        <ele>40</ele>
        <time>2018-01-29T18:10:15Z</time>
      </trkpt>
      <trkpt lat="62.632872512002" lon="17.966375081415">
        <ele>40</ele>
        <time>2018-01-29T18:10:16Z</time>
      </trkpt>
      <trkpt lat="62.632848958863" lon="17.966378601813">
        <ele>39.8</ele>
        <time>2018-01-29T18:10:17Z</time>
      </trkpt>
      <trkpt lat="62.632819538394" lon="17.966382457487">
        <ele>39.8</ele>
        <time>2018-01-29T18:10:18Z</time>
      </trkpt>
      <trkpt lat="62.632795482341" lon="17.966386313161">
        <ele>39.6</ele>
        <time>2018-01-29T18:10:19Z</time>
      </trkpt>
      <trkpt lat="62.632763631121" lon="17.966392934862">
        <ele>39.6</ele>
        <time>2018-01-29T18:10:20Z</time>
      </trkpt>
      <trkpt lat="62.632741838181" lon="17.966387486627">
        <ele>39.6</ele>
        <time>2018-01-29T18:10:21Z</time>
      </trkpt>
      <trkpt lat="62.63271761449" lon="17.966388576274">
        <ele>39.4</ele>
        <time>2018-01-29T18:10:22Z</time>
      </trkpt>
      <trkpt lat="62.632694899541" lon="17.966390085016">
        <ele>39.4</ele>
        <time>2018-01-29T18:10:23Z</time>
      </trkpt>
      <trkpt lat="62.632673274239" lon="17.966385894066">
        <ele>39.4</ele>
        <time>2018-01-29T18:10:24Z</time>
      </trkpt>
      <trkpt lat="62.632640584829" lon="17.966382792763">
        <ele>39.2</ele>
        <time>2018-01-29T18:10:25Z</time>
      </trkpt>
      <trkpt lat="62.63261284074" lon="17.966377428347">
        <ele>39.2</ele>
        <time>2018-01-29T18:10:26Z</time>
      </trkpt>
      <trkpt lat="62.632589203782" lon="17.966372566845">
        <ele>39</ele>
        <time>2018-01-29T18:10:27Z</time>
      </trkpt>
      <trkpt lat="62.632563638987" lon="17.966374243225">
        <ele>39</ele>
        <time>2018-01-29T18:10:28Z</time>
      </trkpt>
      <trkpt lat="62.632541007857" lon="17.966370052275">
        <ele>39</ele>
        <time>2018-01-29T18:10:29Z</time>
      </trkpt>
      <trkpt lat="62.632512425578" lon="17.966372231569">
        <ele>38.8</ele>
        <time>2018-01-29T18:10:30Z</time>
      </trkpt>
      <trkpt lat="62.632486525507" lon="17.966366950972">
        <ele>38.8</ele>
        <time>2018-01-29T18:10:31Z</time>
      </trkpt>
      <trkpt lat="62.632463056187" lon="17.96636628042">
        <ele>38.6</ele>
        <time>2018-01-29T18:10:32Z</time>
      </trkpt>
      <trkpt lat="62.632438329582" lon="17.966364184945">
        <ele>38.4</ele>
        <time>2018-01-29T18:10:33Z</time>
      </trkpt>
      <trkpt lat="62.632412848606" lon="17.96636460404">
        <ele>38.2</ele>
        <time>2018-01-29T18:10:34Z</time>
      </trkpt>
      <trkpt lat="62.632391810037" lon="17.966362508565">
        <ele>38.2</ele>
        <time>2018-01-29T18:10:35Z</time>
      </trkpt>
      <trkpt lat="62.632362138111" lon="17.966358904348">
        <ele>38</ele>
        <time>2018-01-29T18:10:36Z</time>
      </trkpt>
      <trkpt lat="62.632335064574" lon="17.966352785561">
        <ele>38</ele>
        <time>2018-01-29T18:10:37Z</time>
      </trkpt>
      <trkpt lat="62.632309164503" lon="17.966348091697">
        <ele>37.8</ele>
        <time>2018-01-29T18:10:38Z</time>
      </trkpt>
      <trkpt lat="62.632287958296" lon="17.96634448748">
        <ele>37.8</ele>
        <time>2018-01-29T18:10:39Z</time>
      </trkpt>
      <trkpt lat="62.632260633302" lon="17.966345660946">
        <ele>37.8</ele>
        <time>2018-01-29T18:10:40Z</time>
      </trkpt>
      <trkpt lat="62.632241187294" lon="17.966369465542">
        <ele>37.6</ele>
        <time>2018-01-29T18:10:41Z</time>
      </trkpt>
      <trkpt lat="62.632220819277" lon="17.966400227115">
        <ele>37.6</ele>
        <time>2018-01-29T18:10:42Z</time>
      </trkpt>
      <trkpt lat="62.632205899495" lon="17.966442890986">
        <ele>37.6</ele>
        <time>2018-01-29T18:10:43Z</time>
      </trkpt>
      <trkpt lat="62.632199696889" lon="17.966488739979">
        <ele>37.4</ele>
        <time>2018-01-29T18:10:44Z</time>
      </trkpt>
      <trkpt lat="62.63219626031" lon="17.966541629768">
        <ele>37.4</ele>
        <time>2018-01-29T18:10:45Z</time>
      </trkpt>
      <trkpt lat="62.632195003025" lon="17.966597117946">
        <ele>37.4</ele>
        <time>2018-01-29T18:10:46Z</time>
      </trkpt>
      <trkpt lat="62.632195338301" lon="17.9666361776">
        <ele>37.4</ele>
        <time>2018-01-29T18:10:47Z</time>
      </trkpt>
      <trkpt lat="62.63219458393" lon="17.966690576131">
        <ele>37.6</ele>
        <time>2018-01-29T18:10:48Z</time>
      </trkpt>
      <trkpt lat="62.632190476799" lon="17.966733323821">
        <ele>37.8</ele>
        <time>2018-01-29T18:10:49Z</time>
      </trkpt>
      <trkpt lat="62.632188381324" lon="17.966779424271">
        <ele>37.8</ele>
        <time>2018-01-29T18:10:50Z</time>
      </trkpt>
      <trkpt lat="62.632183268365" lon="17.966829380395">
        <ele>38</ele>
        <time>2018-01-29T18:10:51Z</time>
      </trkpt>
      <trkpt lat="62.632179664148" lon="17.96688009089">
        <ele>38.2</ele>
        <time>2018-01-29T18:10:52Z</time>
      </trkpt>
      <trkpt lat="62.632176311388" lon="17.966920156372">
        <ele>38.4</ele>
        <time>2018-01-29T18:10:53Z</time>
      </trkpt>
      <trkpt lat="62.632170611696" lon="17.966971788876">
        <ele>38.4</ele>
        <time>2018-01-29T18:10:54Z</time>
      </trkpt>
      <trkpt lat="62.632164828185" lon="17.967022667009">
        <ele>38.6</ele>
        <time>2018-01-29T18:10:55Z</time>
      </trkpt>
      <trkpt lat="62.632159463769" lon="17.967069354192">
        <ele>38.8</ele>
        <time>2018-01-29T18:10:56Z</time>
      </trkpt>
      <trkpt lat="62.632151500964" lon="17.967125345284">
        <ele>38.8</ele>
        <time>2018-01-29T18:10:57Z</time>
      </trkpt>
      <trkpt lat="62.632144963082" lon="17.967169014983">
        <ele>39.2</ele>
        <time>2018-01-29T18:10:58Z</time>
      </trkpt>
      <trkpt lat="62.63213926339" lon="17.967208829008">
        <ele>39.4</ele>
        <time>2018-01-29T18:10:59Z</time>
      </trkpt>
      <trkpt lat="62.632129540386" lon="17.967264652462">
        <ele>39.8</ele>
        <time>2018-01-29T18:11:00Z</time>
      </trkpt>
      <trkpt lat="62.632121577581" lon="17.967307986885">
        <ele>40</ele>
        <time>2018-01-29T18:11:01Z</time>
      </trkpt>
      <trkpt lat="62.632110345835" lon="17.967352913869">
        <ele>40.4</ele>
        <time>2018-01-29T18:11:02Z</time>
      </trkpt>
      <trkpt lat="62.632097689166" lon="17.967397673215">
        <ele>40.6</ele>
        <time>2018-01-29T18:11:03Z</time>
      </trkpt>
      <trkpt lat="62.632086625058" lon="17.967438157792">
        <ele>41</ele>
        <time>2018-01-29T18:11:04Z</time>
      </trkpt>
      <trkpt lat="62.632071956733" lon="17.967477552722">
        <ele>41.2</ele>
        <time>2018-01-29T18:11:05Z</time>
      </trkpt>
      <trkpt lat="62.632058042779" lon="17.967516612376">
        <ele>41.2</ele>
        <time>2018-01-29T18:11:06Z</time>
      </trkpt>
      <trkpt lat="62.632041530436" lon="17.9675581866">
        <ele>41.2</ele>
        <time>2018-01-29T18:11:07Z</time>
      </trkpt>
      <trkpt lat="62.632032226527" lon="17.967598252082">
        <ele>41.4</ele>
        <time>2018-01-29T18:11:08Z</time>
      </trkpt>
      <trkpt lat="62.632019486039" lon="17.967633707519">
        <ele>41.4</ele>
        <time>2018-01-29T18:11:09Z</time>
      </trkpt>
      <trkpt lat="62.632002554601" lon="17.967674946467">
        <ele>41.6</ele>
        <time>2018-01-29T18:11:10Z</time>
      </trkpt>
      <trkpt lat="62.631991155217" lon="17.967713922302">
        <ele>42</ele>
        <time>2018-01-29T18:11:11Z</time>
      </trkpt>
      <trkpt lat="62.631976822168" lon="17.967753820146">
        <ele>42.2</ele>
        <time>2018-01-29T18:11:12Z</time>
      </trkpt>
      <trkpt lat="62.631962740576" lon="17.967792712162">
        <ele>42.4</ele>
        <time>2018-01-29T18:11:13Z</time>
      </trkpt>
      <trkpt lat="62.631952095563" lon="17.967830263074">
        <ele>42.6</ele>
        <time>2018-01-29T18:11:14Z</time>
      </trkpt>
      <trkpt lat="62.63193558322" lon="17.967872926945">
        <ele>42.8</ele>
        <time>2018-01-29T18:11:15Z</time>
      </trkpt>
      <trkpt lat="62.631920831076" lon="17.9679102264">
        <ele>43</ele>
        <time>2018-01-29T18:11:16Z</time>
      </trkpt>
      <trkpt lat="62.63191043752" lon="17.96793788667">
        <ele>43</ele>
        <time>2018-01-29T18:11:17Z</time>
      </trkpt>
      <trkpt lat="62.631894260453" lon="17.967981388731">
        <ele>43.2</ele>
        <time>2018-01-29T18:11:18Z</time>
      </trkpt>
      <trkpt lat="62.631881771422" lon="17.968018101453">
        <ele>43.4</ele>
        <time>2018-01-29T18:11:19Z</time>
      </trkpt>
      <trkpt lat="62.631872048418" lon="17.96805355689">
        <ele>43.6</ele>
        <time>2018-01-29T18:11:20Z</time>
      </trkpt>
      <trkpt lat="62.6318534406" lon="17.968100663168">
        <ele>43.8</ele>
        <time>2018-01-29T18:11:21Z</time>
      </trkpt>
      <trkpt lat="62.631841538302" lon="17.968140896288">
        <ele>43.8</ele>
        <time>2018-01-29T18:11:22Z</time>
      </trkpt>
      <trkpt lat="62.63182661852" lon="17.968178111924">
        <ele>44</ele>
        <time>2018-01-29T18:11:23Z</time>
      </trkpt>
      <trkpt lat="62.631812536928" lon="17.968215579017">
        <ele>44.2</ele>
        <time>2018-01-29T18:11:24Z</time>
      </trkpt>
      <trkpt lat="62.63179728187" lon="17.968262601476">
        <ele>44.6</ele>
        <time>2018-01-29T18:11:25Z</time>
      </trkpt>
      <trkpt lat="62.631783200278" lon="17.968304091881">
        <ele>44.8</ele>
        <time>2018-01-29T18:11:26Z</time>
      </trkpt>
      <trkpt lat="62.63177129798" lon="17.968342313345">
        <ele>45</ele>
        <time>2018-01-29T18:11:27Z</time>
      </trkpt>
      <trkpt lat="62.631757551664" lon="17.968378020239">
        <ele>45.2</ele>
        <time>2018-01-29T18:11:28Z</time>
      </trkpt>
      <trkpt lat="62.631744056805" lon="17.968407440708">
        <ele>45.2</ele>
        <time>2018-01-29T18:11:29Z</time>
      </trkpt>
      <trkpt lat="62.631732573602" lon="17.968453038244">
        <ele>45.4</ele>
        <time>2018-01-29T18:11:30Z</time>
      </trkpt>
      <trkpt lat="62.631718408191" lon="17.968495785934">
        <ele>45.8</ele>
        <time>2018-01-29T18:11:31Z</time>
      </trkpt>
      <trkpt lat="62.631706422074" lon="17.968533588303">
        <ele>45.8</ele>
        <time>2018-01-29T18:11:32Z</time>
      </trkpt>
      <trkpt lat="62.631695777061" lon="17.968577844735">
        <ele>46.2</ele>
        <time>2018-01-29T18:11:33Z</time>
      </trkpt>
      <trkpt lat="62.631684210039" lon="17.968624029004">
        <ele>46.2</ele>
        <time>2018-01-29T18:11:34Z</time>
      </trkpt>
      <trkpt lat="62.63167490613" lon="17.968660490269">
        <ele>46.6</ele>
        <time>2018-01-29T18:11:35Z</time>
      </trkpt>
      <trkpt lat="62.631664344936" lon="17.968709105289">
        <ele>46.6</ele>
        <time>2018-01-29T18:11:36Z</time>
      </trkpt>
      <trkpt lat="62.631660573081" lon="17.968754870463">
        <ele>46.8</ele>
        <time>2018-01-29T18:11:37Z</time>
      </trkpt>
      <trkpt lat="62.631658058511" lon="17.968805916234">
        <ele>47</ele>
        <time>2018-01-29T18:11:38Z</time>
      </trkpt>
      <trkpt lat="62.631655376303" lon="17.968855285625">
        <ele>47.2</ele>
        <time>2018-01-29T18:11:39Z</time>
      </trkpt>
      <trkpt lat="62.631652107362" lon="17.968901302256">
        <ele>47.4</ele>
        <time>2018-01-29T18:11:40Z</time>
      </trkpt>
      <trkpt lat="62.631653364647" lon="17.968944720498">
        <ele>47.6</ele>
        <time>2018-01-29T18:11:41Z</time>
      </trkpt>
      <trkpt lat="62.631658645244" lon="17.968991575319">
        <ele>48</ele>
        <time>2018-01-29T18:11:42Z</time>
      </trkpt>
      <trkpt lat="62.631666105135" lon="17.96902921005">
        <ele>48.4</ele>
        <time>2018-01-29T18:11:43Z</time>
      </trkpt>
      <trkpt lat="62.631674235578" lon="17.969070448998">
        <ele>48.4</ele>
        <time>2018-01-29T18:11:44Z</time>
      </trkpt>
      <trkpt lat="62.631682533659" lon="17.969110179204">
        <ele>48.8</ele>
        <time>2018-01-29T18:11:45Z</time>
      </trkpt>
      <trkpt lat="62.631694771233" lon="17.969155944378">
        <ele>49</ele>
        <time>2018-01-29T18:11:46Z</time>
      </trkpt>
      <trkpt lat="62.631704494237" lon="17.96919768624">
        <ele>49</ele>
        <time>2018-01-29T18:11:47Z</time>
      </trkpt>
      <trkpt lat="62.631716228897" lon="17.969243032319">
        <ele>49</ele>
        <time>2018-01-29T18:11:48Z</time>
      </trkpt>
      <trkpt lat="62.631725029892" lon="17.969285612371">
        <ele>49.2</ele>
        <time>2018-01-29T18:11:49Z</time>
      </trkpt>
      <trkpt lat="62.631736261638" lon="17.969330455536">
        <ele>49.6</ele>
        <time>2018-01-29T18:11:50Z</time>
      </trkpt>
      <trkpt lat="62.631747158108" lon="17.969373370864">
        <ele>49.6</ele>
        <time>2018-01-29T18:11:51Z</time>
      </trkpt>
      <trkpt lat="62.631761407338" lon="17.969418549305">
        <ele>49.8</ele>
        <time>2018-01-29T18:11:52Z</time>
      </trkpt>
      <trkpt lat="62.63177297436" lon="17.969439168779">
        <ele>50</ele>
        <time>2018-01-29T18:11:53Z</time>
      </trkpt>
      <trkpt lat="62.6317947673" lon="17.969478228433">
        <ele>50.2</ele>
        <time>2018-01-29T18:11:54Z</time>
      </trkpt>
      <trkpt lat="62.631816811697" lon="17.969506391617">
        <ele>50.2</ele>
        <time>2018-01-29T18:11:55Z</time>
      </trkpt>
      <trkpt lat="62.631831899117" lon="17.969525837625">
        <ele>50.4</ele>
        <time>2018-01-29T18:11:56Z</time>
      </trkpt>
      <trkpt lat="62.631848746736" lon="17.969544445443">
        <ele>50.6</ele>
        <time>2018-01-29T18:11:57Z</time>
      </trkpt>
      <trkpt lat="62.631867354554" lon="17.969556263922">
        <ele>50.6</ele>
        <time>2018-01-29T18:11:58Z</time>
      </trkpt>
      <trkpt lat="62.631887974028" lon="17.969562634166">
        <ele>50.8</ele>
        <time>2018-01-29T18:11:59Z</time>
      </trkpt>
      <trkpt lat="62.631915550479" lon="17.969564562003">
        <ele>51.2</ele>
        <time>2018-01-29T18:12:00Z</time>
      </trkpt>
      <trkpt lat="62.631937091962" lon="17.969564142908">
        <ele>51.4</ele>
        <time>2018-01-29T18:12:01Z</time>
      </trkpt>
      <trkpt lat="62.631961818567" lon="17.969564310546">
        <ele>51.6</ele>
        <time>2018-01-29T18:12:02Z</time>
      </trkpt>
      <trkpt lat="62.631987048086" lon="17.969570345514">
        <ele>51.8</ele>
        <time>2018-01-29T18:12:03Z</time>
      </trkpt>
      <trkpt lat="62.632009092483" lon="17.969564478184">
        <ele>52</ele>
        <time>2018-01-29T18:12:04Z</time>
      </trkpt>
      <trkpt lat="62.632035746925" lon="17.969560035777">
        <ele>52</ele>
        <time>2018-01-29T18:12:05Z</time>
      </trkpt>
      <trkpt lat="62.632061982272" lon="17.969555761008">
        <ele>52.2</ele>
        <time>2018-01-29T18:12:06Z</time>
      </trkpt>
      <trkpt lat="62.63208226647" lon="17.969550145135">
        <ele>52.4</ele>
        <time>2018-01-29T18:12:07Z</time>
      </trkpt>
      <trkpt lat="62.632108334179" lon="17.969541176502">
        <ele>52.4</ele>
        <time>2018-01-29T18:12:08Z</time>
      </trkpt>
      <trkpt lat="62.632131552042" lon="17.969533129878">
        <ele>52.4</ele>
        <time>2018-01-29T18:12:09Z</time>
      </trkpt>
      <trkpt lat="62.632157116837" lon="17.969525586168">
        <ele>52.6</ele>
        <time>2018-01-29T18:12:10Z</time>
      </trkpt>
      <trkpt lat="62.632183184546" lon="17.969520054114">
        <ele>52.4</ele>
        <time>2018-01-29T18:12:11Z</time>
      </trkpt>
      <trkpt lat="62.632210341902" lon="17.969512258947">
        <ele>52.4</ele>
        <time>2018-01-29T18:12:12Z</time>
      </trkpt>
      <trkpt lat="62.632233392127" lon="17.969500691925">
        <ele>52.4</ele>
        <time>2018-01-29T18:12:13Z</time>
      </trkpt>
      <trkpt lat="62.632259795112" lon="17.969488202894">
        <ele>52.2</ele>
        <time>2018-01-29T18:12:14Z</time>
      </trkpt>
      <trkpt lat="62.632286365735" lon="17.96947596532">
        <ele>52.2</ele>
        <time>2018-01-29T18:12:15Z</time>
      </trkpt>
      <trkpt lat="62.632310002693" lon="17.969468337791">
        <ele>52.2</ele>
        <time>2018-01-29T18:12:16Z</time>
      </trkpt>
      <trkpt lat="62.63233372347" lon="17.96946255428">
        <ele>52.2</ele>
        <time>2018-01-29T18:12:17Z</time>
      </trkpt>
      <trkpt lat="62.632361719016" lon="17.96945333419">
        <ele>52.2</ele>
        <time>2018-01-29T18:12:18Z</time>
      </trkpt>
      <trkpt lat="62.632384517784" lon="17.969452244543">
        <ele>52.2</ele>
        <time>2018-01-29T18:12:19Z</time>
      </trkpt>
      <trkpt lat="62.632412764787" lon="17.969452831276">
        <ele>52.4</ele>
        <time>2018-01-29T18:12:20Z</time>
      </trkpt>
      <trkpt lat="62.632437994306" lon="17.969449897611">
        <ele>52.2</ele>
        <time>2018-01-29T18:12:21Z</time>
      </trkpt>
      <trkpt lat="62.63246364292" lon="17.969452160724">
        <ele>52.4</ele>
        <time>2018-01-29T18:12:22Z</time>
      </trkpt>
      <trkpt lat="62.632488620982" lon="17.969467248144">
        <ele>52.4</ele>
        <time>2018-01-29T18:12:23Z</time>
      </trkpt>
      <trkpt lat="62.63251225794" lon="17.969473283112">
        <ele>52.4</ele>
        <time>2018-01-29T18:12:24Z</time>
      </trkpt>
      <trkpt lat="62.632540085848" lon="17.969481078279">
        <ele>52.4</ele>
        <time>2018-01-29T18:12:25Z</time>
      </trkpt>
      <trkpt lat="62.632565566824" lon="17.969485855962">
        <ele>52.4</ele>
        <time>2018-01-29T18:12:26Z</time>
      </trkpt>
      <trkpt lat="62.632588700868" lon="17.969490382188">
        <ele>52.4</ele>
        <time>2018-01-29T18:12:27Z</time>
      </trkpt>
      <trkpt lat="62.632615020034" lon="17.969498847907">
        <ele>52.2</ele>
        <time>2018-01-29T18:12:28Z</time>
      </trkpt>
      <trkpt lat="62.632637651164" lon="17.969498931726">
        <ele>52.2</ele>
        <time>2018-01-29T18:12:29Z</time>
      </trkpt>
      <trkpt lat="62.632665814348" lon="17.969501027201">
        <ele>52.2</ele>
        <time>2018-01-29T18:12:30Z</time>
      </trkpt>
      <trkpt lat="62.632695067179" lon="17.969503960866">
        <ele>52</ele>
        <time>2018-01-29T18:12:31Z</time>
      </trkpt>
      <trkpt lat="62.632716943938" lon="17.969507900359">
        <ele>52.2</ele>
        <time>2018-01-29T18:12:32Z</time>
      </trkpt>
      <trkpt lat="62.632744352751" lon="17.969507397445">
        <ele>52.4</ele>
        <time>2018-01-29T18:12:33Z</time>
      </trkpt>
      <trkpt lat="62.632768660261" lon="17.969512929499">
        <ele>52.4</ele>
        <time>2018-01-29T18:12:34Z</time>
      </trkpt>
      <trkpt lat="62.63279137521" lon="17.969516533716">
        <ele>52.4</ele>
        <time>2018-01-29T18:12:35Z</time>
      </trkpt>
      <trkpt lat="62.632817526738" lon="17.969518210096">
        <ele>52.4</ele>
        <time>2018-01-29T18:12:36Z</time>
      </trkpt>
      <trkpt lat="62.632840409325" lon="17.969522736322">
        <ele>52.6</ele>
        <time>2018-01-29T18:12:37Z</time>
      </trkpt>
      <trkpt lat="62.632861028799" lon="17.969524999435">
        <ele>52.6</ele>
        <time>2018-01-29T18:12:38Z</time>
      </trkpt>
      <trkpt lat="62.632883157015" lon="17.969526759634">
        <ele>52.6</ele>
        <time>2018-01-29T18:12:39Z</time>
      </trkpt>
      <trkpt lat="62.632907632163" lon="17.969534973896">
        <ele>52.6</ele>
        <time>2018-01-29T18:12:40Z</time>
      </trkpt>
      <trkpt lat="62.632930598569" lon="17.969537572285">
        <ele>52.8</ele>
        <time>2018-01-29T18:12:41Z</time>
      </trkpt>
      <trkpt lat="62.632959432305" lon="17.969545367452">
        <ele>52.8</ele>
        <time>2018-01-29T18:12:42Z</time>
      </trkpt>
      <trkpt lat="62.632984075091" lon="17.969554000809">
        <ele>52.8</ele>
        <time>2018-01-29T18:12:43Z</time>
      </trkpt>
      <trkpt lat="62.633006538583" lon="17.969559113768">
        <ele>53</ele>
        <time>2018-01-29T18:12:44Z</time>
      </trkpt>
      <trkpt lat="62.633035204681" lon="17.969571099885">
        <ele>53</ele>
        <time>2018-01-29T18:12:45Z</time>
      </trkpt>
      <trkpt lat="62.633059847467" lon="17.969571938075">
        <ele>53</ele>
        <time>2018-01-29T18:12:46Z</time>
      </trkpt>
      <trkpt lat="62.633080383122" lon="17.96957738631">
        <ele>53.2</ele>
        <time>2018-01-29T18:12:47Z</time>
      </trkpt>
      <trkpt lat="62.633109635953" lon="17.969585181477">
        <ele>53.2</ele>
        <time>2018-01-29T18:12:48Z</time>
      </trkpt>
      <trkpt lat="62.633128495228" lon="17.96959079735">
        <ele>53</ele>
        <time>2018-01-29T18:12:49Z</time>
      </trkpt>
      <trkpt lat="62.63315431148" lon="17.969603537838">
        <ele>53.2</ele>
        <time>2018-01-29T18:12:50Z</time>
      </trkpt>
      <trkpt lat="62.633181217379" lon="17.969613093204">
        <ele>53.2</ele>
        <time>2018-01-29T18:12:51Z</time>
      </trkpt>
      <trkpt lat="62.63320460288" lon="17.96962097219">
        <ele>53.2</ele>
        <time>2018-01-29T18:12:52Z</time>
      </trkpt>
      <trkpt lat="62.633229916218" lon="17.969630108461">
        <ele>53.4</ele>
        <time>2018-01-29T18:12:53Z</time>
      </trkpt>
      <trkpt lat="62.633255229556" lon="17.969643519501">
        <ele>53.6</ele>
        <time>2018-01-29T18:12:54Z</time>
      </trkpt>
      <trkpt lat="62.633279704704" lon="17.969662462595">
        <ele>53.4</ele>
        <time>2018-01-29T18:12:55Z</time>
      </trkpt>
      <trkpt lat="62.633304934223" lon="17.969682411517">
        <ele>53.6</ele>
        <time>2018-01-29T18:12:56Z</time>
      </trkpt>
      <trkpt lat="62.633324966964" lon="17.969709065959">
        <ele>53.6</ele>
        <time>2018-01-29T18:12:57Z</time>
      </trkpt>
      <trkpt lat="62.633346927542" lon="17.969743180292">
        <ele>53.6</ele>
        <time>2018-01-29T18:12:58Z</time>
      </trkpt>
      <trkpt lat="62.633362936971" lon="17.969780898842">
        <ele>53.6</ele>
        <time>2018-01-29T18:12:59Z</time>
      </trkpt>
      <trkpt lat="62.633380036047" lon="17.969830184414">
        <ele>53.6</ele>
        <time>2018-01-29T18:13:00Z</time>
      </trkpt>
      <trkpt lat="62.633392608897" lon="17.969877542149">
        <ele>53.8</ele>
        <time>2018-01-29T18:13:01Z</time>
      </trkpt>
      <trkpt lat="62.633399984969" lon="17.969928755558">
        <ele>53.8</ele>
        <time>2018-01-29T18:13:02Z</time>
      </trkpt>
      <trkpt lat="62.633406187575" lon="17.969984159917">
        <ele>53.8</ele>
        <time>2018-01-29T18:13:03Z</time>
      </trkpt>
      <trkpt lat="62.633407696317" lon="17.970037887896">
        <ele>54.2</ele>
        <time>2018-01-29T18:13:04Z</time>
      </trkpt>
      <trkpt lat="62.633407361041" lon="17.970090526228">
        <ele>54.2</ele>
        <time>2018-01-29T18:13:05Z</time>
      </trkpt>
      <trkpt lat="62.633410294706" lon="17.97014316456">
        <ele>54.4</ele>
        <time>2018-01-29T18:13:06Z</time>
      </trkpt>
      <trkpt lat="62.633411468172" lon="17.970200664394">
        <ele>54.4</ele>
        <time>2018-01-29T18:13:07Z</time>
      </trkpt>
      <trkpt lat="62.633415240027" lon="17.970250955794">
        <ele>54.6</ele>
        <time>2018-01-29T18:13:08Z</time>
      </trkpt>
      <trkpt lat="62.633417838416" lon="17.970298397348">
        <ele>54.8</ele>
        <time>2018-01-29T18:13:09Z</time>
      </trkpt>
      <trkpt lat="62.633418928063" lon="17.97035690301">
        <ele>55</ele>
        <time>2018-01-29T18:13:10Z</time>
      </trkpt>
      <trkpt lat="62.633421023538" lon="17.970405937125">
        <ele>55</ele>
        <time>2018-01-29T18:13:11Z</time>
      </trkpt>
      <trkpt lat="62.633423789565" lon="17.970460587113">
        <ele>55.4</ele>
        <time>2018-01-29T18:13:12Z</time>
      </trkpt>
      <trkpt lat="62.633426387954" lon="17.970517919309">
        <ele>55.4</ele>
        <time>2018-01-29T18:13:13Z</time>
      </trkpt>
      <trkpt lat="62.633430159809" lon="17.970566701967">
        <ele>55.4</ele>
        <time>2018-01-29T18:13:14Z</time>
      </trkpt>
      <trkpt lat="62.63343091418" lon="17.970621854869">
        <ele>55.4</ele>
        <time>2018-01-29T18:13:15Z</time>
      </trkpt>
      <trkpt lat="62.633431165637" lon="17.970674325563">
        <ele>55.4</ele>
        <time>2018-01-29T18:13:16Z</time>
      </trkpt>
      <trkpt lat="62.633433177293" lon="17.970717157072">
        <ele>55.4</ele>
        <time>2018-01-29T18:13:17Z</time>
      </trkpt>
      <trkpt lat="62.633432339103" lon="17.970780356598">
        <ele>55.6</ele>
        <time>2018-01-29T18:13:18Z</time>
      </trkpt>
      <trkpt lat="62.63343678151" lon="17.97082880398">
        <ele>55.4</ele>
        <time>2018-01-29T18:13:19Z</time>
      </trkpt>
      <trkpt lat="62.63343845789" lon="17.97088412452">
        <ele>55.4</ele>
        <time>2018-01-29T18:13:20Z</time>
      </trkpt>
      <trkpt lat="62.633438122614" lon="17.97094112144">
        <ele>55.6</ele>
        <time>2018-01-29T18:13:21Z</time>
      </trkpt>
      <trkpt lat="62.633438960804" lon="17.970994849419">
        <ele>55.8</ele>
        <time>2018-01-29T18:13:22Z</time>
      </trkpt>
      <trkpt lat="62.633438709347" lon="17.971027957924">
        <ele>55.8</ele>
        <time>2018-01-29T18:13:23Z</time>
      </trkpt>
      <trkpt lat="62.633437535881" lon="17.971101802463">
        <ele>55.8</ele>
        <time>2018-01-29T18:13:24Z</time>
      </trkpt>
      <trkpt lat="62.633439547537" lon="17.971158799383">
        <ele>56</ele>
        <time>2018-01-29T18:13:25Z</time>
      </trkpt>
      <trkpt lat="62.633439044623" lon="17.971216802131">
        <ele>56.2</ele>
        <time>2018-01-29T18:13:26Z</time>
      </trkpt>
      <trkpt lat="62.633439547537" lon="17.971271116843">
        <ele>56.2</ele>
        <time>2018-01-29T18:13:27Z</time>
      </trkpt>
      <trkpt lat="62.63343929608" lon="17.971326772659">
        <ele>56.4</ele>
        <time>2018-01-29T18:13:28Z</time>
      </trkpt>
      <trkpt lat="62.633438709347" lon="17.971381255009">
        <ele>56.4</ele>
        <time>2018-01-29T18:13:29Z</time>
      </trkpt>
      <trkpt lat="62.633437535881" lon="17.971447472019">
        <ele>56.4</ele>
        <time>2018-01-29T18:13:30Z</time>
      </trkpt>
      <trkpt lat="62.633436697691" lon="17.971501367636">
        <ele>56.6</ele>
        <time>2018-01-29T18:13:31Z</time>
      </trkpt>
      <trkpt lat="62.63343342875" lon="17.971556855814">
        <ele>56.8</ele>
        <time>2018-01-29T18:13:32Z</time>
      </trkpt>
      <trkpt lat="62.633431836189" lon="17.971616283485">
        <ele>56.8</ele>
        <time>2018-01-29T18:13:33Z</time>
      </trkpt>
      <trkpt lat="62.63342588504" lon="17.971670849654">
        <ele>57.2</ele>
        <time>2018-01-29T18:13:34Z</time>
      </trkpt>
      <trkpt lat="62.633421107357" lon="17.971726086375">
        <ele>57.4</ele>
        <time>2018-01-29T18:13:35Z</time>
      </trkpt>
      <trkpt lat="62.633416245855" lon="17.971781490734">
        <ele>57.4</ele>
        <time>2018-01-29T18:13:36Z</time>
      </trkpt>
      <trkpt lat="62.633411887267" lon="17.971838655292">
        <ele>57.4</ele>
        <time>2018-01-29T18:13:37Z</time>
      </trkpt>
      <trkpt lat="62.633406271394" lon="17.9718916289">
        <ele>57.6</ele>
        <time>2018-01-29T18:13:38Z</time>
      </trkpt>
      <trkpt lat="62.633402248082" lon="17.971947871449">
        <ele>57.6</ele>
        <time>2018-01-29T18:13:39Z</time>
      </trkpt>
      <trkpt lat="62.63339487201" lon="17.97200813731">
        <ele>57.6</ele>
        <time>2018-01-29T18:13:40Z</time>
      </trkpt>
      <trkpt lat="62.633390261965" lon="17.972057506701">
        <ele>57.6</ele>
        <time>2018-01-29T18:13:41Z</time>
      </trkpt>
      <trkpt lat="62.633383556445" lon="17.972117604924">
        <ele>57.8</ele>
        <time>2018-01-29T18:13:42Z</time>
      </trkpt>
      <trkpt lat="62.633376683287" lon="17.972170997627">
        <ele>57.8</ele>
        <time>2018-01-29T18:13:43Z</time>
      </trkpt>
      <trkpt lat="62.633369810129" lon="17.972220534656">
        <ele>57.8</ele>
        <time>2018-01-29T18:13:44Z</time>
      </trkpt>
      <trkpt lat="62.633360003306" lon="17.972277531576">
        <ele>57.8</ele>
        <time>2018-01-29T18:13:45Z</time>
      </trkpt>
      <trkpt lat="62.633353046329" lon="17.972334528496">
        <ele>57.8</ele>
        <time>2018-01-29T18:13:46Z</time>
      </trkpt>
      <trkpt lat="62.633346340809" lon="17.972380628946">
        <ele>58</ele>
        <time>2018-01-29T18:13:47Z</time>
      </trkpt>
      <trkpt lat="62.633331840122" lon="17.972444918119">
        <ele>58</ele>
        <time>2018-01-29T18:13:48Z</time>
      </trkpt>
      <trkpt lat="62.633323542041" lon="17.972492024397">
        <ele>58.2</ele>
        <time>2018-01-29T18:13:49Z</time>
      </trkpt>
      <trkpt lat="62.633313399942" lon="17.972551116792">
        <ele>58.2</ele>
        <time>2018-01-29T18:13:50Z</time>
      </trkpt>
      <trkpt lat="62.633304263671" lon="17.972604425676">
        <ele>58.4</ele>
        <time>2018-01-29T18:13:51Z</time>
      </trkpt>
      <trkpt lat="62.633295797952" lon="17.972657231646">
        <ele>58.6</ele>
        <time>2018-01-29T18:13:52Z</time>
      </trkpt>
      <trkpt lat="62.633284901482" lon="17.972710791987">
        <ele>58.6</ele>
        <time>2018-01-29T18:13:53Z</time>
      </trkpt>
      <trkpt lat="62.633274088831" lon="17.972761837758">
        <ele>58.6</ele>
        <time>2018-01-29T18:13:54Z</time>
      </trkpt>
      <trkpt lat="62.633261013067" lon="17.972824785827">
        <ele>58.8</ele>
        <time>2018-01-29T18:13:55Z</time>
      </trkpt>
      <trkpt lat="62.633251373882" lon="17.972883123851">
        <ele>59</ele>
        <time>2018-01-29T18:13:56Z</time>
      </trkpt>
      <trkpt lat="62.633240980326" lon="17.972934001984">
        <ele>58.8</ele>
        <time>2018-01-29T18:13:57Z</time>
      </trkpt>
      <trkpt lat="62.633229078028" lon="17.972985550669">
        <ele>59</ele>
        <time>2018-01-29T18:13:58Z</time>
      </trkpt>
      <trkpt lat="62.63322136668" lon="17.973027879264">
        <ele>59.2</ele>
        <time>2018-01-29T18:13:59Z</time>
      </trkpt>
      <trkpt lat="62.633207536545" lon="17.973087390754">
        <ele>59</ele>
        <time>2018-01-29T18:14:00Z</time>
      </trkpt>
      <trkpt lat="62.633193957867" lon="17.973138771801">
        <ele>59</ele>
        <time>2018-01-29T18:14:01Z</time>
      </trkpt>
      <trkpt lat="62.633183815768" lon="17.973183950242">
        <ele>59</ele>
        <time>2018-01-29T18:14:02Z</time>
      </trkpt>
      <trkpt lat="62.633171494375" lon="17.973235079832">
        <ele>59</ele>
        <time>2018-01-29T18:14:03Z</time>
      </trkpt>
      <trkpt lat="62.633161436095" lon="17.973279922997">
        <ele>59</ele>
        <time>2018-01-29T18:14:04Z</time>
      </trkpt>
      <trkpt lat="62.633150204349" lon="17.973330717311">
        <ele>58.8</ele>
        <time>2018-01-29T18:14:05Z</time>
      </trkpt>
      <trkpt lat="62.633136290395" lon="17.973390228801">
        <ele>59</ele>
        <time>2018-01-29T18:14:06Z</time>
      </trkpt>
      <trkpt lat="62.633125393925" lon="17.973440352563">
        <ele>59</ele>
        <time>2018-01-29T18:14:07Z</time>
      </trkpt>
      <trkpt lat="62.633113491627" lon="17.973493829085">
        <ele>59.2</ele>
        <time>2018-01-29T18:14:08Z</time>
      </trkpt>
      <trkpt lat="62.633102678976" lon="17.973542695562">
        <ele>59.4</ele>
        <time>2018-01-29T18:14:09Z</time>
      </trkpt>
      <trkpt lat="62.63309312361" lon="17.973593908971">
        <ele>59.6</ele>
        <time>2018-01-29T18:14:10Z</time>
      </trkpt>
      <trkpt lat="62.633081975683" lon="17.973640847611">
        <ele>59.8</ele>
        <time>2018-01-29T18:14:11Z</time>
      </trkpt>
      <trkpt lat="62.633071079213" lon="17.973684852586">
        <ele>60</ele>
        <time>2018-01-29T18:14:12Z</time>
      </trkpt>
      <trkpt lat="62.633058841639" lon="17.973736820366">
        <ele>60.2</ele>
        <time>2018-01-29T18:14:13Z</time>
      </trkpt>
      <trkpt lat="62.633045179142" lon="17.973783591368">
        <ele>60.4</ele>
        <time>2018-01-29T18:14:14Z</time>
      </trkpt>
      <trkpt lat="62.633033528301" lon="17.973831954931">
        <ele>60.4</ele>
        <time>2018-01-29T18:14:15Z</time>
      </trkpt>
      <trkpt lat="62.633019446709" lon="17.973885179996">
        <ele>60.4</ele>
        <time>2018-01-29T18:14:16Z</time>
      </trkpt>
      <trkpt lat="62.633009556067" lon="17.973926418944">
        <ele>60.4</ele>
        <time>2018-01-29T18:14:17Z</time>
      </trkpt>
      <trkpt lat="62.632994133371" lon="17.973982493855">
        <ele>60</ele>
        <time>2018-01-29T18:14:18Z</time>
      </trkpt>
      <trkpt lat="62.632980219417" lon="17.974030186866">
        <ele>60</ele>
        <time>2018-01-29T18:14:19Z</time>
      </trkpt>
      <trkpt lat="62.632969155309" lon="17.974085675044">
        <ele>60.2</ele>
        <time>2018-01-29T18:14:20Z</time>
      </trkpt>
      <trkpt lat="62.632953900251" lon="17.974140911765">
        <ele>60.2</ele>
        <time>2018-01-29T18:14:21Z</time>
      </trkpt>
      <trkpt lat="62.632942081772" lon="17.974191119346">
        <ele>60.2</ele>
        <time>2018-01-29T18:14:22Z</time>
      </trkpt>
      <trkpt lat="62.632928922189" lon="17.974240069642">
        <ele>60.4</ele>
        <time>2018-01-29T18:14:23Z</time>
      </trkpt>
      <trkpt lat="62.632915511149" lon="17.974292372698">
        <ele>60.4</ele>
        <time>2018-01-29T18:14:24Z</time>
      </trkpt>
      <trkpt lat="62.632904614679" lon="17.974343921383">
        <ele>60.6</ele>
        <time>2018-01-29T18:14:25Z</time>
      </trkpt>
      <trkpt lat="62.632891287458" lon="17.974396643534">
        <ele>60.6</ele>
        <time>2018-01-29T18:14:26Z</time>
      </trkpt>
      <trkpt lat="62.632876116219" lon="17.974445761468">
        <ele>60.6</ele>
        <time>2018-01-29T18:14:27Z</time>
      </trkpt>
      <trkpt lat="62.632858849505" lon="17.974486916597">
        <ele>60.6</ele>
        <time>2018-01-29T18:14:28Z</time>
      </trkpt>
      <trkpt lat="62.632837894755" lon="17.974523461681">
        <ele>60.6</ele>
        <time>2018-01-29T18:14:29Z</time>
      </trkpt>
      <trkpt lat="62.632814090159" lon="17.974554139435">
        <ele>60.6</ele>
        <time>2018-01-29T18:14:30Z</time>
      </trkpt>
      <trkpt lat="62.632786765165" lon="17.974570735597">
        <ele>60.6</ele>
        <time>2018-01-29T18:14:31Z</time>
      </trkpt>
      <trkpt lat="62.632760613637" lon="17.97456796957">
        <ele>60.6</ele>
        <time>2018-01-29T18:14:32Z</time>
      </trkpt>
      <trkpt lat="62.632736725222" lon="17.974561934602">
        <ele>60.4</ele>
        <time>2018-01-29T18:14:33Z</time>
      </trkpt>
      <trkpt lat="62.632713339721" lon="17.97453695654">
        <ele>60.4</ele>
        <time>2018-01-29T18:14:34Z</time>
      </trkpt>
      <trkpt lat="62.63268492508" lon="17.974516085609">
        <ele>60.6</ele>
        <time>2018-01-29T18:14:35Z</time>
      </trkpt>
      <trkpt lat="62.632657348629" lon="17.974502423112">
        <ele>60.8</ele>
        <time>2018-01-29T18:14:36Z</time>
      </trkpt>
      <trkpt lat="62.632632705843" lon="17.974478199421">
        <ele>61</ele>
        <time>2018-01-29T18:14:37Z</time>
      </trkpt>
      <trkpt lat="62.632606805772" lon="17.974455735929">
        <ele>61.2</ele>
        <time>2018-01-29T18:14:38Z</time>
      </trkpt>
      <trkpt lat="62.632588030316" lon="17.974431596057">
        <ele>61.4</ele>
        <time>2018-01-29T18:14:39Z</time>
      </trkpt>
      <trkpt lat="62.632561124417" lon="17.974415251352">
        <ele>61.4</ele>
        <time>2018-01-29T18:14:40Z</time>
      </trkpt>
      <trkpt lat="62.632541091676" lon="17.974385076512">
        <ele>61.6</ele>
        <time>2018-01-29T18:14:41Z</time>
      </trkpt>
      <trkpt lat="62.632514521053" lon="17.974358170613">
        <ele>61.6</ele>
        <time>2018-01-29T18:14:42Z</time>
      </trkpt>
      <trkpt lat="62.632496416149" lon="17.974341909727">
        <ele>61.6</ele>
        <time>2018-01-29T18:14:43Z</time>
      </trkpt>
      <trkpt lat="62.632473952657" lon="17.974324391556">
        <ele>61.6</ele>
        <time>2018-01-29T18:14:44Z</time>
      </trkpt>
      <trkpt lat="62.632443442541" lon="17.974306873385">
        <ele>61.6</ele>
        <time>2018-01-29T18:14:45Z</time>
      </trkpt>
      <trkpt lat="62.632418045384" lon="17.974293127069">
        <ele>61.6</ele>
        <time>2018-01-29T18:14:46Z</time>
      </trkpt>
      <trkpt lat="62.63239910229" lon="17.974269909206">
        <ele>61.6</ele>
        <time>2018-01-29T18:14:47Z</time>
      </trkpt>
      <trkpt lat="62.632365407052" lon="17.974242165117">
        <ele>61.6</ele>
        <time>2018-01-29T18:14:48Z</time>
      </trkpt>
      <trkpt lat="62.632341183361" lon="17.974204614205">
        <ele>61.6</ele>
        <time>2018-01-29T18:14:49Z</time>
      </trkpt>
      <trkpt lat="62.63231528329" lon="17.974188604776">
        <ele>61.6</ele>
        <time>2018-01-29T18:14:50Z</time>
      </trkpt>
      <trkpt lat="62.632289969952" lon="17.974171170424">
        <ele>61.6</ele>
        <time>2018-01-29T18:14:51Z</time>
      </trkpt>
      <trkpt lat="62.632262309682" lon="17.974138564833">
        <ele>61.6</ele>
        <time>2018-01-29T18:14:52Z</time>
      </trkpt>
      <trkpt lat="62.632237583077" lon="17.97411618516">
        <ele>61.8</ele>
        <time>2018-01-29T18:14:53Z</time>
      </trkpt>
      <trkpt lat="62.632211431549" lon="17.974087770519">
        <ele>61.8</ele>
        <time>2018-01-29T18:14:54Z</time>
      </trkpt>
      <trkpt lat="62.632183603641" lon="17.97405667367">
        <ele>61.8</ele>
        <time>2018-01-29T18:14:55Z</time>
      </trkpt>
      <trkpt lat="62.632159212312" lon="17.974037646757">
        <ele>61.8</ele>
        <time>2018-01-29T18:14:56Z</time>
      </trkpt>
      <trkpt lat="62.632136413544" lon="17.97400889684">
        <ele>61.8</ele>
        <time>2018-01-29T18:14:57Z</time>
      </trkpt>
      <trkpt lat="62.63210405941" lon="17.973984840787">
        <ele>61.8</ele>
        <time>2018-01-29T18:14:58Z</time>
      </trkpt>
      <trkpt lat="62.632081763556" lon="17.973963215485">
        <ele>61.8</ele>
        <time>2018-01-29T18:14:59Z</time>
      </trkpt>
      <trkpt lat="62.63205544439" lon="17.973927173315">
        <ele>61.8</ele>
        <time>2018-01-29T18:15:00Z</time>
      </trkpt>
      <trkpt lat="62.632031639794" lon="17.973891382602">
        <ele>61.8</ele>
        <time>2018-01-29T18:15:01Z</time>
      </trkpt>
      <trkpt lat="62.632011187958" lon="17.973866069264">
        <ele>61.6</ele>
        <time>2018-01-29T18:15:02Z</time>
      </trkpt>
      <trkpt lat="62.631986796629" lon="17.973829105085">
        <ele>61.8</ele>
        <time>2018-01-29T18:15:03Z</time>
      </trkpt>
      <trkpt lat="62.631961818567" lon="17.973800438987">
        <ele>61.8</ele>
        <time>2018-01-29T18:15:04Z</time>
      </trkpt>
      <trkpt lat="62.631936086134" lon="17.973777304943">
        <ele>61.8</ele>
        <time>2018-01-29T18:15:05Z</time>
      </trkpt>
      <trkpt lat="62.63190959933" lon="17.973747968293">
        <ele>61.8</ele>
        <time>2018-01-29T18:15:06Z</time>
      </trkpt>
      <trkpt lat="62.631885878553" lon="17.973720894756">
        <ele>61.8</ele>
        <time>2018-01-29T18:15:07Z</time>
      </trkpt>
      <trkpt lat="62.631862493052" lon="17.97369792835">
        <ele>61.8</ele>
        <time>2018-01-29T18:15:08Z</time>
      </trkpt>
      <trkpt lat="62.631835922429" lon="17.973670603356">
        <ele>61.6</ele>
        <time>2018-01-29T18:15:09Z</time>
      </trkpt>
      <trkpt lat="62.631812201652" lon="17.973641853439">
        <ele>61.6</ele>
        <time>2018-01-29T18:15:10Z</time>
      </trkpt>
      <trkpt lat="62.631789821979" lon="17.973612768246">
        <ele>61.4</ele>
        <time>2018-01-29T18:15:11Z</time>
      </trkpt>
      <trkpt lat="62.631762664623" lon="17.973573792411">
        <ele>61.6</ele>
        <time>2018-01-29T18:15:12Z</time>
      </trkpt>
      <trkpt lat="62.631741542235" lon="17.973537498784">
        <ele>61.4</ele>
        <time>2018-01-29T18:15:13Z</time>
      </trkpt>
      <trkpt lat="62.631719581657" lon="17.973507575401">
        <ele>61.4</ele>
        <time>2018-01-29T18:15:14Z</time>
      </trkpt>
      <trkpt lat="62.631695106509" lon="17.973465498263">
        <ele>61.4</ele>
        <time>2018-01-29T18:15:15Z</time>
      </trkpt>
      <trkpt lat="62.631673732664" lon="17.973431970663">
        <ele>61.4</ele>
        <time>2018-01-29T18:15:16Z</time>
      </trkpt>
      <trkpt lat="62.631661159814" lon="17.973404645669">
        <ele>61.4</ele>
        <time>2018-01-29T18:15:17Z</time>
      </trkpt>
      <trkpt lat="62.631628135128" lon="17.973344044532">
        <ele>61.4</ele>
        <time>2018-01-29T18:15:18Z</time>
      </trkpt>
      <trkpt lat="62.631607934749" lon="17.973306912715">
        <ele>61.4</ele>
        <time>2018-01-29T18:15:19Z</time>
      </trkpt>
      <trkpt lat="62.631583291963" lon="17.973257375686">
        <ele>61.2</ele>
        <time>2018-01-29T18:15:20Z</time>
      </trkpt>
      <trkpt lat="62.631559906462" lon="17.97321680729">
        <ele>61.2</ele>
        <time>2018-01-29T18:15:21Z</time>
      </trkpt>
      <trkpt lat="62.631540292816" lon="17.973172802315">
        <ele>61</ele>
        <time>2018-01-29T18:15:22Z</time>
      </trkpt>
      <trkpt lat="62.631526043586" lon="17.973125779856">
        <ele>60.8</ele>
        <time>2018-01-29T18:15:23Z</time>
      </trkpt>
      <trkpt lat="62.631507016673" lon="17.973077332474">
        <ele>60.8</ele>
        <time>2018-01-29T18:15:24Z</time>
      </trkpt>
      <trkpt lat="62.631486564837" lon="17.973026789617">
        <ele>60.6</ele>
        <time>2018-01-29T18:15:25Z</time>
      </trkpt>
      <trkpt lat="62.631465526268" lon="17.972969205964">
        <ele>60.4</ele>
        <time>2018-01-29T18:15:26Z</time>
      </trkpt>
      <trkpt lat="62.631448511011" lon="17.972916986727">
        <ele>60.4</ele>
        <time>2018-01-29T18:15:27Z</time>
      </trkpt>
      <trkpt lat="62.631430573745" lon="17.972865940956">
        <ele>60.2</ele>
        <time>2018-01-29T18:15:28Z</time>
      </trkpt>
      <trkpt lat="62.631413223212" lon="17.972816739203">
        <ele>60.2</ele>
        <time>2018-01-29T18:15:29Z</time>
      </trkpt>
      <trkpt lat="62.631391346453" lon="17.972755048419">
        <ele>60</ele>
        <time>2018-01-29T18:15:30Z</time>
      </trkpt>
      <trkpt lat="62.631373744463" lon="17.972696542757">
        <ele>59.8</ele>
        <time>2018-01-29T18:15:31Z</time>
      </trkpt>
      <trkpt lat="62.631354885188" lon="17.972648682108">
        <ele>59.6</ele>
        <time>2018-01-29T18:15:32Z</time>
      </trkpt>
      <trkpt lat="62.631335942094" lon="17.9725957085">
        <ele>59.6</ele>
        <time>2018-01-29T18:15:33Z</time>
      </trkpt>
      <trkpt lat="62.631317334276" lon="17.972544998005">
        <ele>59.2</ele>
        <time>2018-01-29T18:15:34Z</time>
      </trkpt>
      <trkpt lat="62.631292523852" lon="17.97249596389">
        <ele>59.2</ele>
        <time>2018-01-29T18:15:35Z</time>
      </trkpt>
      <trkpt lat="62.63128598597" lon="17.972470231457">
        <ele>59.2</ele>
        <time>2018-01-29T18:15:36Z</time>
      </trkpt>
      <trkpt lat="62.631259666804" lon="17.972380712765">
        <ele>58.8</ele>
        <time>2018-01-29T18:15:37Z</time>
      </trkpt>
      <trkpt lat="62.631238628235" lon="17.972323380569">
        <ele>58.6</ele>
        <time>2018-01-29T18:15:38Z</time>
      </trkpt>
      <trkpt lat="62.631219349865" lon="17.972276441929">
        <ele>58.6</ele>
        <time>2018-01-29T18:15:39Z</time>
      </trkpt>
      <trkpt lat="62.631199903857" lon="17.972211649842">
        <ele>58.2</ele>
        <time>2018-01-29T18:15:40Z</time>
      </trkpt>
      <trkpt lat="62.63118791774" lon="17.972149204687">
        <ele>58.2</ele>
        <time>2018-01-29T18:15:41Z</time>
      </trkpt>
      <trkpt lat="62.631168304094" lon="17.972089777016">
        <ele>58</ele>
        <time>2018-01-29T18:15:42Z</time>
      </trkpt>
      <trkpt lat="62.631149025724" lon="17.972032025725">
        <ele>57.8</ele>
        <time>2018-01-29T18:15:43Z</time>
      </trkpt>
      <trkpt lat="62.631143409851" lon="17.971975783176">
        <ele>57.6</ele>
        <time>2018-01-29T18:15:44Z</time>
      </trkpt>
      <trkpt lat="62.631126143137" lon="17.971916020229">
        <ele>57.6</ele>
        <time>2018-01-29T18:15:45Z</time>
      </trkpt>
      <trkpt lat="62.631111223355" lon="17.971855083816">
        <ele>57.4</ele>
        <time>2018-01-29T18:15:46Z</time>
      </trkpt>
      <trkpt lat="62.631098399048" lon="17.971805798244">
        <ele>57.4</ele>
        <time>2018-01-29T18:15:47Z</time>
      </trkpt>
      <trkpt lat="62.631083060171" lon="17.971740419424">
        <ele>57.4</ele>
        <time>2018-01-29T18:15:48Z</time>
      </trkpt>
      <trkpt lat="62.631069649131" lon="17.971680321201">
        <ele>57.4</ele>
        <time>2018-01-29T18:15:49Z</time>
      </trkpt>
      <trkpt lat="62.631053974978" lon="17.971612679268">
        <ele>57.2</ele>
        <time>2018-01-29T18:15:50Z</time>
      </trkpt>
      <trkpt lat="62.63104458725" lon="17.971553419235">
        <ele>57</ele>
        <time>2018-01-29T18:15:51Z</time>
      </trkpt>
      <trkpt lat="62.631035618617" lon="17.971492315184">
        <ele>57</ele>
        <time>2018-01-29T18:15:52Z</time>
      </trkpt>
      <trkpt lat="62.631025560337" lon="17.971433222789">
        <ele>56.8</ele>
        <time>2018-01-29T18:15:53Z</time>
      </trkpt>
      <trkpt lat="62.631018100446" lon="17.971367424874">
        <ele>56.6</ele>
        <time>2018-01-29T18:15:54Z</time>
      </trkpt>
      <trkpt lat="62.631004940863" lon="17.971300202036">
        <ele>56.6</ele>
        <time>2018-01-29T18:15:55Z</time>
      </trkpt>
      <trkpt lat="62.630993122384" lon="17.971238092157">
        <ele>56.4</ele>
        <time>2018-01-29T18:15:56Z</time>
      </trkpt>
      <trkpt lat="62.63098759033" lon="17.971169276758">
        <ele>56.6</ele>
        <time>2018-01-29T18:15:57Z</time>
      </trkpt>
      <trkpt lat="62.630975101299" lon="17.971111609286">
        <ele>56.4</ele>
        <time>2018-01-29T18:15:58Z</time>
      </trkpt>
      <trkpt lat="62.630966719399" lon="17.971066263207">
        <ele>56.4</ele>
        <time>2018-01-29T18:15:59Z</time>
      </trkpt>
      <trkpt lat="62.630955571472" lon="17.970986467519">
        <ele>56.2</ele>
        <time>2018-01-29T18:16:00Z</time>
      </trkpt>
      <trkpt lat="62.630946183744" lon="17.970924022364">
        <ele>56.2</ele>
        <time>2018-01-29T18:16:01Z</time>
      </trkpt>
      <trkpt lat="62.630936209283" lon="17.970866690168">
        <ele>56</ele>
        <time>2018-01-29T18:16:02Z</time>
      </trkpt>
      <trkpt lat="62.63092807884" lon="17.970808435963">
        <ele>55.8</ele>
        <time>2018-01-29T18:16:03Z</time>
      </trkpt>
      <trkpt lat="62.630919277845" lon="17.970750768491">
        <ele>55.8</ele>
        <time>2018-01-29T18:16:04Z</time>
      </trkpt>
      <trkpt lat="62.63091299142" lon="17.970684048567">
        <ele>55.6</ele>
        <time>2018-01-29T18:16:05Z</time>
      </trkpt>
      <trkpt lat="62.630904525701" lon="17.970617077186">
        <ele>55.4</ele>
        <time>2018-01-29T18:16:06Z</time>
      </trkpt>
      <trkpt lat="62.630897652543" lon="17.970549854348">
        <ele>55.2</ele>
        <time>2018-01-29T18:16:07Z</time>
      </trkpt>
      <trkpt lat="62.630889941195" lon="17.970491683962">
        <ele>55</ele>
        <time>2018-01-29T18:16:08Z</time>
      </trkpt>
      <trkpt lat="62.63088281658" lon="17.970438123621">
        <ele>55</ele>
        <time>2018-01-29T18:16:09Z</time>
      </trkpt>
      <trkpt lat="62.630874350861" lon="17.970376265199">
        <ele>55</ele>
        <time>2018-01-29T18:16:10Z</time>
      </trkpt>
      <trkpt lat="62.630868232074" lon="17.970327817817">
        <ele>55.2</ele>
        <time>2018-01-29T18:16:11Z</time>
      </trkpt>
      <trkpt lat="62.630856329776" lon="17.970287752335">
        <ele>55</ele>
        <time>2018-01-29T18:16:12Z</time>
      </trkpt>
      <trkpt lat="62.630832944275" lon="17.970262941911">
        <ele>54.8</ele>
        <time>2018-01-29T18:16:13Z</time>
      </trkpt>
      <trkpt lat="62.63080737948" lon="17.970264785929">
        <ele>54.8</ele>
        <time>2018-01-29T18:16:14Z</time>
      </trkpt>
      <trkpt lat="62.630781060314" lon="17.970268306327">
        <ele>54.6</ele>
        <time>2018-01-29T18:16:15Z</time>
      </trkpt>
      <trkpt lat="62.630755746976" lon="17.97027140763">
        <ele>54.6</ele>
        <time>2018-01-29T18:16:16Z</time>
      </trkpt>
      <trkpt lat="62.630735965692" lon="17.970277694055">
        <ele>54.4</ele>
        <time>2018-01-29T18:16:17Z</time>
      </trkpt>
      <trkpt lat="62.630705707033" lon="17.970289680172">
        <ele>54.4</ele>
        <time>2018-01-29T18:16:18Z</time>
      </trkpt>
      <trkpt lat="62.630685087559" lon="17.970290937457">
        <ele>54.6</ele>
        <time>2018-01-29T18:16:19Z</time>
      </trkpt>
      <trkpt lat="62.630656002366" lon="17.970295296045">
        <ele>54.4</ele>
        <time>2018-01-29T18:16:20Z</time>
      </trkpt>
      <trkpt lat="62.630627420087" lon="17.970300576642">
        <ele>54.4</ele>
        <time>2018-01-29T18:16:21Z</time>
      </trkpt>
      <trkpt lat="62.630601855292" lon="17.970313568587">
        <ele>54.6</ele>
        <time>2018-01-29T18:16:22Z</time>
      </trkpt>
      <trkpt lat="62.630585091492" lon="17.970324800333">
        <ele>54.6</ele>
        <time>2018-01-29T18:16:23Z</time>
      </trkpt>
      <trkpt lat="62.630557179765" lon="17.970330583844">
        <ele>54.6</ele>
        <time>2018-01-29T18:16:24Z</time>
      </trkpt>
      <trkpt lat="62.630534883911" lon="17.970331841129">
        <ele>54.8</ele>
        <time>2018-01-29T18:16:25Z</time>
      </trkpt>
      <trkpt lat="62.630514348256" lon="17.970309461456">
        <ele>55</ele>
        <time>2018-01-29T18:16:26Z</time>
      </trkpt>
      <trkpt lat="62.630497919732" lon="17.970262355178">
        <ele>55.2</ele>
        <time>2018-01-29T18:16:27Z</time>
      </trkpt>
      <trkpt lat="62.630491465669" lon="17.970211477045">
        <ele>55.2</ele>
        <time>2018-01-29T18:16:28Z</time>
      </trkpt>
      <trkpt lat="62.630487107081" lon="17.970165544233">
        <ele>55.4</ele>
        <time>2018-01-29T18:16:29Z</time>
      </trkpt>
      <trkpt lat="62.630482413217" lon="17.970109720779">
        <ele>55.4</ele>
        <time>2018-01-29T18:16:30Z</time>
      </trkpt>
      <trkpt lat="62.630479814828" lon="17.970072337505">
        <ele>55.4</ele>
        <time>2018-01-29T18:16:31Z</time>
      </trkpt>
      <trkpt lat="62.630479311914" lon="17.970037468801">
        <ele>55.6</ele>
        <time>2018-01-29T18:16:32Z</time>
      </trkpt>
      <trkpt lat="62.63048048538" lon="17.970005198486">
        <ele>55.4</ele>
        <time>2018-01-29T18:16:33Z</time>
      </trkpt>
      <trkpt lat="62.630478054629" lon="17.969981812985">
        <ele>55.4</ele>
        <time>2018-01-29T18:16:34Z</time>
      </trkpt>
      <trkpt lat="62.630475959154" lon="17.969968653402">
        <ele>55.4</ele>
        <time>2018-01-29T18:16:35Z</time>
      </trkpt>
      <trkpt lat="62.630475959154" lon="17.969964462452">
        <ele>55.4</ele>
        <time>2018-01-29T18:16:36Z</time>
      </trkpt>
      <trkpt lat="62.630479228095" lon="17.969977705854">
        <ele>55.2</ele>
        <time>2018-01-29T18:16:37Z</time>
      </trkpt>
      <trkpt lat="62.630559107602" lon="17.970282639376">
        <ele>55</ele>
        <time>2018-01-29T18:17:27Z</time>
      </trkpt>
      <trkpt lat="62.630578218334" lon="17.970291691828">
        <ele>55.2</ele>
        <time>2018-01-29T18:17:28Z</time>
      </trkpt>
      <trkpt lat="62.630600178912" lon="17.970273167829">
        <ele>55.2</ele>
        <time>2018-01-29T18:17:29Z</time>
      </trkpt>
      <trkpt lat="62.630621133662" lon="17.97026051116">
        <ele>55.4</ele>
        <time>2018-01-29T18:17:30Z</time>
      </trkpt>
      <trkpt lat="62.630639573842" lon="17.970252464536">
        <ele>55.4</ele>
        <time>2018-01-29T18:17:31Z</time>
      </trkpt>
      <trkpt lat="62.630659187488" lon="17.970247016301">
        <ele>55.4</ele>
        <time>2018-01-29T18:17:32Z</time>
      </trkpt>
      <trkpt lat="62.630673101442" lon="17.970243412084">
        <ele>55.4</ele>
        <time>2018-01-29T18:17:33Z</time>
      </trkpt>
      <trkpt lat="62.63068081279" lon="17.970234024356">
        <ele>55.4</ele>
        <time>2018-01-29T18:17:34Z</time>
      </trkpt>
      <trkpt lat="62.630697660409" lon="17.97022530718">
        <ele>55.2</ele>
        <time>2018-01-29T18:17:35Z</time>
      </trkpt>
      <trkpt lat="62.630708556879" lon="17.970224049895">
        <ele>55.2</ele>
        <time>2018-01-29T18:17:36Z</time>
      </trkpt>
      <trkpt lat="62.630719537168" lon="17.970220445678">
        <ele>55</ele>
        <time>2018-01-29T18:17:37Z</time>
      </trkpt>
      <trkpt lat="62.630731774742" lon="17.970215667995">
        <ele>55</ele>
        <time>2018-01-29T18:17:38Z</time>
      </trkpt>
      <trkpt lat="62.630747197438" lon="17.970217092918">
        <ele>55</ele>
        <time>2018-01-29T18:17:39Z</time>
      </trkpt>
      <trkpt lat="62.630757758632" lon="17.970211728502">
        <ele>55</ele>
        <time>2018-01-29T18:17:40Z</time>
      </trkpt>
      <trkpt lat="62.630770163844" lon="17.97020351424">
        <ele>55.2</ele>
        <time>2018-01-29T18:17:41Z</time>
      </trkpt>
      <trkpt lat="62.630782317599" lon="17.970197563091">
        <ele>55.2</ele>
        <time>2018-01-29T18:17:42Z</time>
      </trkpt>
      <trkpt lat="62.630794638992" lon="17.970194210331">
        <ele>55.2</ele>
        <time>2018-01-29T18:17:43Z</time>
      </trkpt>
      <trkpt lat="62.630808720584" lon="17.9701901032">
        <ele>55.2</ele>
        <time>2018-01-29T18:17:44Z</time>
      </trkpt>
      <trkpt lat="62.630820455244" lon="17.970185157879">
        <ele>55.2</ele>
        <time>2018-01-29T18:17:45Z</time>
      </trkpt>
      <trkpt lat="62.63083168699" lon="17.970181553662">
        <ele>55</ele>
        <time>2018-01-29T18:17:46Z</time>
      </trkpt>
      <trkpt lat="62.630845433306" lon="17.970180296377">
        <ele>55</ele>
        <time>2018-01-29T18:17:47Z</time>
      </trkpt>
      <trkpt lat="62.630855826862" lon="17.970174093771">
        <ele>54.8</ele>
        <time>2018-01-29T18:17:48Z</time>
      </trkpt>
      <trkpt lat="62.630868148255" lon="17.970155988867">
        <ele>54.8</ele>
        <time>2018-01-29T18:17:49Z</time>
      </trkpt>
      <trkpt lat="62.630877452164" lon="17.970144673302">
        <ele>54.8</ele>
        <time>2018-01-29T18:17:50Z</time>
      </trkpt>
      <trkpt lat="62.630886672254" lon="17.970139476524">
        <ele>54.8</ele>
        <time>2018-01-29T18:17:51Z</time>
      </trkpt>
      <trkpt lat="62.630896479077" lon="17.970137632506">
        <ele>54.8</ele>
        <time>2018-01-29T18:17:52Z</time>
      </trkpt>
      <trkpt lat="62.630906956452" lon="17.970137129592">
        <ele>54.8</ele>
        <time>2018-01-29T18:17:53Z</time>
      </trkpt>
      <trkpt lat="62.630921624777" lon="17.970143835112">
        <ele>54.8</ele>
        <time>2018-01-29T18:17:54Z</time>
      </trkpt>
      <trkpt lat="62.630930258134" lon="17.970151630279">
        <ele>54.6</ele>
        <time>2018-01-29T18:17:55Z</time>
      </trkpt>
      <trkpt lat="62.630937634206" lon="17.97016160474">
        <ele>54.6</ele>
        <time>2018-01-29T18:17:56Z</time>
      </trkpt>
      <trkpt lat="62.630945177916" lon="17.970176189246">
        <ele>54.4</ele>
        <time>2018-01-29T18:17:57Z</time>
      </trkpt>
      <trkpt lat="62.630952805445" lon="17.970193539779">
        <ele>54.6</ele>
        <time>2018-01-29T18:17:58Z</time>
      </trkpt>
      <trkpt lat="62.630948446857" lon="17.970194964702">
        <ele>54.6</ele>
        <time>2018-01-29T18:17:59Z</time>
      </trkpt>
      <trkpt lat="62.630950374694" lon="17.970196054349">
        <ele>54.6</ele>
        <time>2018-01-29T18:18:00Z</time>
      </trkpt>
      <trkpt lat="62.631168471732" lon="17.97001575968">
        <ele>54</ele>
        <time>2018-01-29T18:21:45Z</time>
      </trkpt>
      <trkpt lat="62.631196551097" lon="17.969994721111">
        <ele>54</ele>
        <time>2018-01-29T18:21:46Z</time>
      </trkpt>
      <trkpt lat="62.631225301014" lon="17.96997552656">
        <ele>53.8</ele>
        <time>2018-01-29T18:21:47Z</time>
      </trkpt>
      <trkpt lat="62.631257068415" lon="17.969958595122">
        <ele>53.8</ele>
        <time>2018-01-29T18:21:48Z</time>
      </trkpt>
      <trkpt lat="62.631281878839" lon="17.969942920969">
        <ele>53.8</ele>
        <time>2018-01-29T18:21:49Z</time>
      </trkpt>
      <trkpt lat="62.63131616081" lon="17.969924145513">
        <ele>53.8</ele>
        <time>2018-01-29T18:21:50Z</time>
      </trkpt>
      <trkpt lat="62.631345162184" lon="17.969905705333">
        <ele>53.8</ele>
        <time>2018-01-29T18:21:51Z</time>
      </trkpt>
      <trkpt lat="62.631375839938" lon="17.969888857714">
        <ele>53.8</ele>
        <time>2018-01-29T18:21:52Z</time>
      </trkpt>
      <trkpt lat="62.631404338398" lon="17.969873099742">
        <ele>53.6</ele>
        <time>2018-01-29T18:21:53Z</time>
      </trkpt>
      <trkpt lat="62.631432585401" lon="17.969859521064">
        <ele>53.6</ele>
        <time>2018-01-29T18:21:54Z</time>
      </trkpt>
      <trkpt lat="62.631465442449" lon="17.969846110024">
        <ele>53.6</ele>
        <time>2018-01-29T18:21:55Z</time>
      </trkpt>
      <trkpt lat="62.631493521814" lon="17.969829849138">
        <ele>53.6</ele>
        <time>2018-01-29T18:21:56Z</time>
      </trkpt>
      <trkpt lat="62.631525456853" lon="17.969814510261">
        <ele>53.6</ele>
        <time>2018-01-29T18:21:57Z</time>
      </trkpt>
      <trkpt lat="62.631554458227" lon="17.96979950666">
        <ele>53.4</ele>
        <time>2018-01-29T18:21:58Z</time>
      </trkpt>
      <trkpt lat="62.631580609755" lon="17.969779976833">
        <ele>53.4</ele>
        <time>2018-01-29T18:21:59Z</time>
      </trkpt>
      <trkpt lat="62.631611622785" lon="17.969752651839">
        <ele>53.4</ele>
        <time>2018-01-29T18:22:00Z</time>
      </trkpt>
      <trkpt lat="62.631636684666" lon="17.969731026537">
        <ele>53.4</ele>
        <time>2018-01-29T18:22:01Z</time>
      </trkpt>
      <trkpt lat="62.63166736242" lon="17.969710909977">
        <ele>53</ele>
        <time>2018-01-29T18:22:02Z</time>
      </trkpt>
      <trkpt lat="62.631693933043" lon="17.969687273019">
        <ele>53</ele>
        <time>2018-01-29T18:22:03Z</time>
      </trkpt>
      <trkpt lat="62.631717821458" lon="17.969657098179">
        <ele>53.2</ele>
        <time>2018-01-29T18:22:04Z</time>
      </trkpt>
      <trkpt lat="62.631742296606" lon="17.969624911683">
        <ele>53</ele>
        <time>2018-01-29T18:22:05Z</time>
      </trkpt>
      <trkpt lat="62.63176878341" lon="17.969589372427">
        <ele>53</ele>
        <time>2018-01-29T18:22:06Z</time>
      </trkpt>
      <trkpt lat="62.631791079264" lon="17.969560035777">
        <ele>53</ele>
        <time>2018-01-29T18:22:07Z</time>
      </trkpt>
      <trkpt lat="62.631814548584" lon="17.969534303344">
        <ele>52.8</ele>
        <time>2018-01-29T18:22:08Z</time>
      </trkpt>
      <trkpt lat="62.631835754791" lon="17.969523071598">
        <ele>52.8</ele>
        <time>2018-01-29T18:22:09Z</time>
      </trkpt>
      <trkpt lat="62.631861068129" lon="17.969533632792">
        <ele>52.4</ele>
        <time>2018-01-29T18:22:10Z</time>
      </trkpt>
      <trkpt lat="62.631881855241" lon="17.969548552574">
        <ele>52.2</ele>
        <time>2018-01-29T18:22:11Z</time>
      </trkpt>
      <trkpt lat="62.631905827475" lon="17.969556347741">
        <ele>52.2</ele>
        <time>2018-01-29T18:22:12Z</time>
      </trkpt>
      <trkpt lat="62.631929380614" lon="17.969559868139">
        <ele>52.2</ele>
        <time>2018-01-29T18:22:13Z</time>
      </trkpt>
      <trkpt lat="62.631952095563" lon="17.969559951958">
        <ele>52.4</ele>
        <time>2018-01-29T18:22:14Z</time>
      </trkpt>
      <trkpt lat="62.631979839652" lon="17.969564059089">
        <ele>52.4</ele>
        <time>2018-01-29T18:22:15Z</time>
      </trkpt>
      <trkpt lat="62.632004482438" lon="17.96956229889">
        <ele>52.6</ele>
        <time>2018-01-29T18:22:16Z</time>
      </trkpt>
      <trkpt lat="62.632029209043" lon="17.969558610854">
        <ele>52.6</ele>
        <time>2018-01-29T18:22:17Z</time>
      </trkpt>
      <trkpt lat="62.632054857657" lon="17.969553497895">
        <ele>52.8</ele>
        <time>2018-01-29T18:22:18Z</time>
      </trkpt>
      <trkpt lat="62.632077572606" lon="17.969550312773">
        <ele>52.8</ele>
        <time>2018-01-29T18:22:19Z</time>
      </trkpt>
      <trkpt lat="62.632105316695" lon="17.969542769063">
        <ele>52.8</ele>
        <time>2018-01-29T18:22:20Z</time>
      </trkpt>
      <trkpt lat="62.632129121291" lon="17.969533381335">
        <ele>52.8</ele>
        <time>2018-01-29T18:22:21Z</time>
      </trkpt>
      <trkpt lat="62.632158206484" lon="17.969522987779">
        <ele>52.8</ele>
        <time>2018-01-29T18:22:22Z</time>
      </trkpt>
      <trkpt lat="62.632183938917" lon="17.969515444069">
        <ele>53</ele>
        <time>2018-01-29T18:22:23Z</time>
      </trkpt>
      <trkpt lat="62.632211096273" lon="17.969503290314">
        <ele>53</ele>
        <time>2018-01-29T18:22:24Z</time>
      </trkpt>
      <trkpt lat="62.632241354932" lon="17.969489963093">
        <ele>53</ele>
        <time>2018-01-29T18:22:25Z</time>
      </trkpt>
      <trkpt lat="62.632269350478" lon="17.969480575365">
        <ele>53.2</ele>
        <time>2018-01-29T18:22:26Z</time>
      </trkpt>
      <trkpt lat="62.63229684311" lon="17.969475294768">
        <ele>53.2</ele>
        <time>2018-01-29T18:22:27Z</time>
      </trkpt>
      <trkpt lat="62.632323413733" lon="17.969475378587">
        <ele>53</ele>
        <time>2018-01-29T18:22:28Z</time>
      </trkpt>
      <trkpt lat="62.632346631596" lon="17.969472780198">
        <ele>53</ele>
        <time>2018-01-29T18:22:29Z</time>
      </trkpt>
      <trkpt lat="62.632379069549" lon="17.969468840705">
        <ele>52.8</ele>
        <time>2018-01-29T18:22:30Z</time>
      </trkpt>
      <trkpt lat="62.632405304896" lon="17.969464901212">
        <ele>52.8</ele>
        <time>2018-01-29T18:22:31Z</time>
      </trkpt>
      <trkpt lat="62.632435312098" lon="17.969463560108">
        <ele>53</ele>
        <time>2018-01-29T18:22:32Z</time>
      </trkpt>
      <trkpt lat="62.632463307644" lon="17.969466158497">
        <ele>52.8</ele>
        <time>2018-01-29T18:22:33Z</time>
      </trkpt>
      <trkpt lat="62.632488453344" lon="17.96946842161">
        <ele>53</ele>
        <time>2018-01-29T18:22:34Z</time>
      </trkpt>
      <trkpt lat="62.632515443062" lon="17.969473283112">
        <ele>53</ele>
        <time>2018-01-29T18:22:35Z</time>
      </trkpt>
      <trkpt lat="62.632542684237" lon="17.969476216777">
        <ele>53</ele>
        <time>2018-01-29T18:22:36Z</time>
      </trkpt>
      <trkpt lat="62.632568165213" lon="17.969478396071">
        <ele>53</ele>
        <time>2018-01-29T18:22:37Z</time>
      </trkpt>
      <trkpt lat="62.632595993121" lon="17.969482587021">
        <ele>53.2</ele>
        <time>2018-01-29T18:22:38Z</time>
      </trkpt>
      <trkpt lat="62.632620635907" lon="17.969485101591">
        <ele>53.2</ele>
        <time>2018-01-29T18:22:39Z</time>
      </trkpt>
      <trkpt lat="62.632650726928" lon="17.969486945609">
        <ele>53.2</ele>
        <time>2018-01-29T18:22:40Z</time>
      </trkpt>
      <trkpt lat="62.632674699162" lon="17.969487448523">
        <ele>53.2</ele>
        <time>2018-01-29T18:22:41Z</time>
      </trkpt>
      <trkpt lat="62.632702024156" lon="17.969489460179">
        <ele>53.4</ele>
        <time>2018-01-29T18:22:42Z</time>
      </trkpt>
      <trkpt lat="62.632729432969" lon="17.969494908414">
        <ele>53.4</ele>
        <time>2018-01-29T18:22:43Z</time>
      </trkpt>
      <trkpt lat="62.632752315556" lon="17.969497674441">
        <ele>53.2</ele>
        <time>2018-01-29T18:22:44Z</time>
      </trkpt>
      <trkpt lat="62.632780311102" lon="17.96950194921">
        <ele>53.2</ele>
        <time>2018-01-29T18:22:45Z</time>
      </trkpt>
      <trkpt lat="62.632803696603" lon="17.969507481264">
        <ele>53.4</ele>
        <time>2018-01-29T18:22:46Z</time>
      </trkpt>
      <trkpt lat="62.632828926122" lon="17.969509828196">
        <ele>53.4</ele>
        <time>2018-01-29T18:22:47Z</time>
      </trkpt>
      <trkpt lat="62.632857089306" lon="17.969515192612">
        <ele>53.4</ele>
        <time>2018-01-29T18:22:48Z</time>
      </trkpt>
      <trkpt lat="62.632877373504" lon="17.969521814313">
        <ele>53.4</ele>
        <time>2018-01-29T18:22:49Z</time>
      </trkpt>
      <trkpt lat="62.632916768434" lon="17.969531956412">
        <ele>53.6</ele>
        <time>2018-01-29T18:22:50Z</time>
      </trkpt>
      <trkpt lat="62.632944177247" lon="17.969541176502">
        <ele>53.6</ele>
        <time>2018-01-29T18:22:51Z</time>
      </trkpt>
      <trkpt lat="62.632968652395" lon="17.969546457099">
        <ele>53.6</ele>
        <time>2018-01-29T18:22:52Z</time>
      </trkpt>
      <trkpt lat="62.632993881914" lon="17.969554671361">
        <ele>53.8</ele>
        <time>2018-01-29T18:22:53Z</time>
      </trkpt>
      <trkpt lat="62.633019279071" lon="17.969558527035">
        <ele>53.8</ele>
        <time>2018-01-29T18:22:54Z</time>
      </trkpt>
      <trkpt lat="62.633048531902" lon="17.969566657478">
        <ele>54</ele>
        <time>2018-01-29T18:22:55Z</time>
      </trkpt>
      <trkpt lat="62.633076108353" lon="17.969578475957">
        <ele>54</ele>
        <time>2018-01-29T18:22:56Z</time>
      </trkpt>
      <trkpt lat="62.633102259881" lon="17.969583086002">
        <ele>54.2</ele>
        <time>2018-01-29T18:22:57Z</time>
      </trkpt>
      <trkpt lat="62.633131093617" lon="17.969597419051">
        <ele>54.2</ele>
        <time>2018-01-29T18:22:58Z</time>
      </trkpt>
      <trkpt lat="62.633153724747" lon="17.96960923753">
        <ele>54.2</ele>
        <time>2018-01-29T18:22:59Z</time>
      </trkpt>
      <trkpt lat="62.633184570139" lon="17.969627258615">
        <ele>54</ele>
        <time>2018-01-29T18:23:00Z</time>
      </trkpt>
      <trkpt lat="62.633212230409" lon="17.969639663827">
        <ele>54</ele>
        <time>2018-01-29T18:23:01Z</time>
      </trkpt>
      <trkpt lat="62.633237795204" lon="17.969654583609">
        <ele>54</ele>
        <time>2018-01-29T18:23:02Z</time>
      </trkpt>
      <trkpt lat="62.633264449646" lon="17.969675789816">
        <ele>54</ele>
        <time>2018-01-29T18:23:03Z</time>
      </trkpt>
      <trkpt lat="62.633285152939" lon="17.969698588584">
        <ele>54</ele>
        <time>2018-01-29T18:23:04Z</time>
      </trkpt>
      <trkpt lat="62.633308203164" lon="17.969726165035">
        <ele>54.2</ele>
        <time>2018-01-29T18:23:05Z</time>
      </trkpt>
      <trkpt lat="62.633330499018" lon="17.969765057051">
        <ele>54.2</ele>
        <time>2018-01-29T18:23:06Z</time>
      </trkpt>
      <trkpt lat="62.633348436284" lon="17.969794812796">
        <ele>54.2</ele>
        <time>2018-01-29T18:23:07Z</time>
      </trkpt>
      <trkpt lat="62.633365786817" lon="17.969837811943">
        <ele>54.4</ele>
        <time>2018-01-29T18:23:08Z</time>
      </trkpt>
      <trkpt lat="62.633377018563" lon="17.969881314004">
        <ele>54.4</ele>
        <time>2018-01-29T18:23:09Z</time>
      </trkpt>
      <trkpt lat="62.633385987196" lon="17.969935712535">
        <ele>54.4</ele>
        <time>2018-01-29T18:23:10Z</time>
      </trkpt>
      <trkpt lat="62.633388669404" lon="17.969985752478">
        <ele>54.6</ele>
        <time>2018-01-29T18:23:11Z</time>
      </trkpt>
      <trkpt lat="62.63338984287" lon="17.970037971715">
        <ele>54.6</ele>
        <time>2018-01-29T18:23:12Z</time>
      </trkpt>
      <trkpt lat="62.633390848698" lon="17.970092202608">
        <ele>54.8</ele>
        <time>2018-01-29T18:23:13Z</time>
      </trkpt>
      <trkpt lat="62.633391267793" lon="17.970139979438">
        <ele>54.8</ele>
        <time>2018-01-29T18:23:14Z</time>
      </trkpt>
      <trkpt lat="62.633394117639" lon="17.970186918078">
        <ele>55</ele>
        <time>2018-01-29T18:23:15Z</time>
      </trkpt>
      <trkpt lat="62.633395291105" lon="17.970238885858">
        <ele>55</ele>
        <time>2018-01-29T18:23:16Z</time>
      </trkpt>
      <trkpt lat="62.633397135123" lon="17.970289093439">
        <ele>55</ele>
        <time>2018-01-29T18:23:17Z</time>
      </trkpt>
      <trkpt lat="62.63339906296" lon="17.970344581617">
        <ele>55.2</ele>
        <time>2018-01-29T18:23:18Z</time>
      </trkpt>
      <trkpt lat="62.633399398236" lon="17.970395292112">
        <ele>55.2</ele>
        <time>2018-01-29T18:23:19Z</time>
      </trkpt>
      <trkpt lat="62.633403673005" lon="17.970450528833">
        <ele>55.2</ele>
        <time>2018-01-29T18:23:20Z</time>
      </trkpt>
      <trkpt lat="62.633406271394" lon="17.970507861029">
        <ele>55.2</ele>
        <time>2018-01-29T18:23:21Z</time>
      </trkpt>
      <trkpt lat="62.63340995943" lon="17.970557565696">
        <ele>55.4</ele>
        <time>2018-01-29T18:23:22Z</time>
      </trkpt>
      <trkpt lat="62.633411551991" lon="17.970612467141">
        <ele>55.4</ele>
        <time>2018-01-29T18:23:23Z</time>
      </trkpt>
      <trkpt lat="62.633415072389" lon="17.970666027482">
        <ele>55.6</ele>
        <time>2018-01-29T18:23:24Z</time>
      </trkpt>
      <trkpt lat="62.633416497312" lon="17.970719084909">
        <ele>55.8</ele>
        <time>2018-01-29T18:23:25Z</time>
      </trkpt>
      <trkpt lat="62.633417419321" lon="17.970776081829">
        <ele>56.2</ele>
        <time>2018-01-29T18:23:26Z</time>
      </trkpt>
      <trkpt lat="62.63341917952" lon="17.970821679365">
        <ele>56.2</ele>
        <time>2018-01-29T18:23:27Z</time>
      </trkpt>
      <trkpt lat="62.633421526452" lon="17.970877670457">
        <ele>56.6</ele>
        <time>2018-01-29T18:23:28Z</time>
      </trkpt>
      <trkpt lat="62.633421442633" lon="17.970923184174">
        <ele>56.6</ele>
        <time>2018-01-29T18:23:29Z</time>
      </trkpt>
      <trkpt lat="62.633422364642" lon="17.970981438379">
        <ele>56.6</ele>
        <time>2018-01-29T18:23:30Z</time>
      </trkpt>
      <trkpt lat="62.633421107357" lon="17.971036004548">
        <ele>56.8</ele>
        <time>2018-01-29T18:23:31Z</time>
      </trkpt>
      <trkpt lat="62.633421610271" lon="17.971087888509">
        <ele>57</ele>
        <time>2018-01-29T18:23:32Z</time>
      </trkpt>
      <trkpt lat="62.633422029366" lon="17.971144298696">
        <ele>57</ele>
        <time>2018-01-29T18:23:33Z</time>
      </trkpt>
      <trkpt lat="62.633421777909" lon="17.971191907888">
        <ele>57</ele>
        <time>2018-01-29T18:23:34Z</time>
      </trkpt>
      <trkpt lat="62.6334208559" lon="17.971244797677">
        <ele>57</ele>
        <time>2018-01-29T18:23:35Z</time>
      </trkpt>
      <trkpt lat="62.633418257511" lon="17.971302716606">
        <ele>57.2</ele>
        <time>2018-01-29T18:23:36Z</time>
      </trkpt>
      <trkpt lat="62.633417000226" lon="17.971352421273">
        <ele>57.2</ele>
        <time>2018-01-29T18:23:37Z</time>
      </trkpt>
      <trkpt lat="62.633414653294" lon="17.971409166736">
        <ele>57.4</ele>
        <time>2018-01-29T18:23:38Z</time>
      </trkpt>
      <trkpt lat="62.633413815104" lon="17.971456775928">
        <ele>57.6</ele>
        <time>2018-01-29T18:23:39Z</time>
      </trkpt>
      <trkpt lat="62.633409540335" lon="17.971514862495">
        <ele>57.6</ele>
        <time>2018-01-29T18:23:40Z</time>
      </trkpt>
      <trkpt lat="62.633406103756" lon="17.971566159723">
        <ele>57.6</ele>
        <time>2018-01-29T18:23:41Z</time>
      </trkpt>
      <trkpt lat="62.633402499539" lon="17.971623827195">
        <ele>57.8</ele>
        <time>2018-01-29T18:23:42Z</time>
      </trkpt>
      <trkpt lat="62.633397805675" lon="17.971677387536">
        <ele>57.8</ele>
        <time>2018-01-29T18:23:43Z</time>
      </trkpt>
      <trkpt lat="62.633394955829" lon="17.971728014212">
        <ele>58</ele>
        <time>2018-01-29T18:23:44Z</time>
      </trkpt>
      <trkpt lat="62.633387998852" lon="17.971786436055">
        <ele>58</ele>
        <time>2018-01-29T18:23:45Z</time>
      </trkpt>
      <trkpt lat="62.63338481373" lon="17.971833123238">
        <ele>58</ele>
        <time>2018-01-29T18:23:46Z</time>
      </trkpt>
      <trkpt lat="62.633377772934" lon="17.971889617244">
        <ele>58.4</ele>
        <time>2018-01-29T18:23:47Z</time>
      </trkpt>
      <trkpt lat="62.633370313043" lon="17.971946530345">
        <ele>58.4</ele>
        <time>2018-01-29T18:23:48Z</time>
      </trkpt>
      <trkpt lat="62.633365786817" lon="17.971993133709">
        <ele>58.6</ele>
        <time>2018-01-29T18:23:49Z</time>
      </trkpt>
      <trkpt lat="62.633357824012" lon="17.972053567208">
        <ele>58.6</ele>
        <time>2018-01-29T18:23:50Z</time>
      </trkpt>
      <trkpt lat="62.633350280302" lon="17.972102768961">
        <ele>58.6</ele>
        <time>2018-01-29T18:23:51Z</time>
      </trkpt>
      <trkpt lat="62.633340892574" lon="17.97215649694">
        <ele>58.6</ele>
        <time>2018-01-29T18:23:52Z</time>
      </trkpt>
      <trkpt lat="62.63333368414" lon="17.972204022313">
        <ele>58.6</ele>
        <time>2018-01-29T18:23:53Z</time>
      </trkpt>
      <trkpt lat="62.633326308068" lon="17.972258169387">
        <ele>58.8</ele>
        <time>2018-01-29T18:23:54Z</time>
      </trkpt>
      <trkpt lat="62.633316417426" lon="17.972314411936">
        <ele>58.8</ele>
        <time>2018-01-29T18:23:55Z</time>
      </trkpt>
      <trkpt lat="62.633308789897" lon="17.972362021128">
        <ele>58.8</ele>
        <time>2018-01-29T18:23:56Z</time>
      </trkpt>
      <trkpt lat="62.633300407997" lon="17.972415246193">
        <ele>59</ele>
        <time>2018-01-29T18:23:57Z</time>
      </trkpt>
      <trkpt lat="62.6332951274" lon="17.972461681919">
        <ele>59</ele>
        <time>2018-01-29T18:23:58Z</time>
      </trkpt>
      <trkpt lat="62.633286410224" lon="17.972508369102">
        <ele>59.2</ele>
        <time>2018-01-29T18:23:59Z</time>
      </trkpt>
      <trkpt lat="62.633277273953" lon="17.972563689642">
        <ele>59.2</ele>
        <time>2018-01-29T18:24:00Z</time>
      </trkpt>
      <trkpt lat="62.633269562605" lon="17.972611717929">
        <ele>59.2</ele>
        <time>2018-01-29T18:24:01Z</time>
      </trkpt>
      <trkpt lat="62.633257827945" lon="17.972664104804">
        <ele>59.4</ele>
        <time>2018-01-29T18:24:02Z</time>
      </trkpt>
      <trkpt lat="62.633248021122" lon="17.972709534702">
        <ele>59.4</ele>
        <time>2018-01-29T18:24:03Z</time>
      </trkpt>
      <trkpt lat="62.633238465756" lon="17.972756976256">
        <ele>59.6</ele>
        <time>2018-01-29T18:24:04Z</time>
      </trkpt>
      <trkpt lat="62.633231508779" lon="17.972805842733">
        <ele>59.6</ele>
        <time>2018-01-29T18:24:05Z</time>
      </trkpt>
      <trkpt lat="62.633221618137" lon="17.972864096938">
        <ele>59.6</ele>
        <time>2018-01-29T18:24:06Z</time>
      </trkpt>
      <trkpt lat="62.633211140762" lon="17.972910532664">
        <ele>59.8</ele>
        <time>2018-01-29T18:24:07Z</time>
      </trkpt>
      <trkpt lat="62.633199909016" lon="17.972954872915">
        <ele>60</ele>
        <time>2018-01-29T18:24:08Z</time>
      </trkpt>
      <trkpt lat="62.633188928727" lon="17.973000386632">
        <ele>60</ele>
        <time>2018-01-29T18:24:09Z</time>
      </trkpt>
      <trkpt lat="62.633178786628" lon="17.973049923661">
        <ele>59.8</ele>
        <time>2018-01-29T18:24:10Z</time>
      </trkpt>
      <trkpt lat="62.633166213778" lon="17.97309275517">
        <ele>60</ele>
        <time>2018-01-29T18:24:11Z</time>
      </trkpt>
      <trkpt lat="62.633155904041" lon="17.973141202552">
        <ele>60</ele>
        <time>2018-01-29T18:24:12Z</time>
      </trkpt>
      <trkpt lat="62.633143666467" lon="17.973192667418">
        <ele>59.8</ele>
        <time>2018-01-29T18:24:13Z</time>
      </trkpt>
      <trkpt lat="62.633133440549" lon="17.973237342945">
        <ele>59.8</ele>
        <time>2018-01-29T18:24:14Z</time>
      </trkpt>
      <trkpt lat="62.633118185491" lon="17.973285622689">
        <ele>60</ele>
        <time>2018-01-29T18:24:15Z</time>
      </trkpt>
      <trkpt lat="62.633105109727" lon="17.97333247751">
        <ele>60</ele>
        <time>2018-01-29T18:24:16Z</time>
      </trkpt>
      <trkpt lat="62.633095051447" lon="17.973379080874">
        <ele>60.2</ele>
        <time>2018-01-29T18:24:17Z</time>
      </trkpt>
      <trkpt lat="62.633082730054" lon="17.973433144129">
        <ele>60.2</ele>
        <time>2018-01-29T18:24:18Z</time>
      </trkpt>
      <trkpt lat="62.633074348154" lon="17.973475975638">
        <ele>60.2</ele>
        <time>2018-01-29T18:24:19Z</time>
      </trkpt>
      <trkpt lat="62.633063200227" lon="17.973529033065">
        <ele>60.4</ele>
        <time>2018-01-29T18:24:20Z</time>
      </trkpt>
      <trkpt lat="62.633054650689" lon="17.973575971705">
        <ele>60.4</ele>
        <time>2018-01-29T18:24:21Z</time>
      </trkpt>
      <trkpt lat="62.633045514418" lon="17.973621317784">
        <ele>60.4</ele>
        <time>2018-01-29T18:24:22Z</time>
      </trkpt>
      <trkpt lat="62.633039311812" lon="17.973661131809">
        <ele>60.4</ele>
        <time>2018-01-29T18:24:23Z</time>
      </trkpt>
      <trkpt lat="62.633026738962" lon="17.973716703806">
        <ele>60.6</ele>
        <time>2018-01-29T18:24:24Z</time>
      </trkpt>
      <trkpt lat="62.633011483904" lon="17.973768084853">
        <ele>60.6</ele>
        <time>2018-01-29T18:24:25Z</time>
      </trkpt>
      <trkpt lat="62.633001006529" lon="17.973813514751">
        <ele>60.6</ele>
        <time>2018-01-29T18:24:26Z</time>
      </trkpt>
      <trkpt lat="62.632989690964" lon="17.973863722332">
        <ele>60.6</ele>
        <time>2018-01-29T18:24:27Z</time>
      </trkpt>
      <trkpt lat="62.632977118114" lon="17.973911499162">
        <ele>60.8</ele>
        <time>2018-01-29T18:24:28Z</time>
      </trkpt>
      <trkpt lat="62.632969155309" lon="17.9739451944">
        <ele>61</ele>
        <time>2018-01-29T18:24:29Z</time>
      </trkpt>
      <trkpt lat="62.632952810604" lon="17.974009902668">
        <ele>61.2</ele>
        <time>2018-01-29T18:24:30Z</time>
      </trkpt>
      <trkpt lat="62.632943339057" lon="17.974053572367">
        <ele>61.2</ele>
        <time>2018-01-29T18:24:31Z</time>
      </trkpt>
      <trkpt lat="62.632929508922" lon="17.974109395821">
        <ele>61.6</ele>
        <time>2018-01-29T18:24:32Z</time>
      </trkpt>
      <trkpt lat="62.632917606624" lon="17.974151053864">
        <ele>61.6</ele>
        <time>2018-01-29T18:24:33Z</time>
      </trkpt>
      <trkpt lat="62.632905704326" lon="17.974193717735">
        <ele>61.6</ele>
        <time>2018-01-29T18:24:34Z</time>
      </trkpt>
      <trkpt lat="62.632893299114" lon="17.974243673859">
        <ele>61.4</ele>
        <time>2018-01-29T18:24:35Z</time>
      </trkpt>
      <trkpt lat="62.632882318825" lon="17.974294803449">
        <ele>61.4</ele>
        <time>2018-01-29T18:24:36Z</time>
      </trkpt>
      <trkpt lat="62.63286848869" lon="17.974343837564">
        <ele>61.2</ele>
        <time>2018-01-29T18:24:37Z</time>
      </trkpt>
      <trkpt lat="62.632855832021" lon="17.974388932186">
        <ele>61.2</ele>
        <time>2018-01-29T18:24:38Z</time>
      </trkpt>
      <trkpt lat="62.632838732945" lon="17.974433607713">
        <ele>61.2</ele>
        <time>2018-01-29T18:24:39Z</time>
      </trkpt>
      <trkpt lat="62.632819203118" lon="17.974471242444">
        <ele>61.2</ele>
        <time>2018-01-29T18:24:40Z</time>
      </trkpt>
      <trkpt lat="62.632795985255" lon="17.974499824723">
        <ele>61.2</ele>
        <time>2018-01-29T18:24:41Z</time>
      </trkpt>
      <trkpt lat="62.632767151519" lon="17.974524970423">
        <ele>61.2</ele>
        <time>2018-01-29T18:24:42Z</time>
      </trkpt>
      <trkpt lat="62.632742424914" lon="17.974533436142">
        <ele>61.2</ele>
        <time>2018-01-29T18:24:43Z</time>
      </trkpt>
      <trkpt lat="62.632719123232" lon="17.974528909916">
        <ele>61.2</ele>
        <time>2018-01-29T18:24:44Z</time>
      </trkpt>
      <trkpt lat="62.632689199849" lon="17.974513403401">
        <ele>61.4</ele>
        <time>2018-01-29T18:24:45Z</time>
      </trkpt>
      <trkpt lat="62.632658270638" lon="17.974505692053">
        <ele>61.2</ele>
        <time>2018-01-29T18:24:46Z</time>
      </trkpt>
      <trkpt lat="62.632634885137" lon="17.974474762842">
        <ele>61.6</ele>
        <time>2018-01-29T18:24:47Z</time>
      </trkpt>
      <trkpt lat="62.632613176016" lon="17.974445007097">
        <ele>61.8</ele>
        <time>2018-01-29T18:24:48Z</time>
      </trkpt>
      <trkpt lat="62.632593813827" lon="17.974420699587">
        <ele>62</ele>
        <time>2018-01-29T18:24:49Z</time>
      </trkpt>
      <trkpt lat="62.63257009305" lon="17.974395889163">
        <ele>62.2</ele>
        <time>2018-01-29T18:24:50Z</time>
      </trkpt>
      <trkpt lat="62.63254746192" lon="17.974372755119">
        <ele>62.4</ele>
        <time>2018-01-29T18:24:51Z</time>
      </trkpt>
      <trkpt lat="62.632524663152" lon="17.974346352134">
        <ele>62.4</ele>
        <time>2018-01-29T18:24:52Z</time>
      </trkpt>
      <trkpt lat="62.632502954031" lon="17.974324559194">
        <ele>62.6</ele>
        <time>2018-01-29T18:24:53Z</time>
      </trkpt>
      <trkpt lat="62.632476131951" lon="17.974302179521">
        <ele>62.6</ele>
        <time>2018-01-29T18:24:54Z</time>
      </trkpt>
      <trkpt lat="62.632449058414" lon="17.974277536735">
        <ele>62.8</ele>
        <time>2018-01-29T18:24:55Z</time>
      </trkpt>
      <trkpt lat="62.632424667085" lon="17.97426035384">
        <ele>62.8</ele>
        <time>2018-01-29T18:24:56Z</time>
      </trkpt>
      <trkpt lat="62.632399186109" lon="17.974236968339">
        <ele>62.8</ele>
        <time>2018-01-29T18:24:57Z</time>
      </trkpt>
      <trkpt lat="62.63237395659" lon="17.9742217971">
        <ele>62.8</ele>
        <time>2018-01-29T18:24:58Z</time>
      </trkpt>
      <trkpt lat="62.632353420935" lon="17.974204278929">
        <ele>62.8</ele>
        <time>2018-01-29T18:24:59Z</time>
      </trkpt>
      <trkpt lat="62.632324168104" lon="17.97417821122">
        <ele>62.6</ele>
        <time>2018-01-29T18:25:00Z</time>
      </trkpt>
      <trkpt lat="62.632301788431" lon="17.974155999185">
        <ele>62.6</ele>
        <time>2018-01-29T18:25:01Z</time>
      </trkpt>
      <trkpt lat="62.632273457609" lon="17.974136972272">
        <ele>62.8</ele>
        <time>2018-01-29T18:25:02Z</time>
      </trkpt>
      <trkpt lat="62.632245462063" lon="17.974112664762">
        <ele>62.8</ele>
        <time>2018-01-29T18:25:03Z</time>
      </trkpt>
      <trkpt lat="62.632221908924" lon="17.974093302573">
        <ele>62.6</ele>
        <time>2018-01-29T18:25:04Z</time>
      </trkpt>
      <trkpt lat="62.632197266138" lon="17.974069833253">
        <ele>62.6</ele>
        <time>2018-01-29T18:25:05Z</time>
      </trkpt>
      <trkpt lat="62.632169270592" lon="17.974041418612">
        <ele>62.6</ele>
        <time>2018-01-29T18:25:06Z</time>
      </trkpt>
      <trkpt lat="62.632144795444" lon="17.974020715319">
        <ele>62.6</ele>
        <time>2018-01-29T18:25:07Z</time>
      </trkpt>
      <trkpt lat="62.63212082321" lon="17.973990289022">
        <ele>62.6</ele>
        <time>2018-01-29T18:25:08Z</time>
      </trkpt>
      <trkpt lat="62.632097102433" lon="17.973966232969">
        <ele>62.6</ele>
        <time>2018-01-29T18:25:09Z</time>
      </trkpt>
      <trkpt lat="62.632071118543" lon="17.973939829984">
        <ele>62.6</ele>
        <time>2018-01-29T18:25:10Z</time>
      </trkpt>
      <trkpt lat="62.632044631739" lon="17.973908984592">
        <ele>62.6</ele>
        <time>2018-01-29T18:25:11Z</time>
      </trkpt>
      <trkpt lat="62.632023509351" lon="17.973874115888">
        <ele>62.2</ele>
        <time>2018-01-29T18:25:12Z</time>
      </trkpt>
      <trkpt lat="62.631998531289" lon="17.973846036523">
        <ele>62.2</ele>
        <time>2018-01-29T18:25:13Z</time>
      </trkpt>
      <trkpt lat="62.631972295942" lon="17.973817705701">
        <ele>62.4</ele>
        <time>2018-01-29T18:25:14Z</time>
      </trkpt>
      <trkpt lat="62.631947066423" lon="17.973794487838">
        <ele>62.4</ele>
        <time>2018-01-29T18:25:15Z</time>
      </trkpt>
      <trkpt lat="62.631924100017" lon="17.973763810084">
        <ele>62.4</ele>
        <time>2018-01-29T18:25:16Z</time>
      </trkpt>
      <trkpt lat="62.63190205562" lon="17.973742184782">
        <ele>62.6</ele>
        <time>2018-01-29T18:25:17Z</time>
      </trkpt>
      <trkpt lat="62.631877999567" lon="17.97371217758">
        <ele>62.6</ele>
        <time>2018-01-29T18:25:18Z</time>
      </trkpt>
      <trkpt lat="62.631852183315" lon="17.973686277509">
        <ele>62.4</ele>
        <time>2018-01-29T18:25:19Z</time>
      </trkpt>
      <trkpt lat="62.631830474194" lon="17.973660377438">
        <ele>62.4</ele>
        <time>2018-01-29T18:25:20Z</time>
      </trkpt>
      <trkpt lat="62.631809603263" lon="17.973630789331">
        <ele>62.6</ele>
        <time>2018-01-29T18:25:21Z</time>
      </trkpt>
      <trkpt lat="62.631786469219" lon="17.973596674998">
        <ele>62.4</ele>
        <time>2018-01-29T18:25:22Z</time>
      </trkpt>
      <trkpt lat="62.631766855573" lon="17.973570355832">
        <ele>62.4</ele>
        <time>2018-01-29T18:25:23Z</time>
      </trkpt>
      <trkpt lat="62.631744308262" lon="17.973529368341">
        <ele>62.4</ele>
        <time>2018-01-29T18:25:24Z</time>
      </trkpt>
      <trkpt lat="62.631720922761" lon="17.973494834913">
        <ele>62.4</ele>
        <time>2018-01-29T18:25:25Z</time>
      </trkpt>
      <trkpt lat="62.631699046002" lon="17.973462816055">
        <ele>62.4</ele>
        <time>2018-01-29T18:25:26Z</time>
      </trkpt>
      <trkpt lat="62.631673900302" lon="17.973428450265">
        <ele>62.4</ele>
        <time>2018-01-29T18:25:27Z</time>
      </trkpt>
      <trkpt lat="62.631646491489" lon="17.973398610701">
        <ele>62.4</ele>
        <time>2018-01-29T18:25:28Z</time>
      </trkpt>
      <trkpt lat="62.631626961662" lon="17.97335929959">
        <ele>62.4</ele>
        <time>2018-01-29T18:25:29Z</time>
      </trkpt>
      <trkpt lat="62.631605168722" lon="17.97331236095">
        <ele>62.2</ele>
        <time>2018-01-29T18:25:30Z</time>
      </trkpt>
      <trkpt lat="62.631586141809" lon="17.973279587721">
        <ele>62.2</ele>
        <time>2018-01-29T18:25:31Z</time>
      </trkpt>
      <trkpt lat="62.631565689973" lon="17.973228290493">
        <ele>62.2</ele>
        <time>2018-01-29T18:25:32Z</time>
      </trkpt>
      <trkpt lat="62.631548842354" lon="17.973184620794">
        <ele>62</ele>
        <time>2018-01-29T18:25:33Z</time>
      </trkpt>
      <trkpt lat="62.631532665287" lon="17.973138939439">
        <ele>61.8</ele>
        <time>2018-01-29T18:25:34Z</time>
      </trkpt>
      <trkpt lat="62.631512884003" lon="17.97308604965">
        <ele>61.8</ele>
        <time>2018-01-29T18:25:35Z</time>
      </trkpt>
      <trkpt lat="62.631495198194" lon="17.973039194829">
        <ele>61.6</ele>
        <time>2018-01-29T18:25:36Z</time>
      </trkpt>
      <trkpt lat="62.631473321435" lon="17.973002985021">
        <ele>61.4</ele>
        <time>2018-01-29T18:25:37Z</time>
      </trkpt>
      <trkpt lat="62.631451193219" lon="17.972953280354">
        <ele>61.4</ele>
        <time>2018-01-29T18:25:38Z</time>
      </trkpt>
      <trkpt lat="62.631431076659" lon="17.97289913328">
        <ele>61.2</ele>
        <time>2018-01-29T18:25:39Z</time>
      </trkpt>
      <trkpt lat="62.631404254579" lon="17.972832497175">
        <ele>61</ele>
        <time>2018-01-29T18:25:40Z</time>
      </trkpt>
      <trkpt lat="62.631387826055" lon="17.972780864671">
        <ele>60.8</ele>
        <time>2018-01-29T18:25:41Z</time>
      </trkpt>
      <trkpt lat="62.631370978436" lon="17.97272562795">
        <ele>60.8</ele>
        <time>2018-01-29T18:25:42Z</time>
      </trkpt>
      <trkpt lat="62.631351280971" lon="17.972666200279">
        <ele>60.6</ele>
        <time>2018-01-29T18:25:43Z</time>
      </trkpt>
      <trkpt lat="62.63133460099" lon="17.972626637711">
        <ele>60.2</ele>
        <time>2018-01-29T18:25:44Z</time>
      </trkpt>
      <trkpt lat="62.631307611272" lon="17.972574334655">
        <ele>60.2</ele>
        <time>2018-01-29T18:25:45Z</time>
      </trkpt>
      <trkpt lat="62.63128766235" lon="17.972530497318">
        <ele>60</ele>
        <time>2018-01-29T18:25:46Z</time>
      </trkpt>
      <trkpt lat="62.631265366496" lon="17.972480541194">
        <ele>60</ele>
        <time>2018-01-29T18:25:47Z</time>
      </trkpt>
      <trkpt lat="62.631244495565" lon="17.972420191514">
        <ele>59.8</ele>
        <time>2018-01-29T18:25:48Z</time>
      </trkpt>
      <trkpt lat="62.631228402317" lon="17.972370486847">
        <ele>59.6</ele>
        <time>2018-01-29T18:25:49Z</time>
      </trkpt>
      <trkpt lat="62.63120887249" lon="17.972312987013">
        <ele>59.6</ele>
        <time>2018-01-29T18:25:50Z</time>
      </trkpt>
      <trkpt lat="62.631189677939" lon="17.972251128591">
        <ele>59.4</ele>
        <time>2018-01-29T18:25:51Z</time>
      </trkpt>
      <trkpt lat="62.631176769813" lon="17.972192958205">
        <ele>59.2</ele>
        <time>2018-01-29T18:25:52Z</time>
      </trkpt>
      <trkpt lat="62.631161514755" lon="17.972129423403">
        <ele>59</ele>
        <time>2018-01-29T18:25:53Z</time>
      </trkpt>
      <trkpt lat="62.631144415679" lon="17.972075611605">
        <ele>58.8</ele>
        <time>2018-01-29T18:25:54Z</time>
      </trkpt>
      <trkpt lat="62.63112756806" lon="17.972017608857">
        <ele>58.6</ele>
        <time>2018-01-29T18:25:55Z</time>
      </trkpt>
      <trkpt lat="62.631115330486" lon="17.971952146218">
        <ele>58.4</ele>
        <time>2018-01-29T18:25:56Z</time>
      </trkpt>
      <trkpt lat="62.631105356025" lon="17.971893556737">
        <ele>58.2</ele>
        <time>2018-01-29T18:25:57Z</time>
      </trkpt>
      <trkpt lat="62.631092783175" lon="17.971825914804">
        <ele>58.2</ele>
        <time>2018-01-29T18:25:58Z</time>
      </trkpt>
      <trkpt lat="62.631080964696" lon="17.971772941196">
        <ele>58.2</ele>
        <time>2018-01-29T18:25:59Z</time>
      </trkpt>
      <trkpt lat="62.63106973295" lon="17.971702700874">
        <ele>57.8</ele>
        <time>2018-01-29T18:26:00Z</time>
      </trkpt>
      <trkpt lat="62.631055567539" lon="17.971645368678">
        <ele>57.8</ele>
        <time>2018-01-29T18:26:01Z</time>
      </trkpt>
      <trkpt lat="62.631042994689" lon="17.971582420609">
        <ele>57.8</ele>
        <time>2018-01-29T18:26:02Z</time>
      </trkpt>
      <trkpt lat="62.631031595305" lon="17.971517879979">
        <ele>57.6</ele>
        <time>2018-01-29T18:26:03Z</time>
      </trkpt>
      <trkpt lat="62.631020950292" lon="17.97145660829">
        <ele>57.6</ele>
        <time>2018-01-29T18:26:04Z</time>
      </trkpt>
      <trkpt lat="62.631012652211" lon="17.971395085144">
        <ele>57.4</ele>
        <time>2018-01-29T18:26:05Z</time>
      </trkpt>
      <trkpt lat="62.631003767397" lon="17.971321575881">
        <ele>57.4</ele>
        <time>2018-01-29T18:26:06Z</time>
      </trkpt>
      <trkpt lat="62.630993290022" lon="17.971257789622">
        <ele>57.4</ele>
        <time>2018-01-29T18:26:07Z</time>
      </trkpt>
      <trkpt lat="62.630983818475" lon="17.971190147689">
        <ele>57.2</ele>
        <time>2018-01-29T18:26:08Z</time>
      </trkpt>
      <trkpt lat="62.630976526222" lon="17.971129798009">
        <ele>57</ele>
        <time>2018-01-29T18:26:09Z</time>
      </trkpt>
      <trkpt lat="62.630966887037" lon="17.971067855768">
        <ele>56.8</ele>
        <time>2018-01-29T18:26:10Z</time>
      </trkpt>
      <trkpt lat="62.630960600612" lon="17.971004069509">
        <ele>56.8</ele>
        <time>2018-01-29T18:26:11Z</time>
      </trkpt>
      <trkpt lat="62.630953559816" lon="17.970937349585">
        <ele>56.8</ele>
        <time>2018-01-29T18:26:12Z</time>
      </trkpt>
      <trkpt lat="62.630946351382" lon="17.970876748448">
        <ele>56.4</ele>
        <time>2018-01-29T18:26:13Z</time>
      </trkpt>
      <trkpt lat="62.630937969482" lon="17.970822349917">
        <ele>56.4</ele>
        <time>2018-01-29T18:26:14Z</time>
      </trkpt>
      <trkpt lat="62.630928749392" lon="17.970760575314">
        <ele>56.2</ele>
        <time>2018-01-29T18:26:15Z</time>
      </trkpt>
      <trkpt lat="62.630926821555" lon="17.970693771571">
        <ele>56</ele>
        <time>2018-01-29T18:26:16Z</time>
      </trkpt>
      <trkpt lat="62.630916679456" lon="17.970630907321">
        <ele>55.8</ele>
        <time>2018-01-29T18:26:17Z</time>
      </trkpt>
      <trkpt lat="62.630906788814" lon="17.970566953424">
        <ele>55.8</ele>
        <time>2018-01-29T18:26:18Z</time>
      </trkpt>
      <trkpt lat="62.630901508217" lon="17.970499143853">
        <ele>55.6</ele>
        <time>2018-01-29T18:26:19Z</time>
      </trkpt>
      <trkpt lat="62.630896646715" lon="17.970430160816">
        <ele>55.6</ele>
        <time>2018-01-29T18:26:20Z</time>
      </trkpt>
      <trkpt lat="62.630896395258" lon="17.970365368729">
        <ele>55.6</ele>
        <time>2018-01-29T18:26:21Z</time>
      </trkpt>
      <trkpt lat="62.6309062859" lon="17.97027056944">
        <ele>55.6</ele>
        <time>2018-01-29T18:26:23Z</time>
      </trkpt>
      <trkpt lat="62.630910560669" lon="17.970240562238">
        <ele>55.4</ele>
        <time>2018-01-29T18:26:24Z</time>
      </trkpt>
      <trkpt lat="62.630909303384" lon="17.970217679651">
        <ele>55.6</ele>
        <time>2018-01-29T18:26:25Z</time>
      </trkpt>
      <trkpt lat="62.630909303384" lon="17.970198568919">
        <ele>55.6</ele>
        <time>2018-01-29T18:26:26Z</time>
      </trkpt>
      <trkpt lat="62.6309146678" lon="17.970183146223">
        <ele>55.6</ele>
        <time>2018-01-29T18:26:27Z</time>
      </trkpt>
      <trkpt lat="62.630920199854" lon="17.970177446531">
        <ele>55.4</ele>
        <time>2018-01-29T18:26:28Z</time>
      </trkpt>
      <trkpt lat="62.630925061356" lon="17.970176440703">
        <ele>55.2</ele>
        <time>2018-01-29T18:26:29Z</time>
      </trkpt>
      <trkpt lat="62.630923720252" lon="17.970180464015">
        <ele>55.2</ele>
        <time>2018-01-29T18:26:30Z</time>
      </trkpt>
      <trkpt lat="62.630923384976" lon="17.97017585397">
        <ele>55.2</ele>
        <time>2018-01-29T18:26:31Z</time>
      </trkpt>
      <trkpt lat="62.631176853632" lon="17.97003587624">
        <ele>55</ele>
        <time>2018-01-29T18:28:43Z</time>
      </trkpt>
      <trkpt lat="62.631200155314" lon="17.970019531535">
        <ele>55</ele>
        <time>2018-01-29T18:28:44Z</time>
      </trkpt>
      <trkpt lat="62.631236700398" lon="17.969996229853">
        <ele>55</ele>
        <time>2018-01-29T18:28:45Z</time>
      </trkpt>
      <trkpt lat="62.631263857754" lon="17.969977789673">
        <ele>54.6</ele>
        <time>2018-01-29T18:28:46Z</time>
      </trkpt>
      <trkpt lat="62.631291769481" lon="17.969964378633">
        <ele>54.4</ele>
        <time>2018-01-29T18:28:47Z</time>
      </trkpt>
      <trkpt lat="62.631320687036" lon="17.969945435539">
        <ele>54.4</ele>
        <time>2018-01-29T18:28:48Z</time>
      </trkpt>
      <trkpt lat="62.631350191324" lon="17.969928168825">
        <ele>54.6</ele>
        <time>2018-01-29T18:28:49Z</time>
      </trkpt>
      <trkpt lat="62.631379527974" lon="17.969911237387">
        <ele>54.6</ele>
        <time>2018-01-29T18:28:50Z</time>
      </trkpt>
      <trkpt lat="62.631409367538" lon="17.969895144139">
        <ele>54.6</ele>
        <time>2018-01-29T18:28:51Z</time>
      </trkpt>
      <trkpt lat="62.631438201274" lon="17.969876787778">
        <ele>54.6</ele>
        <time>2018-01-29T18:28:52Z</time>
      </trkpt>
      <trkpt lat="62.631464101345" lon="17.969862119453">
        <ele>54.6</ele>
        <time>2018-01-29T18:28:53Z</time>
      </trkpt>
      <trkpt lat="62.631495282013" lon="17.969843595454">
        <ele>54.4</ele>
        <time>2018-01-29T18:28:54Z</time>
      </trkpt>
      <trkpt lat="62.631523696654" lon="17.96982632874">
        <ele>54.2</ele>
        <time>2018-01-29T18:28:55Z</time>
      </trkpt>
      <trkpt lat="62.631554542046" lon="17.969808056198">
        <ele>54.2</ele>
        <time>2018-01-29T18:28:56Z</time>
      </trkpt>
      <trkpt lat="62.631582286135" lon="17.969792549683">
        <ele>54.2</ele>
        <time>2018-01-29T18:28:57Z</time>
      </trkpt>
      <trkpt lat="62.63160952731" lon="17.969771762571">
        <ele>54.2</ele>
        <time>2018-01-29T18:28:58Z</time>
      </trkpt>
      <trkpt lat="62.631634505372" lon="17.969750472545">
        <ele>54.2</ele>
        <time>2018-01-29T18:28:59Z</time>
      </trkpt>
      <trkpt lat="62.631664261117" lon="17.969718118411">
        <ele>54.2</ele>
        <time>2018-01-29T18:29:00Z</time>
      </trkpt>
      <trkpt lat="62.631692759577" lon="17.969692302159">
        <ele>54</ele>
        <time>2018-01-29T18:29:01Z</time>
      </trkpt>
      <trkpt lat="62.631716731811" lon="17.969653326324">
        <ele>53.6</ele>
        <time>2018-01-29T18:29:02Z</time>
      </trkpt>
      <trkpt lat="62.631744056805" lon="17.969616278326">
        <ele>53.6</ele>
        <time>2018-01-29T18:29:03Z</time>
      </trkpt>
      <trkpt lat="62.631766352659" lon="17.969590545893">
        <ele>53.6</ele>
        <time>2018-01-29T18:29:04Z</time>
      </trkpt>
      <trkpt lat="62.631788732332" lon="17.969556766836">
        <ele>53.4</ele>
        <time>2018-01-29T18:29:05Z</time>
      </trkpt>
      <trkpt lat="62.631817482249" lon="17.969552156791">
        <ele>53.2</ele>
        <time>2018-01-29T18:29:06Z</time>
      </trkpt>
      <trkpt lat="62.631842963225" lon="17.969559616682">
        <ele>53</ele>
        <time>2018-01-29T18:29:07Z</time>
      </trkpt>
      <trkpt lat="62.63186768983" lon="17.969574452645">
        <ele>53</ele>
        <time>2018-01-29T18:29:08Z</time>
      </trkpt>
      <trkpt lat="62.63188864458" lon="17.969571938075">
        <ele>53</ele>
        <time>2018-01-29T18:29:09Z</time>
      </trkpt>
      <trkpt lat="62.631917059221" lon="17.969577553948">
        <ele>53</ele>
        <time>2018-01-29T18:29:10Z</time>
      </trkpt>
      <trkpt lat="62.631941534369" lon="17.969576799577">
        <ele>53.2</ele>
        <time>2018-01-29T18:29:11Z</time>
      </trkpt>
      <trkpt lat="62.631968356449" lon="17.969570345514">
        <ele>53.2</ele>
        <time>2018-01-29T18:29:12Z</time>
      </trkpt>
      <trkpt lat="62.631999537117" lon="17.969567076573">
        <ele>53.4</ele>
        <time>2018-01-29T18:29:13Z</time>
      </trkpt>
      <trkpt lat="62.632022419704" lon="17.969561125424">
        <ele>53.4</ele>
        <time>2018-01-29T18:29:14Z</time>
      </trkpt>
      <trkpt lat="62.632049996155" lon="17.969555258094">
        <ele>53.4</ele>
        <time>2018-01-29T18:29:15Z</time>
      </trkpt>
      <trkpt lat="62.632075225674" lon="17.969552072972">
        <ele>53.6</ele>
        <time>2018-01-29T18:29:16Z</time>
      </trkpt>
      <trkpt lat="62.632098359718" lon="17.969539500122">
        <ele>53.6</ele>
        <time>2018-01-29T18:29:17Z</time>
      </trkpt>
      <trkpt lat="62.632129456567" lon="17.969533548973">
        <ele>53.8</ele>
        <time>2018-01-29T18:29:18Z</time>
      </trkpt>
      <trkpt lat="62.632153093525" lon="17.969524245064">
        <ele>53.8</ele>
        <time>2018-01-29T18:29:19Z</time>
      </trkpt>
      <trkpt lat="62.632181089071" lon="17.969518629191">
        <ele>53.6</ele>
        <time>2018-01-29T18:29:20Z</time>
      </trkpt>
      <trkpt lat="62.632207827332" lon="17.969513264775">
        <ele>53.8</ele>
        <time>2018-01-29T18:29:21Z</time>
      </trkpt>
      <trkpt lat="62.632232805394" lon="17.969510247291">
        <ele>54</ele>
        <time>2018-01-29T18:29:22Z</time>
      </trkpt>
      <trkpt lat="62.632261806768" lon="17.969502871219">
        <ele>53.8</ele>
        <time>2018-01-29T18:29:23Z</time>
      </trkpt>
      <trkpt lat="62.632278067654" lon="17.969502871219">
        <ele>53.8</ele>
        <time>2018-01-29T18:29:24Z</time>
      </trkpt>
      <trkpt lat="62.632313942186" lon="17.969509157644">
        <ele>54</ele>
        <time>2018-01-29T18:29:25Z</time>
      </trkpt>
      <trkpt lat="62.632340261352" lon="17.969522987779">
        <ele>53.8</ele>
        <time>2018-01-29T18:29:26Z</time>
      </trkpt>
      <trkpt lat="62.632365323233" lon="17.96952038939">
        <ele>53.8</ele>
        <time>2018-01-29T18:29:27Z</time>
      </trkpt>
      <trkpt lat="62.632396084806" lon="17.969503709409">
        <ele>53.8</ele>
        <time>2018-01-29T18:29:28Z</time>
      </trkpt>
      <trkpt lat="62.632419302669" lon="17.96949105274">
        <ele>53.8</ele>
        <time>2018-01-29T18:29:29Z</time>
      </trkpt>
      <trkpt lat="62.632450567156" lon="17.969479569537">
        <ele>54</ele>
        <time>2018-01-29T18:29:30Z</time>
      </trkpt>
      <trkpt lat="62.632478478883" lon="17.969479737175">
        <ele>54</ele>
        <time>2018-01-29T18:29:31Z</time>
      </trkpt>
      <trkpt lat="62.632502283479" lon="17.969485688324">
        <ele>54</ele>
        <time>2018-01-29T18:29:32Z</time>
      </trkpt>
      <trkpt lat="62.632530530482" lon="17.969493148215">
        <ele>54</ele>
        <time>2018-01-29T18:29:33Z</time>
      </trkpt>
      <trkpt lat="62.63255249106" lon="17.969493651129">
        <ele>54</ele>
        <time>2018-01-29T18:29:34Z</time>
      </trkpt>
      <trkpt lat="62.632578558769" lon="17.969497422984">
        <ele>54</ele>
        <time>2018-01-29T18:29:35Z</time>
      </trkpt>
      <trkpt lat="62.632604710297" lon="17.969504547599">
        <ele>54</ele>
        <time>2018-01-29T18:29:36Z</time>
      </trkpt>
      <trkpt lat="62.632626754694" lon="17.969505385789">
        <ele>53.8</ele>
        <time>2018-01-29T18:29:37Z</time>
      </trkpt>
      <trkpt lat="62.63265475024" lon="17.969510917843">
        <ele>54</ele>
        <time>2018-01-29T18:29:38Z</time>
      </trkpt>
      <trkpt lat="62.632676626999" lon="17.969510750205">
        <ele>54</ele>
        <time>2018-01-29T18:29:39Z</time>
      </trkpt>
      <trkpt lat="62.632702191794" lon="17.969505385789">
        <ele>54</ele>
        <time>2018-01-29T18:29:40Z</time>
      </trkpt>
      <trkpt lat="62.632725242019" lon="17.969512342766">
        <ele>54</ele>
        <time>2018-01-29T18:29:41Z</time>
      </trkpt>
      <trkpt lat="62.632750555357" lon="17.969519802657">
        <ele>53.8</ele>
        <time>2018-01-29T18:29:42Z</time>
      </trkpt>
      <trkpt lat="62.632772180659" lon="17.969529022747">
        <ele>54</ele>
        <time>2018-01-29T18:29:43Z</time>
      </trkpt>
      <trkpt lat="62.632793638323" lon="17.969530196213">
        <ele>54</ele>
        <time>2018-01-29T18:29:44Z</time>
      </trkpt>
      <trkpt lat="62.632816437091" lon="17.969527514005">
        <ele>54</ele>
        <time>2018-01-29T18:29:45Z</time>
      </trkpt>
      <trkpt lat="62.632843007714" lon="17.969534387163">
        <ele>54</ele>
        <time>2018-01-29T18:29:46Z</time>
      </trkpt>
      <trkpt lat="62.632863794826" lon="17.969535644448">
        <ele>54.2</ele>
        <time>2018-01-29T18:29:47Z</time>
      </trkpt>
      <trkpt lat="62.632888940526" lon="17.969540003036">
        <ele>54.4</ele>
        <time>2018-01-29T18:29:48Z</time>
      </trkpt>
      <trkpt lat="62.632913918588" lon="17.969546624737">
        <ele>54.4</ele>
        <time>2018-01-29T18:29:49Z</time>
      </trkpt>
      <trkpt lat="62.632937052632" lon="17.969554084628">
        <ele>54.4</ele>
        <time>2018-01-29T18:29:50Z</time>
      </trkpt>
      <trkpt lat="62.63295901321" lon="17.969573027722">
        <ele>54.6</ele>
        <time>2018-01-29T18:29:51Z</time>
      </trkpt>
      <trkpt lat="62.632982650168" lon="17.969574536464">
        <ele>54.6</ele>
        <time>2018-01-29T18:29:52Z</time>
      </trkpt>
      <trkpt lat="62.633003604918" lon="17.969574787921">
        <ele>54.6</ele>
        <time>2018-01-29T18:29:53Z</time>
      </trkpt>
      <trkpt lat="62.633030426998" lon="17.969587612228">
        <ele>54.6</ele>
        <time>2018-01-29T18:29:54Z</time>
      </trkpt>
      <trkpt lat="62.633054399232" lon="17.969592389911">
        <ele>54.6</ele>
        <time>2018-01-29T18:29:55Z</time>
      </trkpt>
      <trkpt lat="62.633078120009" lon="17.969606052408">
        <ele>54.6</ele>
        <time>2018-01-29T18:29:56Z</time>
      </trkpt>
      <trkpt lat="62.633104103899" lon="17.969621558923">
        <ele>54.6</ele>
        <time>2018-01-29T18:29:57Z</time>
      </trkpt>
      <trkpt lat="62.633128159952" lon="17.969628348262">
        <ele>54.6</ele>
        <time>2018-01-29T18:29:58Z</time>
      </trkpt>
      <trkpt lat="62.633151042539" lon="17.969642597492">
        <ele>54.6</ele>
        <time>2018-01-29T18:29:59Z</time>
      </trkpt>
      <trkpt lat="62.63318029537" lon="17.969657349636">
        <ele>55</ele>
        <time>2018-01-29T18:30:00Z</time>
      </trkpt>
      <trkpt lat="62.633202004491" lon="17.969667240278">
        <ele>55</ele>
        <time>2018-01-29T18:30:01Z</time>
      </trkpt>
      <trkpt lat="62.633228239838" lon="17.969685345182">
        <ele>55</ele>
        <time>2018-01-29T18:30:02Z</time>
      </trkpt>
      <trkpt lat="62.633249278407" lon="17.969695068186">
        <ele>55.2</ele>
        <time>2018-01-29T18:30:03Z</time>
      </trkpt>
      <trkpt lat="62.633274424107" lon="17.969714765651">
        <ele>55.4</ele>
        <time>2018-01-29T18:30:04Z</time>
      </trkpt>
      <trkpt lat="62.633294708305" lon="17.969736223315">
        <ele>55.6</ele>
        <time>2018-01-29T18:30:05Z</time>
      </trkpt>
      <trkpt lat="62.633315830693" lon="17.969764721775">
        <ele>55.6</ele>
        <time>2018-01-29T18:30:06Z</time>
      </trkpt>
      <trkpt lat="62.633335528158" lon="17.969803781429">
        <ele>55.8</ele>
        <time>2018-01-29T18:30:07Z</time>
      </trkpt>
      <trkpt lat="62.633350196483" lon="17.969842421988">
        <ele>55.8</ele>
        <time>2018-01-29T18:30:08Z</time>
      </trkpt>
      <trkpt lat="62.633357740193" lon="17.96988332566">
        <ele>55.8</ele>
        <time>2018-01-29T18:30:09Z</time>
      </trkpt>
      <trkpt lat="62.633360254763" lon="17.969936550725">
        <ele>55.6</ele>
        <time>2018-01-29T18:30:10Z</time>
      </trkpt>
      <trkpt lat="62.633361512048" lon="17.969974939827">
        <ele>55.6</ele>
        <time>2018-01-29T18:30:11Z</time>
      </trkpt>
      <trkpt lat="62.633365116265" lon="17.970033864584">
        <ele>55.6</ele>
        <time>2018-01-29T18:30:12Z</time>
      </trkpt>
      <trkpt lat="62.633365367722" lon="17.97008197669">
        <ele>55.8</ele>
        <time>2018-01-29T18:30:13Z</time>
      </trkpt>
      <trkpt lat="62.633367547016" lon="17.970127574226">
        <ele>55.8</ele>
        <time>2018-01-29T18:30:14Z</time>
      </trkpt>
      <trkpt lat="62.633371654147" lon="17.970183649137">
        <ele>55.8</ele>
        <time>2018-01-29T18:30:15Z</time>
      </trkpt>
      <trkpt lat="62.633375174545" lon="17.970223966076">
        <ele>55.8</ele>
        <time>2018-01-29T18:30:16Z</time>
      </trkpt>
      <trkpt lat="62.633377353839" lon="17.97027308401">
        <ele>56</ele>
        <time>2018-01-29T18:30:17Z</time>
      </trkpt>
      <trkpt lat="62.633379533133" lon="17.970312898035">
        <ele>56.2</ele>
        <time>2018-01-29T18:30:18Z</time>
      </trkpt>
      <trkpt lat="62.633383640264" lon="17.970368386213">
        <ele>56</ele>
        <time>2018-01-29T18:30:19Z</time>
      </trkpt>
      <trkpt lat="62.633386322472" lon="17.9704247964">
        <ele>56</ele>
        <time>2018-01-29T18:30:20Z</time>
      </trkpt>
      <trkpt lat="62.633388837042" lon="17.970469136651">
        <ele>56.2</ele>
        <time>2018-01-29T18:30:21Z</time>
      </trkpt>
      <trkpt lat="62.633393363268" lon="17.970520685336">
        <ele>56.4</ele>
        <time>2018-01-29T18:30:22Z</time>
      </trkpt>
      <trkpt lat="62.633395374924" lon="17.970570976736">
        <ele>56.4</ele>
        <time>2018-01-29T18:30:23Z</time>
      </trkpt>
      <trkpt lat="62.633397805675" lon="17.970620513765">
        <ele>56.4</ele>
        <time>2018-01-29T18:30:24Z</time>
      </trkpt>
      <trkpt lat="62.633399398236" lon="17.970680360531">
        <ele>56.6</ele>
        <time>2018-01-29T18:30:25Z</time>
      </trkpt>
      <trkpt lat="62.633401745168" lon="17.970723946411">
        <ele>56.6</ele>
        <time>2018-01-29T18:30:26Z</time>
      </trkpt>
      <trkpt lat="62.6334040921" lon="17.970777506752">
        <ele>56.8</ele>
        <time>2018-01-29T18:30:27Z</time>
      </trkpt>
      <trkpt lat="62.633405852299" lon="17.970831067093">
        <ele>57</ele>
        <time>2018-01-29T18:30:28Z</time>
      </trkpt>
      <trkpt lat="62.633408199231" lon="17.970873144231">
        <ele>57</ele>
        <time>2018-01-29T18:30:29Z</time>
      </trkpt>
      <trkpt lat="62.633408534507" lon="17.970922345984">
        <ele>57</ele>
        <time>2018-01-29T18:30:30Z</time>
      </trkpt>
      <trkpt lat="62.633407528679" lon="17.970982863302">
        <ele>57.2</ele>
        <time>2018-01-29T18:30:31Z</time>
      </trkpt>
      <trkpt lat="62.633410546163" lon="17.971036088367">
        <ele>57.4</ele>
        <time>2018-01-29T18:30:32Z</time>
      </trkpt>
      <trkpt lat="62.633410127068" lon="17.971088978156">
        <ele>57.4</ele>
        <time>2018-01-29T18:30:33Z</time>
      </trkpt>
      <trkpt lat="62.633410965258" lon="17.971132815493">
        <ele>57.6</ele>
        <time>2018-01-29T18:30:34Z</time>
      </trkpt>
      <trkpt lat="62.63341163581" lon="17.971192326983">
        <ele>57.8</ele>
        <time>2018-01-29T18:30:35Z</time>
      </trkpt>
      <trkpt lat="62.633410629982" lon="17.971245300591">
        <ele>57.8</ele>
        <time>2018-01-29T18:30:36Z</time>
      </trkpt>
      <trkpt lat="62.633410127068" lon="17.971294586163">
        <ele>58</ele>
        <time>2018-01-29T18:30:37Z</time>
      </trkpt>
      <trkpt lat="62.633407277222" lon="17.971351080169">
        <ele>58</ele>
        <time>2018-01-29T18:30:38Z</time>
      </trkpt>
      <trkpt lat="62.633405265566" lon="17.97140128775">
        <ele>58</ele>
        <time>2018-01-29T18:30:39Z</time>
      </trkpt>
      <trkpt lat="62.633405684661" lon="17.971458117032">
        <ele>58</ele>
        <time>2018-01-29T18:30:40Z</time>
      </trkpt>
      <trkpt lat="62.633403505367" lon="17.971504720396">
        <ele>58.2</ele>
        <time>2018-01-29T18:30:41Z</time>
      </trkpt>
      <trkpt lat="62.633402080444" lon="17.971562052592">
        <ele>58.2</ele>
        <time>2018-01-29T18:30:42Z</time>
      </trkpt>
      <trkpt lat="62.633395542562" lon="17.971615612933">
        <ele>58.2</ele>
        <time>2018-01-29T18:30:43Z</time>
      </trkpt>
      <trkpt lat="62.633391603069" lon="17.971661378107">
        <ele>58.2</ele>
        <time>2018-01-29T18:30:44Z</time>
      </trkpt>
      <trkpt lat="62.633385065187" lon="17.97171896176">
        <ele>58.4</ele>
        <time>2018-01-29T18:30:45Z</time>
      </trkpt>
      <trkpt lat="62.633380371323" lon="17.971769672255">
        <ele>58.6</ele>
        <time>2018-01-29T18:30:46Z</time>
      </trkpt>
      <trkpt lat="62.633376850925" lon="17.97181954456">
        <ele>58.6</ele>
        <time>2018-01-29T18:30:47Z</time>
      </trkpt>
      <trkpt lat="62.633372073242" lon="17.971873775453">
        <ele>59</ele>
        <time>2018-01-29T18:30:48Z</time>
      </trkpt>
      <trkpt lat="62.63336804993" lon="17.971923983034">
        <ele>59</ele>
        <time>2018-01-29T18:30:49Z</time>
      </trkpt>
      <trkpt lat="62.633361260591" lon="17.971974777348">
        <ele>59</ele>
        <time>2018-01-29T18:30:50Z</time>
      </trkpt>
      <trkpt lat="62.63335463889" lon="17.972025068748">
        <ele>59</ele>
        <time>2018-01-29T18:30:51Z</time>
      </trkpt>
      <trkpt lat="62.63334625699" lon="17.972079886374">
        <ele>59.2</ele>
        <time>2018-01-29T18:30:52Z</time>
      </trkpt>
      <trkpt lat="62.633339802927" lon="17.972129591041">
        <ele>59.2</ele>
        <time>2018-01-29T18:30:53Z</time>
      </trkpt>
      <trkpt lat="62.633335276701" lon="17.972177786966">
        <ele>59.2</ele>
        <time>2018-01-29T18:30:54Z</time>
      </trkpt>
      <trkpt lat="62.633325050783" lon="17.972232856049">
        <ele>59.4</ele>
        <time>2018-01-29T18:30:55Z</time>
      </trkpt>
      <trkpt lat="62.633317255616" lon="17.972279291775">
        <ele>59.4</ele>
        <time>2018-01-29T18:30:56Z</time>
      </trkpt>
      <trkpt lat="62.633309963363" lon="17.972331259555">
        <ele>59.4</ele>
        <time>2018-01-29T18:30:57Z</time>
      </trkpt>
      <trkpt lat="62.633298731617" lon="17.972383897887">
        <ele>59.6</ele>
        <time>2018-01-29T18:30:58Z</time>
      </trkpt>
      <trkpt lat="62.63329261283" lon="17.972423292817">
        <ele>59.6</ele>
        <time>2018-01-29T18:30:59Z</time>
      </trkpt>
      <trkpt lat="62.633279369428" lon="17.972483055764">
        <ele>59.8</ele>
        <time>2018-01-29T18:31:00Z</time>
      </trkpt>
      <trkpt lat="62.633272412451" lon="17.97252781511">
        <ele>60</ele>
        <time>2018-01-29T18:31:01Z</time>
      </trkpt>
      <trkpt lat="62.633264030551" lon="17.972580034347">
        <ele>59.8</ele>
        <time>2018-01-29T18:31:02Z</time>
      </trkpt>
      <trkpt lat="62.633255229556" lon="17.972626553892">
        <ele>59.8</ele>
        <time>2018-01-29T18:31:03Z</time>
      </trkpt>
      <trkpt lat="62.633248356398" lon="17.97267366017">
        <ele>59.8</ele>
        <time>2018-01-29T18:31:04Z</time>
      </trkpt>
      <trkpt lat="62.63323813048" lon="17.972720766448">
        <ele>59.8</ele>
        <time>2018-01-29T18:31:05Z</time>
      </trkpt>
      <trkpt lat="62.633228826571" lon="17.972768208002">
        <ele>60</ele>
        <time>2018-01-29T18:31:06Z</time>
      </trkpt>
      <trkpt lat="62.633220444671" lon="17.972815733375">
        <ele>59.8</ele>
        <time>2018-01-29T18:31:07Z</time>
      </trkpt>
      <trkpt lat="62.633209212925" lon="17.972862420558">
        <ele>59.8</ele>
        <time>2018-01-29T18:31:08Z</time>
      </trkpt>
      <trkpt lat="62.63320125012" lon="17.972903659506">
        <ele>60</ele>
        <time>2018-01-29T18:31:09Z</time>
      </trkpt>
      <trkpt lat="62.633187922899" lon="17.972951520155">
        <ele>60.2</ele>
        <time>2018-01-29T18:31:10Z</time>
      </trkpt>
      <trkpt lat="62.633180211551" lon="17.972995189854">
        <ele>60.4</ele>
        <time>2018-01-29T18:31:11Z</time>
      </trkpt>
      <trkpt lat="62.63317023709" lon="17.973047073815">
        <ele>60.6</ele>
        <time>2018-01-29T18:31:12Z</time>
      </trkpt>
      <trkpt lat="62.633159927353" lon="17.973098790138">
        <ele>60.6</ele>
        <time>2018-01-29T18:31:13Z</time>
      </trkpt>
      <trkpt lat="62.633152048367" lon="17.973138352706">
        <ele>60.6</ele>
        <time>2018-01-29T18:31:14Z</time>
      </trkpt>
      <trkpt lat="62.633138804965" lon="17.973192415961">
        <ele>60.8</ele>
        <time>2018-01-29T18:31:15Z</time>
      </trkpt>
      <trkpt lat="62.63312916578" lon="17.973238684049">
        <ele>60.8</ele>
        <time>2018-01-29T18:31:16Z</time>
      </trkpt>
      <trkpt lat="62.63311994569" lon="17.973279168626">
        <ele>60.6</ele>
        <time>2018-01-29T18:31:17Z</time>
      </trkpt>
      <trkpt lat="62.633106953745" lon="17.973328454198">
        <ele>60.6</ele>
        <time>2018-01-29T18:31:18Z</time>
      </trkpt>
      <trkpt lat="62.633096141094" lon="17.973373297363">
        <ele>60.6</ele>
        <time>2018-01-29T18:31:19Z</time>
      </trkpt>
      <trkpt lat="62.633084238796" lon="17.973428282627">
        <ele>60.8</ele>
        <time>2018-01-29T18:31:20Z</time>
      </trkpt>
      <trkpt lat="62.633072923231" lon="17.973477232923">
        <ele>60.8</ele>
        <time>2018-01-29T18:31:21Z</time>
      </trkpt>
      <trkpt lat="62.633053393404" lon="17.97357471442">
        <ele>60.8</ele>
        <time>2018-01-29T18:31:23Z</time>
      </trkpt>
      <trkpt lat="62.633044676228" lon="17.97361578573">
        <ele>60.8</ele>
        <time>2018-01-29T18:31:24Z</time>
      </trkpt>
      <trkpt lat="62.633034785586" lon="17.973665406578">
        <ele>61</ele>
        <time>2018-01-29T18:31:25Z</time>
      </trkpt>
      <trkpt lat="62.633023050926" lon="17.973716033254">
        <ele>61.2</ele>
        <time>2018-01-29T18:31:26Z</time>
      </trkpt>
      <trkpt lat="62.633016429225" lon="17.973761463152">
        <ele>61.2</ele>
        <time>2018-01-29T18:31:27Z</time>
      </trkpt>
      <trkpt lat="62.633003353461" lon="17.973810832543">
        <ele>61.4</ele>
        <time>2018-01-29T18:31:28Z</time>
      </trkpt>
      <trkpt lat="62.632991618801" lon="17.973850981844">
        <ele>61.4</ele>
        <time>2018-01-29T18:31:29Z</time>
      </trkpt>
      <trkpt lat="62.632978626856" lon="17.973903955452">
        <ele>61.6</ele>
        <time>2018-01-29T18:31:30Z</time>
      </trkpt>
      <trkpt lat="62.632963371798" lon="17.973952821929">
        <ele>61.8</ele>
        <time>2018-01-29T18:31:31Z</time>
      </trkpt>
      <trkpt lat="62.632950882767" lon="17.974000263483">
        <ele>61.8</ele>
        <time>2018-01-29T18:31:32Z</time>
      </trkpt>
      <trkpt lat="62.632939483383" lon="17.974057428041">
        <ele>62</ele>
        <time>2018-01-29T18:31:33Z</time>
      </trkpt>
      <trkpt lat="62.632927497266" lon="17.974106545975">
        <ele>62.4</ele>
        <time>2018-01-29T18:31:34Z</time>
      </trkpt>
      <trkpt lat="62.632916181701" lon="17.974157340289">
        <ele>62.2</ele>
        <time>2018-01-29T18:31:35Z</time>
      </trkpt>
      <trkpt lat="62.632899669358" lon="17.974216265046">
        <ele>62.2</ele>
        <time>2018-01-29T18:31:36Z</time>
      </trkpt>
      <trkpt lat="62.632887683241" lon="17.974262114039">
        <ele>62.2</ele>
        <time>2018-01-29T18:31:37Z</time>
      </trkpt>
      <trkpt lat="62.632871087079" lon="17.974310980516">
        <ele>62.2</ele>
        <time>2018-01-29T18:31:38Z</time>
      </trkpt>
      <trkpt lat="62.632858011315" lon="17.974355823681">
        <ele>62.2</ele>
        <time>2018-01-29T18:31:39Z</time>
      </trkpt>
      <trkpt lat="62.632839068221" lon="17.974402343226">
        <ele>62.4</ele>
        <time>2018-01-29T18:31:40Z</time>
      </trkpt>
      <trkpt lat="62.632813251969" lon="17.974439894138">
        <ele>62.4</ele>
        <time>2018-01-29T18:31:41Z</time>
      </trkpt>
      <trkpt lat="62.632788441545" lon="17.974463950191">
        <ele>62.4</ele>
        <time>2018-01-29T18:31:42Z</time>
      </trkpt>
      <trkpt lat="62.6327586858" lon="17.974480294896">
        <ele>62.4</ele>
        <time>2018-01-29T18:31:43Z</time>
      </trkpt>
      <trkpt lat="62.632735300299" lon="17.974481049267">
        <ele>62.2</ele>
        <time>2018-01-29T18:31:44Z</time>
      </trkpt>
      <trkpt lat="62.63270923259" lon="17.974470068978">
        <ele>62.2</ele>
        <time>2018-01-29T18:31:45Z</time>
      </trkpt>
      <trkpt lat="62.632680063578" lon="17.974460765069">
        <ele>62.2</ele>
        <time>2018-01-29T18:31:46Z</time>
      </trkpt>
      <trkpt lat="62.632653409136" lon="17.974438133939">
        <ele>62.2</ele>
        <time>2018-01-29T18:31:47Z</time>
      </trkpt>
      <trkpt lat="62.632626587056" lon="17.974419777578">
        <ele>62.2</ele>
        <time>2018-01-29T18:31:48Z</time>
      </trkpt>
      <trkpt lat="62.632598423872" lon="17.974403265235">
        <ele>62.2</ele>
        <time>2018-01-29T18:31:49Z</time>
      </trkpt>
      <trkpt lat="62.632571182697" lon="17.974389854195">
        <ele>62.2</ele>
        <time>2018-01-29T18:31:50Z</time>
      </trkpt>
      <trkpt lat="62.632556179096" lon="17.974362529201">
        <ele>62.4</ele>
        <time>2018-01-29T18:31:51Z</time>
      </trkpt>
      <trkpt lat="62.632530111387" lon="17.974336796768">
        <ele>62.6</ele>
        <time>2018-01-29T18:31:52Z</time>
      </trkpt>
      <trkpt lat="62.632514101958" lon="17.974324978289">
        <ele>62.6</ele>
        <time>2018-01-29T18:31:53Z</time>
      </trkpt>
      <trkpt lat="62.63249214138" lon="17.97429974877">
        <ele>62.6</ele>
        <time>2018-01-29T18:31:54Z</time>
      </trkpt>
      <trkpt lat="62.632465486938" lon="17.974268819559">
        <ele>62.8</ele>
        <time>2018-01-29T18:31:55Z</time>
      </trkpt>
      <trkpt lat="62.632446124749" lon="17.974246272248">
        <ele>62.8</ele>
        <time>2018-01-29T18:31:56Z</time>
      </trkpt>
      <trkpt lat="62.632416285185" lon="17.974214923942">
        <ele>62.8</ele>
        <time>2018-01-29T18:31:57Z</time>
      </trkpt>
      <trkpt lat="62.632392480589" lon="17.974184581464">
        <ele>63</ele>
        <time>2018-01-29T18:31:58Z</time>
      </trkpt>
      <trkpt lat="62.632376135884" lon="17.974177708306">
        <ele>63</ele>
        <time>2018-01-29T18:31:59Z</time>
      </trkpt>
      <trkpt lat="62.63234378175" lon="17.974147365828">
        <ele>62.8</ele>
        <time>2018-01-29T18:32:00Z</time>
      </trkpt>
      <trkpt lat="62.632318384593" lon="17.974117526264">
        <ele>63</ele>
        <time>2018-01-29T18:32:01Z</time>
      </trkpt>
      <trkpt lat="62.632295669644" lon="17.974096403876">
        <ele>63</ele>
        <time>2018-01-29T18:32:02Z</time>
      </trkpt>
      <trkpt lat="62.632266835908" lon="17.974082154646">
        <ele>62.8</ele>
        <time>2018-01-29T18:32:03Z</time>
      </trkpt>
      <trkpt lat="62.632242612217" lon="17.974059691154">
        <ele>62.8</ele>
        <time>2018-01-29T18:32:04Z</time>
      </trkpt>
      <trkpt lat="62.632212437377" lon="17.974035216006">
        <ele>62.8</ele>
        <time>2018-01-29T18:32:05Z</time>
      </trkpt>
      <trkpt lat="62.632182262537" lon="17.974002275139">
        <ele>63</ele>
        <time>2018-01-29T18:32:06Z</time>
      </trkpt>
      <trkpt lat="62.632157284475" lon="17.973984337873">
        <ele>62.8</ele>
        <time>2018-01-29T18:32:07Z</time>
      </trkpt>
      <trkpt lat="62.632132641689" lon="17.973956426146">
        <ele>62.8</ele>
        <time>2018-01-29T18:32:08Z</time>
      </trkpt>
      <trkpt lat="62.632105903428" lon="17.973932286274">
        <ele>62.8</ele>
        <time>2018-01-29T18:32:09Z</time>
      </trkpt>
      <trkpt lat="62.632082937022" lon="17.97390244671">
        <ele>62.8</ele>
        <time>2018-01-29T18:32:10Z</time>
      </trkpt>
      <trkpt lat="62.632055528209" lon="17.97387059549">
        <ele>62.8</ele>
        <time>2018-01-29T18:32:11Z</time>
      </trkpt>
      <trkpt lat="62.632030047233" lon="17.973840923564">
        <ele>62.8</ele>
        <time>2018-01-29T18:32:12Z</time>
      </trkpt>
      <trkpt lat="62.632010601225" lon="17.973812508923">
        <ele>62.8</ele>
        <time>2018-01-29T18:32:13Z</time>
      </trkpt>
      <trkpt lat="62.631985790801" lon="17.973782836997">
        <ele>62.8</ele>
        <time>2018-01-29T18:32:14Z</time>
      </trkpt>
      <trkpt lat="62.631957459979" lon="17.97375743984">
        <ele>62.8</ele>
        <time>2018-01-29T18:32:15Z</time>
      </trkpt>
      <trkpt lat="62.631933403926" lon="17.973736065995">
        <ele>62.8</ele>
        <time>2018-01-29T18:32:16Z</time>
      </trkpt>
      <trkpt lat="62.631913119728" lon="17.973697844531">
        <ele>62.6</ele>
        <time>2018-01-29T18:32:17Z</time>
      </trkpt>
      <trkpt lat="62.631888728399" lon="17.973675632496">
        <ele>62.6</ele>
        <time>2018-01-29T18:32:18Z</time>
      </trkpt>
      <trkpt lat="62.631866516364" lon="17.973643110724">
        <ele>62.6</ele>
        <time>2018-01-29T18:32:19Z</time>
      </trkpt>
      <trkpt lat="62.631838269361" lon="17.973607739106">
        <ele>62.6</ele>
        <time>2018-01-29T18:32:20Z</time>
      </trkpt>
      <trkpt lat="62.631815219136" lon="17.973583515415">
        <ele>62.6</ele>
        <time>2018-01-29T18:32:21Z</time>
      </trkpt>
      <trkpt lat="62.631789905798" lon="17.973544958675">
        <ele>62.6</ele>
        <time>2018-01-29T18:32:22Z</time>
      </trkpt>
      <trkpt lat="62.631769286324" lon="17.97351185017">
        <ele>62.6</ele>
        <time>2018-01-29T18:32:23Z</time>
      </trkpt>
      <trkpt lat="62.631746403737" lon="17.973483603167">
        <ele>62.6</ele>
        <time>2018-01-29T18:32:24Z</time>
      </trkpt>
      <trkpt lat="62.6317193302" lon="17.973448063911">
        <ele>62.6</ele>
        <time>2018-01-29T18:32:25Z</time>
      </trkpt>
      <trkpt lat="62.631690915559" lon="17.973416547967">
        <ele>62.6</ele>
        <time>2018-01-29T18:32:26Z</time>
      </trkpt>
      <trkpt lat="62.631663925841" lon="17.973384696747">
        <ele>62.6</ele>
        <time>2018-01-29T18:32:27Z</time>
      </trkpt>
      <trkpt lat="62.631638612503" lon="17.973333148062">
        <ele>62.4</ele>
        <time>2018-01-29T18:32:28Z</time>
      </trkpt>
      <trkpt lat="62.63161958559" lon="17.973301213023">
        <ele>62.4</ele>
        <time>2018-01-29T18:32:29Z</time>
      </trkpt>
      <trkpt lat="62.631595445718" lon="17.973257459505">
        <ele>62.4</ele>
        <time>2018-01-29T18:32:30Z</time>
      </trkpt>
      <trkpt lat="62.631574742425" lon="17.973212783978">
        <ele>62.2</ele>
        <time>2018-01-29T18:32:31Z</time>
      </trkpt>
      <trkpt lat="62.63155253039" lon="17.97317741236">
        <ele>62.2</ele>
        <time>2018-01-29T18:32:32Z</time>
      </trkpt>
      <trkpt lat="62.63153157564" lon="17.973136424869">
        <ele>62.2</ele>
        <time>2018-01-29T18:32:33Z</time>
      </trkpt>
      <trkpt lat="62.63150642994" lon="17.973086301107">
        <ele>62.2</ele>
        <time>2018-01-29T18:32:34Z</time>
      </trkpt>
      <trkpt lat="62.631490671968" lon="17.973044223969">
        <ele>62</ele>
        <time>2018-01-29T18:32:35Z</time>
      </trkpt>
      <trkpt lat="62.631468292295" lon="17.972990328352">
        <ele>61.8</ele>
        <time>2018-01-29T18:32:36Z</time>
      </trkpt>
      <trkpt lat="62.631449181563" lon="17.972934588717">
        <ele>61.6</ele>
        <time>2018-01-29T18:32:37Z</time>
      </trkpt>
      <trkpt lat="62.631429400279" lon="17.972887230982">
        <ele>61.4</ele>
        <time>2018-01-29T18:32:38Z</time>
      </trkpt>
      <trkpt lat="62.63141506723" lon="17.972819756687">
        <ele>61.2</ele>
        <time>2018-01-29T18:32:39Z</time>
      </trkpt>
      <trkpt lat="62.631394615394" lon="17.972766615441">
        <ele>61.2</ele>
        <time>2018-01-29T18:32:40Z</time>
      </trkpt>
      <trkpt lat="62.631378270689" lon="17.97271808424">
        <ele>61</ele>
        <time>2018-01-29T18:32:41Z</time>
      </trkpt>
      <trkpt lat="62.631358657043" lon="17.972661003501">
        <ele>60.8</ele>
        <time>2018-01-29T18:32:42Z</time>
      </trkpt>
      <trkpt lat="62.631345329822" lon="17.972608197531">
        <ele>60.8</ele>
        <time>2018-01-29T18:32:43Z</time>
      </trkpt>
      <trkpt lat="62.63132454271" lon="17.972573999379">
        <ele>60.8</ele>
        <time>2018-01-29T18:32:44Z</time>
      </trkpt>
      <trkpt lat="62.631302163037" lon="17.972512560052">
        <ele>60.4</ele>
        <time>2018-01-29T18:32:45Z</time>
      </trkpt>
      <trkpt lat="62.631282465572" lon="17.972470231457">
        <ele>60.4</ele>
        <time>2018-01-29T18:32:46Z</time>
      </trkpt>
      <trkpt lat="62.631261846098" lon="17.97241885041">
        <ele>60.2</ele>
        <time>2018-01-29T18:32:47Z</time>
      </trkpt>
      <trkpt lat="62.631244327927" lon="17.972368056096">
        <ele>60.2</ele>
        <time>2018-01-29T18:32:48Z</time>
      </trkpt>
      <trkpt lat="62.631231335982" lon="17.972312651737">
        <ele>60</ele>
        <time>2018-01-29T18:32:49Z</time>
      </trkpt>
      <trkpt lat="62.631214404544" lon="17.972246518546">
        <ele>59.8</ele>
        <time>2018-01-29T18:32:50Z</time>
      </trkpt>
      <trkpt lat="62.631196132002" lon="17.972192203834">
        <ele>59.8</ele>
        <time>2018-01-29T18:32:51Z</time>
      </trkpt>
      <trkpt lat="62.631181379858" lon="17.972138308217">
        <ele>59.6</ele>
        <time>2018-01-29T18:32:52Z</time>
      </trkpt>
      <trkpt lat="62.631165705705" lon="17.972076617433">
        <ele>59.4</ele>
        <time>2018-01-29T18:32:53Z</time>
      </trkpt>
      <trkpt lat="62.63115019919" lon="17.972024398196">
        <ele>59.2</ele>
        <time>2018-01-29T18:32:54Z</time>
      </trkpt>
      <trkpt lat="62.631132932476" lon="17.971965054344">
        <ele>59.2</ele>
        <time>2018-01-29T18:32:55Z</time>
      </trkpt>
      <trkpt lat="62.631116001038" lon="17.971902944465">
        <ele>59</ele>
        <time>2018-01-29T18:32:56Z</time>
      </trkpt>
      <trkpt lat="62.631103344369" lon="17.971851479599">
        <ele>58.8</ele>
        <time>2018-01-29T18:32:57Z</time>
      </trkpt>
      <trkpt lat="62.631091106795" lon="17.971792471023">
        <ele>58.8</ele>
        <time>2018-01-29T18:32:58Z</time>
      </trkpt>
      <trkpt lat="62.631080377963" lon="17.971734468275">
        <ele>58.4</ele>
        <time>2018-01-29T18:32:59Z</time>
      </trkpt>
      <trkpt lat="62.631060345222" lon="17.971672777491">
        <ele>58.2</ele>
        <time>2018-01-29T18:33:00Z</time>
      </trkpt>
      <trkpt lat="62.631044084336" lon="17.971608823594">
        <ele>58.2</ele>
        <time>2018-01-29T18:33:01Z</time>
      </trkpt>
      <trkpt lat="62.631033355504" lon="17.971544115326">
        <ele>58.2</ele>
        <time>2018-01-29T18:33:02Z</time>
      </trkpt>
      <trkpt lat="62.631020363559" lon="17.971487788958">
        <ele>57.8</ele>
        <time>2018-01-29T18:33:03Z</time>
      </trkpt>
      <trkpt lat="62.631010975831" lon="17.971417632455">
        <ele>57.8</ele>
        <time>2018-01-29T18:33:04Z</time>
      </trkpt>
      <trkpt lat="62.631002258655" lon="17.971360551716">
        <ele>58</ele>
        <time>2018-01-29T18:33:05Z</time>
      </trkpt>
      <trkpt lat="62.630984405208" lon="17.971299447665">
        <ele>57.8</ele>
        <time>2018-01-29T18:33:06Z</time>
      </trkpt>
      <trkpt lat="62.630973089643" lon="17.97123364975">
        <ele>57.4</ele>
        <time>2018-01-29T18:33:07Z</time>
      </trkpt>
      <trkpt lat="62.630968814874" lon="17.97117497645">
        <ele>57.4</ele>
        <time>2018-01-29T18:33:08Z</time>
      </trkpt>
      <trkpt lat="62.630961271164" lon="17.97111714134">
        <ele>57.4</ele>
        <time>2018-01-29T18:33:09Z</time>
      </trkpt>
      <trkpt lat="62.630951631979" lon="17.971047152475">
        <ele>57.2</ele>
        <time>2018-01-29T18:33:10Z</time>
      </trkpt>
      <trkpt lat="62.630942998622" lon="17.970989065908">
        <ele>57.2</ele>
        <time>2018-01-29T18:33:11Z</time>
      </trkpt>
      <trkpt lat="62.630932856523" lon="17.970918155034">
        <ele>57.2</ele>
        <time>2018-01-29T18:33:12Z</time>
      </trkpt>
      <trkpt lat="62.630926821555" lon="17.970856045155">
        <ele>57</ele>
        <time>2018-01-29T18:33:13Z</time>
      </trkpt>
      <trkpt lat="62.630924474623" lon="17.970810699076">
        <ele>56.8</ele>
        <time>2018-01-29T18:33:14Z</time>
      </trkpt>
      <trkpt lat="62.630916763275" lon="17.97074079403">
        <ele>56.8</ele>
        <time>2018-01-29T18:33:15Z</time>
      </trkpt>
      <trkpt lat="62.630910560669" lon="17.970668458233">
        <ele>56.6</ele>
        <time>2018-01-29T18:33:16Z</time>
      </trkpt>
      <trkpt lat="62.630904358063" lon="17.970609533476">
        <ele>56.6</ele>
        <time>2018-01-29T18:33:17Z</time>
      </trkpt>
      <trkpt lat="62.630899412742" lon="17.970539796068">
        <ele>56.2</ele>
        <time>2018-01-29T18:33:18Z</time>
      </trkpt>
      <trkpt lat="62.630893880688" lon="17.970478189103">
        <ele>56</ele>
        <time>2018-01-29T18:33:19Z</time>
      </trkpt>
      <trkpt lat="62.630889857376" lon="17.970412558826">
        <ele>56</ele>
        <time>2018-01-29T18:33:20Z</time>
      </trkpt>
      <trkpt lat="62.630890695566" lon="17.97034600654">
        <ele>56</ele>
        <time>2018-01-29T18:33:21Z</time>
      </trkpt>
      <trkpt lat="62.630891952851" lon="17.970258080409">
        <ele>56</ele>
        <time>2018-01-29T18:33:23Z</time>
      </trkpt>
      <trkpt lat="62.630893377774" lon="17.970228995216">
        <ele>56</ele>
        <time>2018-01-29T18:33:24Z</time>
      </trkpt>
      <trkpt lat="62.630898490733" lon="17.970198820376">
        <ele>56</ele>
        <time>2018-01-29T18:33:25Z</time>
      </trkpt>
      <trkpt lat="62.630901089122" lon="17.97017585397">
        <ele>55.6</ele>
        <time>2018-01-29T18:33:26Z</time>
      </trkpt>
      <trkpt lat="62.630901172941" lon="17.970149786261">
        <ele>55.6</ele>
        <time>2018-01-29T18:33:27Z</time>
      </trkpt>
      <trkpt lat="62.630902262588" lon="17.970128663873">
        <ele>55.6</ele>
        <time>2018-01-29T18:33:28Z</time>
      </trkpt>
      <trkpt lat="62.630910225393" lon="17.970116593937">
        <ele>55.4</ele>
        <time>2018-01-29T18:33:29Z</time>
      </trkpt>
      <trkpt lat="62.630916260361" lon="17.970109134046">
        <ele>55.4</ele>
        <time>2018-01-29T18:33:30Z</time>
      </trkpt>
      <trkpt lat="62.630921876234" lon="17.97010544601">
        <ele>55.4</ele>
        <time>2018-01-29T18:33:31Z</time>
      </trkpt>
      <trkpt lat="62.630930509591" lon="17.970108379675">
        <ele>55.4</ele>
        <time>2018-01-29T18:33:32Z</time>
      </trkpt>
      <trkpt lat="62.630928414116" lon="17.970120952525">
        <ele>55.2</ele>
        <time>2018-01-29T18:33:33Z</time>
      </trkpt>
      <trkpt lat="62.630936712197" lon="17.970115169014">
        <ele>55.2</ele>
        <time>2018-01-29T18:33:34Z</time>
      </trkpt>
      <trkpt lat="62.630939478224" lon="17.970106368019">
        <ele>55</ele>
        <time>2018-01-29T18:33:35Z</time>
      </trkpt>
      <trkpt lat="62.630936041645" lon="17.970123802371">
        <ele>55</ele>
        <time>2018-01-29T18:33:36Z</time>
      </trkpt>
      <trkpt lat="62.631199149486" lon="17.970048952004">
        <ele>54.8</ele>
        <time>2018-01-29T18:35:32Z</time>
      </trkpt>
      <trkpt lat="62.631231419801" lon="17.970024895951">
        <ele>54.8</ele>
        <time>2018-01-29T18:35:33Z</time>
      </trkpt>
      <trkpt lat="62.631262851926" lon="17.970005617581">
        <ele>54.8</ele>
        <time>2018-01-29T18:35:34Z</time>
      </trkpt>
      <trkpt lat="62.631293613499" lon="17.96998558484">
        <ele>54.8</ele>
        <time>2018-01-29T18:35:35Z</time>
      </trkpt>
      <trkpt lat="62.631327727832" lon="17.969962786072">
        <ele>54.8</ele>
        <time>2018-01-29T18:35:36Z</time>
      </trkpt>
      <trkpt lat="62.631358992319" lon="17.969940574037">
        <ele>54.8</ele>
        <time>2018-01-29T18:35:37Z</time>
      </trkpt>
      <trkpt lat="62.631392771376" lon="17.969925989531">
        <ele>54.6</ele>
        <time>2018-01-29T18:35:38Z</time>
      </trkpt>
      <trkpt lat="62.631422359483" lon="17.969909225731">
        <ele>54.6</ele>
        <time>2018-01-29T18:35:39Z</time>
      </trkpt>
      <trkpt lat="62.631456557635" lon="17.969887181334">
        <ele>54.4</ele>
        <time>2018-01-29T18:35:40Z</time>
      </trkpt>
      <trkpt lat="62.631486900113" lon="17.969868824973">
        <ele>54.2</ele>
        <time>2018-01-29T18:35:41Z</time>
      </trkpt>
      <trkpt lat="62.631516572039" lon="17.969851139164">
        <ele>54.2</ele>
        <time>2018-01-29T18:35:42Z</time>
      </trkpt>
      <trkpt lat="62.631549345268" lon="17.969834375364">
        <ele>54.2</ele>
        <time>2018-01-29T18:35:43Z</time>
      </trkpt>
      <trkpt lat="62.631577340814" lon="17.969817695383">
        <ele>54.4</ele>
        <time>2018-01-29T18:35:44Z</time>
      </trkpt>
      <trkpt lat="62.631612544794" lon="17.969798417013">
        <ele>54.2</ele>
        <time>2018-01-29T18:35:45Z</time>
      </trkpt>
      <trkpt lat="62.631643222548" lon="17.969776540254">
        <ele>54.2</ele>
        <time>2018-01-29T18:35:46Z</time>
      </trkpt>
      <trkpt lat="62.631673481207" lon="17.969752232744">
        <ele>54.2</ele>
        <time>2018-01-29T18:35:47Z</time>
      </trkpt>
      <trkpt lat="62.631702817857" lon="17.969721890266">
        <ele>54.2</ele>
        <time>2018-01-29T18:35:48Z</time>
      </trkpt>
      <trkpt lat="62.631727209186" lon="17.969692721254">
        <ele>54</ele>
        <time>2018-01-29T18:35:49Z</time>
      </trkpt>
      <trkpt lat="62.631755791465" lon="17.969655840894">
        <ele>54</ele>
        <time>2018-01-29T18:35:50Z</time>
      </trkpt>
      <trkpt lat="62.631780769527" lon="17.969623235303">
        <ele>53.8</ele>
        <time>2018-01-29T18:35:51Z</time>
      </trkpt>
      <trkpt lat="62.6318031492" lon="17.969590462074">
        <ele>53.6</ele>
        <time>2018-01-29T18:35:52Z</time>
      </trkpt>
      <trkpt lat="62.631826367063" lon="17.969567244211">
        <ele>53.2</ele>
        <time>2018-01-29T18:35:53Z</time>
      </trkpt>
      <trkpt lat="62.631853021505" lon="17.96955475518">
        <ele>53</ele>
        <time>2018-01-29T18:35:54Z</time>
      </trkpt>
      <trkpt lat="62.631884202173" lon="17.969553497895">
        <ele>53.2</ele>
        <time>2018-01-29T18:35:55Z</time>
      </trkpt>
      <trkpt lat="62.631908677321" lon="17.969559868139">
        <ele>53.2</ele>
        <time>2018-01-29T18:35:56Z</time>
      </trkpt>
      <trkpt lat="62.631931895184" lon="17.969563807632">
        <ele>53.2</ele>
        <time>2018-01-29T18:35:57Z</time>
      </trkpt>
      <trkpt lat="62.631960226006" lon="17.969568250039">
        <ele>53.2</ele>
        <time>2018-01-29T18:35:58Z</time>
      </trkpt>
      <trkpt lat="62.631981767489" lon="17.969572105713">
        <ele>53.4</ele>
        <time>2018-01-29T18:35:59Z</time>
      </trkpt>
      <trkpt lat="62.632011690872" lon="17.969571435161">
        <ele>53.4</ele>
        <time>2018-01-29T18:36:00Z</time>
      </trkpt>
      <trkpt lat="62.632039351142" lon="17.969567495668">
        <ele>53.6</ele>
        <time>2018-01-29T18:36:01Z</time>
      </trkpt>
      <trkpt lat="62.632067598145" lon="17.969558024121">
        <ele>53.6</ele>
        <time>2018-01-29T18:36:02Z</time>
      </trkpt>
      <trkpt lat="62.632095761329" lon="17.96955140242">
        <ele>53.8</ele>
        <time>2018-01-29T18:36:03Z</time>
      </trkpt>
      <trkpt lat="62.632120907029" lon="17.969544277805">
        <ele>54</ele>
        <time>2018-01-29T18:36:04Z</time>
      </trkpt>
      <trkpt lat="62.632148651118" lon="17.969534219525">
        <ele>53.8</ele>
        <time>2018-01-29T18:36:05Z</time>
      </trkpt>
      <trkpt lat="62.632179077415" lon="17.969526759634">
        <ele>53.8</ele>
        <time>2018-01-29T18:36:06Z</time>
      </trkpt>
      <trkpt lat="62.632204390753" lon="17.969519132105">
        <ele>54</ele>
        <time>2018-01-29T18:36:07Z</time>
      </trkpt>
      <trkpt lat="62.632232470118" lon="17.96951368387">
        <ele>54</ele>
        <time>2018-01-29T18:36:08Z</time>
      </trkpt>
      <trkpt lat="62.63225828637" lon="17.969506391617">
        <ele>53.8</ele>
        <time>2018-01-29T18:36:09Z</time>
      </trkpt>
      <trkpt lat="62.632287036287" lon="17.969496165699">
        <ele>54</ele>
        <time>2018-01-29T18:36:10Z</time>
      </trkpt>
      <trkpt lat="62.632313942186" lon="17.969490968921">
        <ele>54</ele>
        <time>2018-01-29T18:36:11Z</time>
      </trkpt>
      <trkpt lat="62.632339339343" lon="17.969484682496">
        <ele>53.8</ele>
        <time>2018-01-29T18:36:12Z</time>
      </trkpt>
      <trkpt lat="62.632368759812" lon="17.96948015627">
        <ele>53.8</ele>
        <time>2018-01-29T18:36:13Z</time>
      </trkpt>
      <trkpt lat="62.632393402598" lon="17.969478731347">
        <ele>54</ele>
        <time>2018-01-29T18:36:14Z</time>
      </trkpt>
      <trkpt lat="62.632421398144" lon="17.9694776417">
        <ele>53.8</ele>
        <time>2018-01-29T18:36:15Z</time>
      </trkpt>
      <trkpt lat="62.632450064242" lon="17.969476468234">
        <ele>53.6</ele>
        <time>2018-01-29T18:36:16Z</time>
      </trkpt>
      <trkpt lat="62.632474120295" lon="17.969473115474">
        <ele>53.8</ele>
        <time>2018-01-29T18:36:17Z</time>
      </trkpt>
      <trkpt lat="62.632502954031" lon="17.969474624216">
        <ele>53.8</ele>
        <time>2018-01-29T18:36:18Z</time>
      </trkpt>
      <trkpt lat="62.632527764455" lon="17.969478982804">
        <ele>53.6</ele>
        <time>2018-01-29T18:36:19Z</time>
      </trkpt>
      <trkpt lat="62.632553915983" lon="17.969484179582">
        <ele>53.6</ele>
        <time>2018-01-29T18:36:20Z</time>
      </trkpt>
      <trkpt lat="62.632580235149" lon="17.969490466007">
        <ele>53.8</ele>
        <time>2018-01-29T18:36:21Z</time>
      </trkpt>
      <trkpt lat="62.632597166587" lon="17.96949356731">
        <ele>53.8</ele>
        <time>2018-01-29T18:36:22Z</time>
      </trkpt>
      <trkpt lat="62.632627425246" lon="17.969498931726">
        <ele>54</ele>
        <time>2018-01-29T18:36:23Z</time>
      </trkpt>
      <trkpt lat="62.632655420792" lon="17.969505553427">
        <ele>53.8</ele>
        <time>2018-01-29T18:36:24Z</time>
      </trkpt>
      <trkpt lat="62.632681823777" lon="17.969509241463">
        <ele>53.8</ele>
        <time>2018-01-29T18:36:25Z</time>
      </trkpt>
      <trkpt lat="62.632707137115" lon="17.96951619844">
        <ele>53.8</ele>
        <time>2018-01-29T18:36:26Z</time>
      </trkpt>
      <trkpt lat="62.63273270191" lon="17.969520473209">
        <ele>54</ele>
        <time>2018-01-29T18:36:27Z</time>
      </trkpt>
      <trkpt lat="62.632758099067" lon="17.969522317227">
        <ele>54</ele>
        <time>2018-01-29T18:36:28Z</time>
      </trkpt>
      <trkpt lat="62.632780311102" lon="17.969527178729">
        <ele>54</ele>
        <time>2018-01-29T18:36:29Z</time>
      </trkpt>
      <trkpt lat="62.632808641924" lon="17.969535979724">
        <ele>54</ele>
        <time>2018-01-29T18:36:30Z</time>
      </trkpt>
      <trkpt lat="62.63282993195" lon="17.969536734095">
        <ele>54.2</ele>
        <time>2018-01-29T18:36:31Z</time>
      </trkpt>
      <trkpt lat="62.632853652727" lon="17.969545199814">
        <ele>54</ele>
        <time>2018-01-29T18:36:32Z</time>
      </trkpt>
      <trkpt lat="62.632877457323" lon="17.969550480411">
        <ele>54</ele>
        <time>2018-01-29T18:36:33Z</time>
      </trkpt>
      <trkpt lat="62.632899166444" lon="17.969551905334">
        <ele>54</ele>
        <time>2018-01-29T18:36:34Z</time>
      </trkpt>
      <trkpt lat="62.632925401791" lon="17.96955643156">
        <ele>54.2</ele>
        <time>2018-01-29T18:36:35Z</time>
      </trkpt>
      <trkpt lat="62.632950966586" lon="17.969566825116">
        <ele>54.2</ele>
        <time>2018-01-29T18:36:36Z</time>
      </trkpt>
      <trkpt lat="62.632974771182" lon="17.969573614455">
        <ele>54.4</ele>
        <time>2018-01-29T18:36:37Z</time>
      </trkpt>
      <trkpt lat="62.632998324321" lon="17.969583002183">
        <ele>54.4</ele>
        <time>2018-01-29T18:36:38Z</time>
      </trkpt>
      <trkpt lat="62.633022045098" lon="17.969588785694">
        <ele>54.4</ele>
        <time>2018-01-29T18:36:39Z</time>
      </trkpt>
      <trkpt lat="62.633050292101" lon="17.969593479558">
        <ele>54.6</ele>
        <time>2018-01-29T18:36:40Z</time>
      </trkpt>
      <trkpt lat="62.633073929059" lon="17.969603034924">
        <ele>54.6</ele>
        <time>2018-01-29T18:36:41Z</time>
      </trkpt>
      <trkpt lat="62.633099745311" lon="17.969607142055">
        <ele>54.4</ele>
        <time>2018-01-29T18:36:42Z</time>
      </trkpt>
      <trkpt lat="62.633125310106" lon="17.969608650797">
        <ele>54.6</ele>
        <time>2018-01-29T18:36:43Z</time>
      </trkpt>
      <trkpt lat="62.633151461634" lon="17.969613847575">
        <ele>54.8</ele>
        <time>2018-01-29T18:36:44Z</time>
      </trkpt>
      <trkpt lat="62.63317694261" lon="17.969623738217">
        <ele>54.8</ele>
        <time>2018-01-29T18:36:45Z</time>
      </trkpt>
      <trkpt lat="62.633201836853" lon="17.969634802325">
        <ele>54.8</ele>
        <time>2018-01-29T18:36:46Z</time>
      </trkpt>
      <trkpt lat="62.633226060544" lon="17.969646704623">
        <ele>54.8</ele>
        <time>2018-01-29T18:36:47Z</time>
      </trkpt>
      <trkpt lat="62.633251457701" lon="17.969662797871">
        <ele>54.8</ele>
        <time>2018-01-29T18:36:48Z</time>
      </trkpt>
      <trkpt lat="62.63327165808" lon="17.969682076241">
        <ele>55</ele>
        <time>2018-01-29T18:36:49Z</time>
      </trkpt>
      <trkpt lat="62.633295211219" lon="17.969701773706">
        <ele>55</ele>
        <time>2018-01-29T18:36:50Z</time>
      </trkpt>
      <trkpt lat="62.633318093806" lon="17.969720465343">
        <ele>55</ele>
        <time>2018-01-29T18:36:51Z</time>
      </trkpt>
      <trkpt lat="62.63334206604" lon="17.969750137269">
        <ele>55.2</ele>
        <time>2018-01-29T18:36:52Z</time>
      </trkpt>
      <trkpt lat="62.633361428229" lon="17.969778887186">
        <ele>55.2</ele>
        <time>2018-01-29T18:36:53Z</time>
      </trkpt>
      <trkpt lat="62.633376934744" lon="17.969812498605">
        <ele>55.2</ele>
        <time>2018-01-29T18:36:54Z</time>
      </trkpt>
      <trkpt lat="62.633391183974" lon="17.969867651507">
        <ele>55.2</ele>
        <time>2018-01-29T18:36:55Z</time>
      </trkpt>
      <trkpt lat="62.633396716028" lon="17.969912327034">
        <ele>55.4</ele>
        <time>2018-01-29T18:36:56Z</time>
      </trkpt>
      <trkpt lat="62.633398895322" lon="17.969957840751">
        <ele>55.2</ele>
        <time>2018-01-29T18:36:57Z</time>
      </trkpt>
      <trkpt lat="62.633402918634" lon="17.970008802703">
        <ele>55.4</ele>
        <time>2018-01-29T18:36:58Z</time>
      </trkpt>
      <trkpt lat="62.633405684661" lon="17.970049790194">
        <ele>55.6</ele>
        <time>2018-01-29T18:36:59Z</time>
      </trkpt>
      <trkpt lat="62.633406522851" lon="17.970105697467">
        <ele>55.6</ele>
        <time>2018-01-29T18:37:00Z</time>
      </trkpt>
      <trkpt lat="62.633407947774" lon="17.970150456813">
        <ele>55.6</ele>
        <time>2018-01-29T18:37:01Z</time>
      </trkpt>
      <trkpt lat="62.633410965258" lon="17.970195635254">
        <ele>55.6</ele>
        <time>2018-01-29T18:37:02Z</time>
      </trkpt>
      <trkpt lat="62.633413731285" lon="17.970242992989">
        <ele>55.6</ele>
        <time>2018-01-29T18:37:03Z</time>
      </trkpt>
      <trkpt lat="62.63341582676" lon="17.970285573041">
        <ele>55.8</ele>
        <time>2018-01-29T18:37:04Z</time>
      </trkpt>
      <trkpt lat="62.633418928063" lon="17.970332511681">
        <ele>55.8</ele>
        <time>2018-01-29T18:37:05Z</time>
      </trkpt>
      <trkpt lat="62.633419850072" lon="17.970387245488">
        <ele>56</ele>
        <time>2018-01-29T18:37:06Z</time>
      </trkpt>
      <trkpt lat="62.63342001771" lon="17.970435776689">
        <ele>56</ele>
        <time>2018-01-29T18:37:07Z</time>
      </trkpt>
      <trkpt lat="62.633420772081" lon="17.970487493012">
        <ele>56</ele>
        <time>2018-01-29T18:37:08Z</time>
      </trkpt>
      <trkpt lat="62.633422616099" lon="17.970533425824">
        <ele>56</ele>
        <time>2018-01-29T18:37:09Z</time>
      </trkpt>
      <trkpt lat="62.633425298307" lon="17.970582795215">
        <ele>56.2</ele>
        <time>2018-01-29T18:37:10Z</time>
      </trkpt>
      <trkpt lat="62.633427393782" lon="17.970631242597">
        <ele>56.4</ele>
        <time>2018-01-29T18:37:11Z</time>
      </trkpt>
      <trkpt lat="62.633430327447" lon="17.970679354703">
        <ele>56.6</ele>
        <time>2018-01-29T18:37:12Z</time>
      </trkpt>
      <trkpt lat="62.63343342875" lon="17.970728724094">
        <ele>56.8</ele>
        <time>2018-01-29T18:37:13Z</time>
      </trkpt>
      <trkpt lat="62.633435608044" lon="17.970778596399">
        <ele>56.8</ele>
        <time>2018-01-29T18:37:14Z</time>
      </trkpt>
      <trkpt lat="62.63343929608" lon="17.970828552523">
        <ele>57</ele>
        <time>2018-01-29T18:37:15Z</time>
      </trkpt>
      <trkpt lat="62.633443654668" lon="17.970879263018">
        <ele>57</ele>
        <time>2018-01-29T18:37:16Z</time>
      </trkpt>
      <trkpt lat="62.633446504514" lon="17.97092687221">
        <ele>57.2</ele>
        <time>2018-01-29T18:37:17Z</time>
      </trkpt>
      <trkpt lat="62.63344851617" lon="17.970980097275">
        <ele>57.4</ele>
        <time>2018-01-29T18:37:18Z</time>
      </trkpt>
      <trkpt lat="62.633449605817" lon="17.971030304856">
        <ele>57.4</ele>
        <time>2018-01-29T18:37:19Z</time>
      </trkpt>
      <trkpt lat="62.633450108731" lon="17.971082188817">
        <ele>57.4</ele>
        <time>2018-01-29T18:37:20Z</time>
      </trkpt>
      <trkpt lat="62.63345019255" lon="17.971132312579">
        <ele>57.6</ele>
        <time>2018-01-29T18:37:21Z</time>
      </trkpt>
      <trkpt lat="62.633449857274" lon="17.971185956739">
        <ele>57.4</ele>
        <time>2018-01-29T18:37:22Z</time>
      </trkpt>
      <trkpt lat="62.633451785111" lon="17.971231386637">
        <ele>57.4</ele>
        <time>2018-01-29T18:37:23Z</time>
      </trkpt>
      <trkpt lat="62.633453293853" lon="17.971283605874">
        <ele>57.4</ele>
        <time>2018-01-29T18:37:24Z</time>
      </trkpt>
      <trkpt lat="62.633452623301" lon="17.97133590893">
        <ele>57.6</ele>
        <time>2018-01-29T18:37:25Z</time>
      </trkpt>
      <trkpt lat="62.633450695464" lon="17.971386367968">
        <ele>57.8</ele>
        <time>2018-01-29T18:37:26Z</time>
      </trkpt>
      <trkpt lat="62.633448599989" lon="17.971434982988">
        <ele>57.8</ele>
        <time>2018-01-29T18:37:27Z</time>
      </trkpt>
      <trkpt lat="62.633447594161" lon="17.971486615492">
        <ele>58</ele>
        <time>2018-01-29T18:37:28Z</time>
      </trkpt>
      <trkpt lat="62.633445498686" lon="17.971533637951">
        <ele>58.2</ele>
        <time>2018-01-29T18:37:29Z</time>
      </trkpt>
      <trkpt lat="62.63344181065" lon="17.971590551052">
        <ele>58.4</ele>
        <time>2018-01-29T18:37:30Z</time>
      </trkpt>
      <trkpt lat="62.633436697691" lon="17.97164184828">
        <ele>58.4</ele>
        <time>2018-01-29T18:37:31Z</time>
      </trkpt>
      <trkpt lat="62.633430411266" lon="17.971697085001">
        <ele>58.6</ele>
        <time>2018-01-29T18:37:32Z</time>
      </trkpt>
      <trkpt lat="62.633425130669" lon="17.971747124944">
        <ele>58.6</ele>
        <time>2018-01-29T18:37:33Z</time>
      </trkpt>
      <trkpt lat="62.633420436805" lon="17.97179858981">
        <ele>58.8</ele>
        <time>2018-01-29T18:37:34Z</time>
      </trkpt>
      <trkpt lat="62.633415491484" lon="17.971852736884">
        <ele>58.8</ele>
        <time>2018-01-29T18:37:35Z</time>
      </trkpt>
      <trkpt lat="62.633411468172" lon="17.971909985261">
        <ele>59</ele>
        <time>2018-01-29T18:37:36Z</time>
      </trkpt>
      <trkpt lat="62.633405097928" lon="17.971963461783">
        <ele>59</ele>
        <time>2018-01-29T18:37:37Z</time>
      </trkpt>
      <trkpt lat="62.633398476227" lon="17.972013250269">
        <ele>59</ele>
        <time>2018-01-29T18:37:38Z</time>
      </trkpt>
      <trkpt lat="62.633391435431" lon="17.972063876945">
        <ele>59</ele>
        <time>2018-01-29T18:37:39Z</time>
      </trkpt>
      <trkpt lat="62.63338397554" lon="17.972118107838">
        <ele>59</ele>
        <time>2018-01-29T18:37:40Z</time>
      </trkpt>
      <trkpt lat="62.63337727002" lon="17.972164962659">
        <ele>59</ele>
        <time>2018-01-29T18:37:41Z</time>
      </trkpt>
      <trkpt lat="62.633368636663" lon="17.972217852448">
        <ele>58.8</ele>
        <time>2018-01-29T18:37:42Z</time>
      </trkpt>
      <trkpt lat="62.633360338582" lon="17.972270323142">
        <ele>59</ele>
        <time>2018-01-29T18:37:43Z</time>
      </trkpt>
      <trkpt lat="62.633353549243" lon="17.972320865999">
        <ele>59</ele>
        <time>2018-01-29T18:37:44Z</time>
      </trkpt>
      <trkpt lat="62.633347514275" lon="17.972377024729">
        <ele>59.4</ele>
        <time>2018-01-29T18:37:45Z</time>
      </trkpt>
      <trkpt lat="62.633342401316" lon="17.972426729396">
        <ele>59.4</ele>
        <time>2018-01-29T18:37:46Z</time>
      </trkpt>
      <trkpt lat="62.633334187054" lon="17.972474925321">
        <ele>59.6</ele>
        <time>2018-01-29T18:37:47Z</time>
      </trkpt>
      <trkpt lat="62.633324128774" lon="17.972524965264">
        <ele>59.6</ele>
        <time>2018-01-29T18:37:48Z</time>
      </trkpt>
      <trkpt lat="62.633315327779" lon="17.972571652447">
        <ele>59.8</ele>
        <time>2018-01-29T18:37:49Z</time>
      </trkpt>
      <trkpt lat="62.633305018042" lon="17.972628984643">
        <ele>60</ele>
        <time>2018-01-29T18:37:50Z</time>
      </trkpt>
      <trkpt lat="62.633297809608" lon="17.972673241075">
        <ele>59.8</ele>
        <time>2018-01-29T18:37:51Z</time>
      </trkpt>
      <trkpt lat="62.633286661681" lon="17.972724286846">
        <ele>59.8</ele>
        <time>2018-01-29T18:37:52Z</time>
      </trkpt>
      <trkpt lat="62.633277273953" lon="17.972769381468">
        <ele>60</ele>
        <time>2018-01-29T18:37:53Z</time>
      </trkpt>
      <trkpt lat="62.633267718587" lon="17.972816403927">
        <ele>60</ele>
        <time>2018-01-29T18:37:54Z</time>
      </trkpt>
      <trkpt lat="62.633255481013" lon="17.972868706983">
        <ele>60.2</ele>
        <time>2018-01-29T18:37:55Z</time>
      </trkpt>
      <trkpt lat="62.633246177104" lon="17.972913131053">
        <ele>60.2</ele>
        <time>2018-01-29T18:37:56Z</time>
      </trkpt>
      <trkpt lat="62.633236286462" lon="17.972958980046">
        <ele>60.4</ele>
        <time>2018-01-29T18:37:57Z</time>
      </trkpt>
      <trkpt lat="62.633224216526" lon="17.973009103808">
        <ele>60.4</ele>
        <time>2018-01-29T18:37:58Z</time>
      </trkpt>
      <trkpt lat="62.633216253721" lon="17.973051097127">
        <ele>60.4</ele>
        <time>2018-01-29T18:37:59Z</time>
      </trkpt>
      <trkpt lat="62.633203513233" lon="17.973104741287">
        <ele>60.4</ele>
        <time>2018-01-29T18:38:00Z</time>
      </trkpt>
      <trkpt lat="62.633192952039" lon="17.973154194497">
        <ele>60.6</ele>
        <time>2018-01-29T18:38:01Z</time>
      </trkpt>
      <trkpt lat="62.633183061397" lon="17.973202055146">
        <ele>60.6</ele>
        <time>2018-01-29T18:38:02Z</time>
      </trkpt>
      <trkpt lat="62.633171410556" lon="17.973248071777">
        <ele>60.4</ele>
        <time>2018-01-29T18:38:03Z</time>
      </trkpt>
      <trkpt lat="62.63316269338" lon="17.973289562182">
        <ele>60.6</ele>
        <time>2018-01-29T18:38:04Z</time>
      </trkpt>
      <trkpt lat="62.633152802738" lon="17.973333986252">
        <ele>60.6</ele>
        <time>2018-01-29T18:38:05Z</time>
      </trkpt>
      <trkpt lat="62.633139307879" lon="17.973382601272">
        <ele>60.6</ele>
        <time>2018-01-29T18:38:06Z</time>
      </trkpt>
      <trkpt lat="62.633130087789" lon="17.973426270971">
        <ele>60.6</ele>
        <time>2018-01-29T18:38:07Z</time>
      </trkpt>
      <trkpt lat="62.633119610414" lon="17.973474299258">
        <ele>60.8</ele>
        <time>2018-01-29T18:38:08Z</time>
      </trkpt>
      <trkpt lat="62.633108881582" lon="17.973517801319">
        <ele>60.8</ele>
        <time>2018-01-29T18:38:09Z</time>
      </trkpt>
      <trkpt lat="62.633096224913" lon="17.973564823778">
        <ele>60.8</ele>
        <time>2018-01-29T18:38:10Z</time>
      </trkpt>
      <trkpt lat="62.633085160805" lon="17.973609666943">
        <ele>60.8</ele>
        <time>2018-01-29T18:38:11Z</time>
      </trkpt>
      <trkpt lat="62.63307384524" lon="17.973656437945">
        <ele>60.8</ele>
        <time>2018-01-29T18:38:12Z</time>
      </trkpt>
      <trkpt lat="62.633061942942" lon="17.973704214775">
        <ele>61</ele>
        <time>2018-01-29T18:38:13Z</time>
      </trkpt>
      <trkpt lat="62.63305037592" lon="17.973746711008">
        <ele>61</ele>
        <time>2018-01-29T18:38:14Z</time>
      </trkpt>
      <trkpt lat="62.633038976536" lon="17.973791218897">
        <ele>61</ele>
        <time>2018-01-29T18:38:15Z</time>
      </trkpt>
      <trkpt lat="62.633027241876" lon="17.973840923564">
        <ele>61</ele>
        <time>2018-01-29T18:38:16Z</time>
      </trkpt>
      <trkpt lat="62.633015674854" lon="17.973887024014">
        <ele>61.2</ele>
        <time>2018-01-29T18:38:17Z</time>
      </trkpt>
      <trkpt lat="62.633004191651" lon="17.973938321242">
        <ele>61.4</ele>
        <time>2018-01-29T18:38:18Z</time>
      </trkpt>
      <trkpt lat="62.632992289353" lon="17.973984673149">
        <ele>61.6</ele>
        <time>2018-01-29T18:38:19Z</time>
      </trkpt>
      <trkpt lat="62.63297996796" lon="17.974035802739">
        <ele>61.6</ele>
        <time>2018-01-29T18:38:20Z</time>
      </trkpt>
      <trkpt lat="62.632967143653" lon="17.974084753035">
        <ele>62</ele>
        <time>2018-01-29T18:38:21Z</time>
      </trkpt>
      <trkpt lat="62.63295398407" lon="17.974135295892">
        <ele>62.2</ele>
        <time>2018-01-29T18:38:22Z</time>
      </trkpt>
      <trkpt lat="62.632944093428" lon="17.974178295039">
        <ele>62.2</ele>
        <time>2018-01-29T18:38:23Z</time>
      </trkpt>
      <trkpt lat="62.632931520578" lon="17.974228167344">
        <ele>62.4</ele>
        <time>2018-01-29T18:38:24Z</time>
      </trkpt>
      <trkpt lat="62.632919534461" lon="17.974277452916">
        <ele>62.4</ele>
        <time>2018-01-29T18:38:25Z</time>
      </trkpt>
      <trkpt lat="62.632908051258" lon="17.974327241402">
        <ele>62.4</ele>
        <time>2018-01-29T18:38:26Z</time>
      </trkpt>
      <trkpt lat="62.632894724037" lon="17.974375940241">
        <ele>62.2</ele>
        <time>2018-01-29T18:38:27Z</time>
      </trkpt>
      <trkpt lat="62.632876702952" lon="17.974424974356">
        <ele>62.2</ele>
        <time>2018-01-29T18:38:28Z</time>
      </trkpt>
      <trkpt lat="62.632856251116" lon="17.974462189992">
        <ele>62</ele>
        <time>2018-01-29T18:38:29Z</time>
      </trkpt>
      <trkpt lat="62.632829177579" lon="17.974500327637">
        <ele>62</ele>
        <time>2018-01-29T18:38:30Z</time>
      </trkpt>
      <trkpt lat="62.632804115698" lon="17.974520947111">
        <ele>61.6</ele>
        <time>2018-01-29T18:38:31Z</time>
      </trkpt>
      <trkpt lat="62.632775114324" lon="17.974526143889">
        <ele>61.6</ele>
        <time>2018-01-29T18:38:32Z</time>
      </trkpt>
      <trkpt lat="62.63274946571" lon="17.974524970423">
        <ele>61.6</ele>
        <time>2018-01-29T18:38:33Z</time>
      </trkpt>
      <trkpt lat="62.632726080209" lon="17.974514157772">
        <ele>61.8</ele>
        <time>2018-01-29T18:38:34Z</time>
      </trkpt>
      <trkpt lat="62.632700347776" lon="17.974488592977">
        <ele>61.8</ele>
        <time>2018-01-29T18:38:35Z</time>
      </trkpt>
      <trkpt lat="62.632679141569" lon="17.97445900487">
        <ele>61.8</ele>
        <time>2018-01-29T18:38:36Z</time>
      </trkpt>
      <trkpt lat="62.632658438276" lon="17.974429249125">
        <ele>62</ele>
        <time>2018-01-29T18:38:37Z</time>
      </trkpt>
      <trkpt lat="62.632634046947" lon="17.974400163932">
        <ele>62.2</ele>
        <time>2018-01-29T18:38:38Z</time>
      </trkpt>
      <trkpt lat="62.632612170188" lon="17.97437937682">
        <ele>62.4</ele>
        <time>2018-01-29T18:38:39Z</time>
      </trkpt>
      <trkpt lat="62.632591299257" lon="17.974357080966">
        <ele>62.4</ele>
        <time>2018-01-29T18:38:40Z</time>
      </trkpt>
      <trkpt lat="62.632571434154" lon="17.974332941094">
        <ele>62.6</ele>
        <time>2018-01-29T18:38:41Z</time>
      </trkpt>
      <trkpt lat="62.632547797196" lon="17.974307711575">
        <ele>62.6</ele>
        <time>2018-01-29T18:38:42Z</time>
      </trkpt>
      <trkpt lat="62.632524244057" lon="17.974277704373">
        <ele>62.6</ele>
        <time>2018-01-29T18:38:43Z</time>
      </trkpt>
      <trkpt lat="62.632503540764" lon="17.974253313044">
        <ele>62.8</ele>
        <time>2018-01-29T18:38:44Z</time>
      </trkpt>
      <trkpt lat="62.632478227426" lon="17.974231771561">
        <ele>62.6</ele>
        <time>2018-01-29T18:38:45Z</time>
      </trkpt>
      <trkpt lat="62.632455596296" lon="17.974208134603">
        <ele>62.6</ele>
        <time>2018-01-29T18:38:46Z</time>
      </trkpt>
      <trkpt lat="62.632436401745" lon="17.97418659312">
        <ele>62.6</ele>
        <time>2018-01-29T18:38:47Z</time>
      </trkpt>
      <trkpt lat="62.632413267701" lon="17.974164464904">
        <ele>62.6</ele>
        <time>2018-01-29T18:38:48Z</time>
      </trkpt>
      <trkpt lat="62.632393570236" lon="17.974145857086">
        <ele>62.6</ele>
        <time>2018-01-29T18:38:49Z</time>
      </trkpt>
      <trkpt lat="62.63237228021" lon="17.974123142137">
        <ele>62.6</ele>
        <time>2018-01-29T18:38:50Z</time>
      </trkpt>
      <trkpt lat="62.632351241641" lon="17.974100930102">
        <ele>62.6</ele>
        <time>2018-01-29T18:38:51Z</time>
      </trkpt>
      <trkpt lat="62.632328191416" lon="17.974069414158">
        <ele>62.6</ele>
        <time>2018-01-29T18:38:52Z</time>
      </trkpt>
      <trkpt lat="62.632306230838" lon="17.974041502431">
        <ele>62.6</ele>
        <time>2018-01-29T18:38:53Z</time>
      </trkpt>
      <trkpt lat="62.632281588052" lon="17.974020966776">
        <ele>62.8</ele>
        <time>2018-01-29T18:38:54Z</time>
      </trkpt>
      <trkpt lat="62.63225409542" lon="17.973996072533">
        <ele>62.8</ele>
        <time>2018-01-29T18:38:55Z</time>
      </trkpt>
      <trkpt lat="62.632230039367" lon="17.973975536878">
        <ele>62.8</ele>
        <time>2018-01-29T18:38:56Z</time>
      </trkpt>
      <trkpt lat="62.632207743513" lon="17.973953492481">
        <ele>62.8</ele>
        <time>2018-01-29T18:38:57Z</time>
      </trkpt>
      <trkpt lat="62.632181340528" lon="17.973925496935">
        <ele>62.8</ele>
        <time>2018-01-29T18:38:58Z</time>
      </trkpt>
      <trkpt lat="62.632160385778" lon="17.973904206909">
        <ele>62.8</ele>
        <time>2018-01-29T18:38:59Z</time>
      </trkpt>
      <trkpt lat="62.632133479879" lon="17.973875121716">
        <ele>62.8</ele>
        <time>2018-01-29T18:39:00Z</time>
      </trkpt>
      <trkpt lat="62.632110262016" lon="17.973847880541">
        <ele>62.6</ele>
        <time>2018-01-29T18:39:01Z</time>
      </trkpt>
      <trkpt lat="62.632088469076" lon="17.973824159764">
        <ele>62.4</ele>
        <time>2018-01-29T18:39:02Z</time>
      </trkpt>
      <trkpt lat="62.632065837946" lon="17.97379599658">
        <ele>62.4</ele>
        <time>2018-01-29T18:39:03Z</time>
      </trkpt>
      <trkpt lat="62.632043290635" lon="17.97376833631">
        <ele>62.4</ele>
        <time>2018-01-29T18:39:04Z</time>
      </trkpt>
      <trkpt lat="62.632019234582" lon="17.973744280257">
        <ele>62.4</ele>
        <time>2018-01-29T18:39:05Z</time>
      </trkpt>
      <trkpt lat="62.631993753606" lon="17.973717039082">
        <ele>62.4</ele>
        <time>2018-01-29T18:39:06Z</time>
      </trkpt>
      <trkpt lat="62.631967769716" lon="17.973693150667">
        <ele>62.6</ele>
        <time>2018-01-29T18:39:07Z</time>
      </trkpt>
      <trkpt lat="62.631943546025" lon="17.973669765166">
        <ele>62.6</ele>
        <time>2018-01-29T18:39:08Z</time>
      </trkpt>
      <trkpt lat="62.631918232687" lon="17.973643194543">
        <ele>62.4</ele>
        <time>2018-01-29T18:39:09Z</time>
      </trkpt>
      <trkpt lat="62.631892248797" lon="17.973615366635">
        <ele>62.4</ele>
        <time>2018-01-29T18:39:10Z</time>
      </trkpt>
      <trkpt lat="62.631869701486" lon="17.973590556211">
        <ele>62.6</ele>
        <time>2018-01-29T18:39:11Z</time>
      </trkpt>
      <trkpt lat="62.631843717596" lon="17.973559459362">
        <ele>62.6</ele>
        <time>2018-01-29T18:39:12Z</time>
      </trkpt>
      <trkpt lat="62.631817901344" lon="17.973526769952">
        <ele>62.6</ele>
        <time>2018-01-29T18:39:13Z</time>
      </trkpt>
      <trkpt lat="62.631794012929" lon="17.973498942044">
        <ele>62.6</ele>
        <time>2018-01-29T18:39:14Z</time>
      </trkpt>
      <trkpt lat="62.631765849745" lon="17.973463486607">
        <ele>62.6</ele>
        <time>2018-01-29T18:39:15Z</time>
      </trkpt>
      <trkpt lat="62.631740536407" lon="17.97343138393">
        <ele>62.6</ele>
        <time>2018-01-29T18:39:16Z</time>
      </trkpt>
      <trkpt lat="62.631715558345" lon="17.973396263769">
        <ele>62.6</ele>
        <time>2018-01-29T18:39:17Z</time>
      </trkpt>
      <trkpt lat="62.631691502292" lon="17.973352929346">
        <ele>62.4</ele>
        <time>2018-01-29T18:39:18Z</time>
      </trkpt>
      <trkpt lat="62.631672056284" lon="17.973308672914">
        <ele>62.4</ele>
        <time>2018-01-29T18:39:19Z</time>
      </trkpt>
      <trkpt lat="62.631650263344" lon="17.973257459505">
        <ele>62.6</ele>
        <time>2018-01-29T18:39:20Z</time>
      </trkpt>
      <trkpt lat="62.631627799852" lon="17.973209012123">
        <ele>62.4</ele>
        <time>2018-01-29T18:39:21Z</time>
      </trkpt>
      <trkpt lat="62.631603911437" lon="17.973169533374">
        <ele>62.4</ele>
        <time>2018-01-29T18:39:22Z</time>
      </trkpt>
      <trkpt lat="62.631581280307" lon="17.973124857847">
        <ele>62.2</ele>
        <time>2018-01-29T18:39:23Z</time>
      </trkpt>
      <trkpt lat="62.631556888978" lon="17.973068866755">
        <ele>62.2</ele>
        <time>2018-01-29T18:39:24Z</time>
      </trkpt>
      <trkpt lat="62.631529144889" lon="17.97301312712">
        <ele>62</ele>
        <time>2018-01-29T18:39:25Z</time>
      </trkpt>
      <trkpt lat="62.631507519587" lon="17.972955208191">
        <ele>61.8</ele>
        <time>2018-01-29T18:39:26Z</time>
      </trkpt>
      <trkpt lat="62.631487654484" lon="17.972898211271">
        <ele>61.4</ele>
        <time>2018-01-29T18:39:27Z</time>
      </trkpt>
      <trkpt lat="62.631463346974" lon="17.972832748632">
        <ele>61.4</ele>
        <time>2018-01-29T18:39:28Z</time>
      </trkpt>
      <trkpt lat="62.631440380568" lon="17.972778182463">
        <ele>61.2</ele>
        <time>2018-01-29T18:39:29Z</time>
      </trkpt>
      <trkpt lat="62.631412636479" lon="17.972711713996">
        <ele>61</ele>
        <time>2018-01-29T18:39:30Z</time>
      </trkpt>
      <trkpt lat="62.631392352281" lon="17.972654549438">
        <ele>60.8</ele>
        <time>2018-01-29T18:39:31Z</time>
      </trkpt>
      <trkpt lat="62.631374247377" lon="17.972601324373">
        <ele>60.6</ele>
        <time>2018-01-29T18:39:32Z</time>
      </trkpt>
      <trkpt lat="62.631355304283" lon="17.972550194783">
        <ele>60.4</ele>
        <time>2018-01-29T18:39:33Z</time>
      </trkpt>
      <trkpt lat="62.631330745316" lon="17.972499819564">
        <ele>60</ele>
        <time>2018-01-29T18:39:34Z</time>
      </trkpt>
      <trkpt lat="62.631307695091" lon="17.972442403549">
        <ele>60</ele>
        <time>2018-01-29T18:39:35Z</time>
      </trkpt>
      <trkpt lat="62.631285734513" lon="17.972373169055">
        <ele>59.8</ele>
        <time>2018-01-29T18:39:36Z</time>
      </trkpt>
      <trkpt lat="62.63126503122" lon="17.972311226814">
        <ele>59.6</ele>
        <time>2018-01-29T18:39:37Z</time>
      </trkpt>
      <trkpt lat="62.631247345411" lon="17.972247272917">
        <ele>59.4</ele>
        <time>2018-01-29T18:39:38Z</time>
      </trkpt>
      <trkpt lat="62.631230749249" lon="17.972188012884">
        <ele>59.4</ele>
        <time>2018-01-29T18:39:39Z</time>
      </trkpt>
      <trkpt lat="62.63120971068" lon="17.972122466426">
        <ele>59.2</ele>
        <time>2018-01-29T18:39:40Z</time>
      </trkpt>
      <trkpt lat="62.631190599948" lon="17.972060021271">
        <ele>59</ele>
        <time>2018-01-29T18:39:41Z</time>
      </trkpt>
      <trkpt lat="62.631172997958" lon="17.971996235012">
        <ele>58.6</ele>
        <time>2018-01-29T18:39:42Z</time>
      </trkpt>
      <trkpt lat="62.631153468131" lon="17.971929012174">
        <ele>58.4</ele>
        <time>2018-01-29T18:39:43Z</time>
      </trkpt>
      <trkpt lat="62.63113762634" lon="17.971858771852">
        <ele>58.2</ele>
        <time>2018-01-29T18:39:44Z</time>
      </trkpt>
      <trkpt lat="62.631121616911" lon="17.971785681684">
        <ele>58</ele>
        <time>2018-01-29T18:39:45Z</time>
      </trkpt>
      <trkpt lat="62.631104685473" lon="17.971714854629">
        <ele>57.8</ele>
        <time>2018-01-29T18:39:46Z</time>
      </trkpt>
      <trkpt lat="62.63109320227" lon="17.971651236008">
        <ele>57.6</ele>
        <time>2018-01-29T18:39:47Z</time>
      </trkpt>
      <trkpt lat="62.631081635248" lon="17.971576134184">
        <ele>57.6</ele>
        <time>2018-01-29T18:39:48Z</time>
      </trkpt>
      <trkpt lat="62.631071325511" lon="17.971506480595">
        <ele>57.4</ele>
        <time>2018-01-29T18:39:49Z</time>
      </trkpt>
      <trkpt lat="62.631058333566" lon="17.971432049323">
        <ele>57.4</ele>
        <time>2018-01-29T18:39:50Z</time>
      </trkpt>
      <trkpt lat="62.631043916698" lon="17.971358372422">
        <ele>57.2</ele>
        <time>2018-01-29T18:39:51Z</time>
      </trkpt>
      <trkpt lat="62.631030002744" lon="17.971286036625">
        <ele>57.2</ele>
        <time>2018-01-29T18:39:52Z</time>
      </trkpt>
      <trkpt lat="62.631019106274" lon="17.97122023871">
        <ele>57.2</ele>
        <time>2018-01-29T18:39:53Z</time>
      </trkpt>
      <trkpt lat="62.631008125985" lon="17.971144717791">
        <ele>57</ele>
        <time>2018-01-29T18:39:54Z</time>
      </trkpt>
      <trkpt lat="62.630996558963" lon="17.971083278464">
        <ele>56.8</ele>
        <time>2018-01-29T18:39:55Z</time>
      </trkpt>
      <trkpt lat="62.630986668321" lon="17.970991748116">
        <ele>56.8</ele>
        <time>2018-01-29T18:39:56Z</time>
      </trkpt>
      <trkpt lat="62.630979543706" lon="17.970922094527">
        <ele>56.8</ele>
        <time>2018-01-29T18:39:57Z</time>
      </trkpt>
      <trkpt lat="62.630964623924" lon="17.970843388486">
        <ele>56.6</ele>
        <time>2018-01-29T18:39:58Z</time>
      </trkpt>
      <trkpt lat="62.63095238635" lon="17.970774992182">
        <ele>56.4</ele>
        <time>2018-01-29T18:39:59Z</time>
      </trkpt>
      <trkpt lat="62.630940819328" lon="17.97069636996">
        <ele>56.4</ele>
        <time>2018-01-29T18:40:00Z</time>
      </trkpt>
      <trkpt lat="62.63093310798" lon="17.97061925648">
        <ele>56.4</ele>
        <time>2018-01-29T18:40:01Z</time>
      </trkpt>
      <trkpt lat="62.630929168487" lon="17.970549099977">
        <ele>56.4</ele>
        <time>2018-01-29T18:40:02Z</time>
      </trkpt>
      <trkpt lat="62.630928749392" lon="17.970481541863">
        <ele>56.2</ele>
        <time>2018-01-29T18:40:03Z</time>
      </trkpt>
      <trkpt lat="62.630930258134" lon="17.970416498319">
        <ele>56.2</ele>
        <time>2018-01-29T18:40:04Z</time>
      </trkpt>
      <trkpt lat="62.630930509591" lon="17.970347180006">
        <ele>56</ele>
        <time>2018-01-29T18:40:05Z</time>
      </trkpt>
      <trkpt lat="62.630935538731" lon="17.970238885858">
        <ele>55.4</ele>
        <time>2018-01-29T18:40:07Z</time>
      </trkpt>
      <trkpt lat="62.630937969482" lon="17.970207034638">
        <ele>55.4</ele>
        <time>2018-01-29T18:40:08Z</time>
      </trkpt>
      <trkpt lat="62.630939645862" lon="17.970183816775">
        <ele>55.4</ele>
        <time>2018-01-29T18:40:09Z</time>
      </trkpt>
      <trkpt lat="62.630942998622" lon="17.970162359111">
        <ele>55.4</ele>
        <time>2018-01-29T18:40:10Z</time>
      </trkpt>
      <trkpt lat="62.630947021934" lon="17.970153474297">
        <ele>55.4</ele>
        <time>2018-01-29T18:40:11Z</time>
      </trkpt>
      <trkpt lat="62.630947608667" lon="17.970157162333">
        <ele>55.4</ele>
        <time>2018-01-29T18:40:12Z</time>
      </trkpt>
      <trkpt lat="62.631214236906" lon="17.970059094103">
        <ele>54.6</ele>
        <time>2018-01-29T18:42:23Z</time>
      </trkpt>
      <trkpt lat="62.631249608524" lon="17.970032858756">
        <ele>54.4</ele>
        <time>2018-01-29T18:42:24Z</time>
      </trkpt>
      <trkpt lat="62.631285734513" lon="17.970007796875">
        <ele>54.4</ele>
        <time>2018-01-29T18:42:25Z</time>
      </trkpt>
      <trkpt lat="62.631321441407" lon="17.969983405546">
        <ele>54.4</ele>
        <time>2018-01-29T18:42:26Z</time>
      </trkpt>
      <trkpt lat="62.631356226292" lon="17.969959433312">
        <ele>54.2</ele>
        <time>2018-01-29T18:42:27Z</time>
      </trkpt>
      <trkpt lat="62.631392771376" lon="17.969935796354">
        <ele>54.2</ele>
        <time>2018-01-29T18:42:28Z</time>
      </trkpt>
      <trkpt lat="62.631426047519" lon="17.969915512156">
        <ele>54.2</ele>
        <time>2018-01-29T18:42:29Z</time>
      </trkpt>
      <trkpt lat="62.631464017526" lon="17.969892881026">
        <ele>54.2</ele>
        <time>2018-01-29T18:42:30Z</time>
      </trkpt>
      <trkpt lat="62.631501987533" lon="17.969873351199">
        <ele>54.4</ele>
        <time>2018-01-29T18:42:31Z</time>
      </trkpt>
      <trkpt lat="62.631534257848" lon="17.969851390621">
        <ele>54.4</ele>
        <time>2018-01-29T18:42:32Z</time>
      </trkpt>
      <trkpt lat="62.631570886751" lon="17.96982800512">
        <ele>54.4</ele>
        <time>2018-01-29T18:42:33Z</time>
      </trkpt>
      <trkpt lat="62.631603073247" lon="17.969806463637">
        <ele>54.4</ele>
        <time>2018-01-29T18:42:34Z</time>
      </trkpt>
      <trkpt lat="62.631635678838" lon="17.969784251602">
        <ele>54.2</ele>
        <time>2018-01-29T18:42:35Z</time>
      </trkpt>
      <trkpt lat="62.631670296085" lon="17.969760279368">
        <ele>54</ele>
        <time>2018-01-29T18:42:36Z</time>
      </trkpt>
      <trkpt lat="62.631701057658" lon="17.969730858899">
        <ele>53.6</ele>
        <time>2018-01-29T18:42:37Z</time>
      </trkpt>
      <trkpt lat="62.631731400136" lon="17.969697079842">
        <ele>53.4</ele>
        <time>2018-01-29T18:42:38Z</time>
      </trkpt>
      <trkpt lat="62.631758138397" lon="17.969658774559">
        <ele>53.4</ele>
        <time>2018-01-29T18:42:39Z</time>
      </trkpt>
      <trkpt lat="62.631787307409" lon="17.969624157312">
        <ele>53.2</ele>
        <time>2018-01-29T18:42:40Z</time>
      </trkpt>
      <trkpt lat="62.631819577724" lon="17.969604711304">
        <ele>53.2</ele>
        <time>2018-01-29T18:42:41Z</time>
      </trkpt>
      <trkpt lat="62.631854697885" lon="17.969583840373">
        <ele>53.2</ele>
        <time>2018-01-29T18:42:42Z</time>
      </trkpt>
      <trkpt lat="62.631889063675" lon="17.969575374654">
        <ele>53.2</ele>
        <time>2018-01-29T18:42:43Z</time>
      </trkpt>
      <trkpt lat="62.631918987058" lon="17.969573362998">
        <ele>53.2</ele>
        <time>2018-01-29T18:42:44Z</time>
      </trkpt>
      <trkpt lat="62.631954945409" lon="17.969575626111">
        <ele>53.2</ele>
        <time>2018-01-29T18:42:45Z</time>
      </trkpt>
      <trkpt lat="62.631987802457" lon="17.969573865912">
        <ele>53.2</ele>
        <time>2018-01-29T18:42:46Z</time>
      </trkpt>
      <trkpt lat="62.632015798003" lon="17.969570429333">
        <ele>53</ele>
        <time>2018-01-29T18:42:47Z</time>
      </trkpt>
      <trkpt lat="62.632049996155" lon="17.969566573659">
        <ele>53</ele>
        <time>2018-01-29T18:42:48Z</time>
      </trkpt>
      <trkpt lat="62.632081009185" lon="17.96955559337">
        <ele>53.2</ele>
        <time>2018-01-29T18:42:49Z</time>
      </trkpt>
      <trkpt lat="62.632114033871" lon="17.969545870366">
        <ele>53.2</ele>
        <time>2018-01-29T18:42:50Z</time>
      </trkpt>
      <trkpt lat="62.632144124892" lon="17.969533046059">
        <ele>53.4</ele>
        <time>2018-01-29T18:42:51Z</time>
      </trkpt>
      <trkpt lat="62.632177401035" lon="17.969519886476">
        <ele>53.4</ele>
        <time>2018-01-29T18:42:52Z</time>
      </trkpt>
      <trkpt lat="62.632206737685" lon="17.969510079653">
        <ele>53.4</ele>
        <time>2018-01-29T18:42:53Z</time>
      </trkpt>
      <trkpt lat="62.63223984619" lon="17.969503206495">
        <ele>53.6</ele>
        <time>2018-01-29T18:42:54Z</time>
      </trkpt>
      <trkpt lat="62.632275469265" lon="17.969498009717">
        <ele>53.6</ele>
        <time>2018-01-29T18:42:55Z</time>
      </trkpt>
      <trkpt lat="62.632308996865" lon="17.969495578966">
        <ele>53.6</ele>
        <time>2018-01-29T18:42:56Z</time>
      </trkpt>
      <trkpt lat="62.632338501153" lon="17.969497339165">
        <ele>53.6</ele>
        <time>2018-01-29T18:42:57Z</time>
      </trkpt>
      <trkpt lat="62.63236976564" lon="17.96949524369">
        <ele>53.6</ele>
        <time>2018-01-29T18:42:58Z</time>
      </trkpt>
      <trkpt lat="62.632399689023" lon="17.969496333337">
        <ele>53.6</ele>
        <time>2018-01-29T18:42:59Z</time>
      </trkpt>
      <trkpt lat="62.632433216623" lon="17.969495998061">
        <ele>53.6</ele>
        <time>2018-01-29T18:43:00Z</time>
      </trkpt>
      <trkpt lat="62.632464732567" lon="17.96949524369">
        <ele>53.6</ele>
        <time>2018-01-29T18:43:01Z</time>
      </trkpt>
      <trkpt lat="62.632494572131" lon="17.969496836251">
        <ele>53.6</ele>
        <time>2018-01-29T18:43:02Z</time>
      </trkpt>
      <trkpt lat="62.632528686464" lon="17.969497171527">
        <ele>53.6</ele>
        <time>2018-01-29T18:43:03Z</time>
      </trkpt>
      <trkpt lat="62.632561208236" lon="17.969500105192">
        <ele>53.8</ele>
        <time>2018-01-29T18:43:04Z</time>
      </trkpt>
      <trkpt lat="62.632591466895" lon="17.969501027201">
        <ele>53.8</ele>
        <time>2018-01-29T18:43:05Z</time>
      </trkpt>
      <trkpt lat="62.632623653391" lon="17.969509409101">
        <ele>53.8</ele>
        <time>2018-01-29T18:43:06Z</time>
      </trkpt>
      <trkpt lat="62.632653660593" lon="17.969516114621">
        <ele>53.6</ele>
        <time>2018-01-29T18:43:07Z</time>
      </trkpt>
      <trkpt lat="62.632683751614" lon="17.969518880648">
        <ele>53.6</ele>
        <time>2018-01-29T18:43:08Z</time>
      </trkpt>
      <trkpt lat="62.632713674997" lon="17.96952038939">
        <ele>53.6</ele>
        <time>2018-01-29T18:43:09Z</time>
      </trkpt>
      <trkpt lat="62.632744939484" lon="17.969519048286">
        <ele>53.6</ele>
        <time>2018-01-29T18:43:10Z</time>
      </trkpt>
      <trkpt lat="62.632774443772" lon="17.969526005263">
        <ele>53.4</ele>
        <time>2018-01-29T18:43:11Z</time>
      </trkpt>
      <trkpt lat="62.632806211173" lon="17.969533632792">
        <ele>53.4</ele>
        <time>2018-01-29T18:43:12Z</time>
      </trkpt>
      <trkpt lat="62.632834793452" lon="17.969527597824">
        <ele>53.6</ele>
        <time>2018-01-29T18:43:13Z</time>
      </trkpt>
      <trkpt lat="62.632864213921" lon="17.969530196213">
        <ele>53.8</ele>
        <time>2018-01-29T18:43:14Z</time>
      </trkpt>
      <trkpt lat="62.632894724037" lon="17.969532626964">
        <ele>53.6</ele>
        <time>2018-01-29T18:43:15Z</time>
      </trkpt>
      <trkpt lat="62.632928167818" lon="17.969539081027">
        <ele>53.8</ele>
        <time>2018-01-29T18:43:16Z</time>
      </trkpt>
      <trkpt lat="62.63295314588" lon="17.969542517606">
        <ele>53.8</ele>
        <time>2018-01-29T18:43:17Z</time>
      </trkpt>
      <trkpt lat="62.632985667652" lon="17.969553330257">
        <ele>53.8</ele>
        <time>2018-01-29T18:43:18Z</time>
      </trkpt>
      <trkpt lat="62.633014417569" lon="17.969565567831">
        <ele>53.8</ele>
        <time>2018-01-29T18:43:19Z</time>
      </trkpt>
      <trkpt lat="62.633045011504" lon="17.969579314147">
        <ele>54</ele>
        <time>2018-01-29T18:43:20Z</time>
      </trkpt>
      <trkpt lat="62.633077784733" lon="17.969590545893">
        <ele>54</ele>
        <time>2018-01-29T18:43:21Z</time>
      </trkpt>
      <trkpt lat="62.633106702288" lon="17.969600268897">
        <ele>54.2</ele>
        <time>2018-01-29T18:43:22Z</time>
      </trkpt>
      <trkpt lat="62.633137296223" lon="17.969612757928">
        <ele>54.2</ele>
        <time>2018-01-29T18:43:23Z</time>
      </trkpt>
      <trkpt lat="62.633166716692" lon="17.969626923339">
        <ele>54</ele>
        <time>2018-01-29T18:43:24Z</time>
      </trkpt>
      <trkpt lat="62.633199406102" lon="17.969640753474">
        <ele>54.2</ele>
        <time>2018-01-29T18:43:25Z</time>
      </trkpt>
      <trkpt lat="62.633232179331" lon="17.969655170342">
        <ele>54.2</ele>
        <time>2018-01-29T18:43:26Z</time>
      </trkpt>
      <trkpt lat="62.63326243799" lon="17.969667240278">
        <ele>54.4</ele>
        <time>2018-01-29T18:43:27Z</time>
      </trkpt>
      <trkpt lat="62.633292780468" lon="17.969692050702">
        <ele>54.4</ele>
        <time>2018-01-29T18:43:28Z</time>
      </trkpt>
      <trkpt lat="62.63331356758" lon="17.96972323137">
        <ele>54.4</ele>
        <time>2018-01-29T18:43:29Z</time>
      </trkpt>
      <trkpt lat="62.633338294185" lon="17.969772014028">
        <ele>54.4</ele>
        <time>2018-01-29T18:43:30Z</time>
      </trkpt>
      <trkpt lat="62.633357824012" lon="17.969819455582">
        <ele>54.6</ele>
        <time>2018-01-29T18:43:31Z</time>
      </trkpt>
      <trkpt lat="62.633375677459" lon="17.969867148593">
        <ele>54.8</ele>
        <time>2018-01-29T18:43:32Z</time>
      </trkpt>
      <trkpt lat="62.63339319563" lon="17.969924313151">
        <ele>54.8</ele>
        <time>2018-01-29T18:43:33Z</time>
      </trkpt>
      <trkpt lat="62.633405684661" lon="17.969977454397">
        <ele>55</ele>
        <time>2018-01-29T18:43:34Z</time>
      </trkpt>
      <trkpt lat="62.633413144552" lon="17.970043671407">
        <ele>55</ele>
        <time>2018-01-29T18:43:35Z</time>
      </trkpt>
      <trkpt lat="62.633417754597" lon="17.97010963696">
        <ele>55.2</ele>
        <time>2018-01-29T18:43:36Z</time>
      </trkpt>
      <trkpt lat="62.633420269167" lon="17.970173926133">
        <ele>55.2</ele>
        <time>2018-01-29T18:43:37Z</time>
      </trkpt>
      <trkpt lat="62.633424124841" lon="17.97024123279">
        <ele>55.2</ele>
        <time>2018-01-29T18:43:38Z</time>
      </trkpt>
      <trkpt lat="62.633427477601" lon="17.970308623266">
        <ele>55.4</ele>
        <time>2018-01-29T18:43:39Z</time>
      </trkpt>
      <trkpt lat="62.633429908352" lon="17.970383641271">
        <ele>55.2</ele>
        <time>2018-01-29T18:43:40Z</time>
      </trkpt>
      <trkpt lat="62.633432758198" lon="17.97044575115">
        <ele>55.4</ele>
        <time>2018-01-29T18:43:41Z</time>
      </trkpt>
      <trkpt lat="62.633433344931" lon="17.970518422223">
        <ele>55.4</ele>
        <time>2018-01-29T18:43:42Z</time>
      </trkpt>
      <trkpt lat="62.633436530053" lon="17.970581035016">
        <ele>55.6</ele>
        <time>2018-01-29T18:43:43Z</time>
      </trkpt>
      <trkpt lat="62.633438709347" lon="17.970638953945">
        <ele>55.6</ele>
        <time>2018-01-29T18:43:44Z</time>
      </trkpt>
      <trkpt lat="62.633440469546" lon="17.97070894281">
        <ele>56</ele>
        <time>2018-01-29T18:43:45Z</time>
      </trkpt>
      <trkpt lat="62.633442229745" lon="17.970768538119">
        <ele>56.2</ele>
        <time>2018-01-29T18:43:46Z</time>
      </trkpt>
      <trkpt lat="62.633442062107" lon="17.970824948306">
        <ele>56.4</ele>
        <time>2018-01-29T18:43:47Z</time>
      </trkpt>
      <trkpt lat="62.633444157582" lon="17.970890913859">
        <ele>56.6</ele>
        <time>2018-01-29T18:43:48Z</time>
      </trkpt>
      <trkpt lat="62.633446169238" lon="17.970954281023">
        <ele>56.6</ele>
        <time>2018-01-29T18:43:49Z</time>
      </trkpt>
      <trkpt lat="62.633448683808" lon="17.971025024259">
        <ele>57</ele>
        <time>2018-01-29T18:43:50Z</time>
      </trkpt>
      <trkpt lat="62.633449438179" lon="17.971092666192">
        <ele>57</ele>
        <time>2018-01-29T18:43:51Z</time>
      </trkpt>
      <trkpt lat="62.633448348532" lon="17.971163157971">
        <ele>57.2</ele>
        <time>2018-01-29T18:43:52Z</time>
      </trkpt>
      <trkpt lat="62.633449438179" lon="17.97122442966">
        <ele>57</ele>
        <time>2018-01-29T18:43:53Z</time>
      </trkpt>
      <trkpt lat="62.633448851446" lon="17.971289724661">
        <ele>57</ele>
        <time>2018-01-29T18:43:54Z</time>
      </trkpt>
      <trkpt lat="62.6334460016" lon="17.971360300259">
        <ele>57.2</ele>
        <time>2018-01-29T18:43:55Z</time>
      </trkpt>
      <trkpt lat="62.633443822306" lon="17.971420147025">
        <ele>57.2</ele>
        <time>2018-01-29T18:43:56Z</time>
      </trkpt>
      <trkpt lat="62.633439631356" lon="17.971488794786">
        <ele>57.2</ele>
        <time>2018-01-29T18:43:57Z</time>
      </trkpt>
      <trkpt lat="62.6334376197" lon="17.971552664864">
        <ele>57.4</ele>
        <time>2018-01-29T18:43:58Z</time>
      </trkpt>
      <trkpt lat="62.633436949148" lon="17.971615110019">
        <ele>57.6</ele>
        <time>2018-01-29T18:43:59Z</time>
      </trkpt>
      <trkpt lat="62.63343259056" lon="17.971690379481">
        <ele>58</ele>
        <time>2018-01-29T18:44:00Z</time>
      </trkpt>
      <trkpt lat="62.633427477601" lon="17.971753998102">
        <ele>58</ele>
        <time>2018-01-29T18:44:01Z</time>
      </trkpt>
      <trkpt lat="62.633420436805" lon="17.971814263963">
        <ele>58</ele>
        <time>2018-01-29T18:44:02Z</time>
      </trkpt>
      <trkpt lat="62.633414234199" lon="17.97187905605">
        <ele>58.2</ele>
        <time>2018-01-29T18:44:03Z</time>
      </trkpt>
      <trkpt lat="62.633406271394" lon="17.971940495377">
        <ele>58.2</ele>
        <time>2018-01-29T18:44:04Z</time>
      </trkpt>
      <trkpt lat="62.633398057132" lon="17.972002521437">
        <ele>58.2</ele>
        <time>2018-01-29T18:44:05Z</time>
      </trkpt>
      <trkpt lat="62.63339068106" lon="17.972068067895">
        <ele>58.4</ele>
        <time>2018-01-29T18:44:06Z</time>
      </trkpt>
      <trkpt lat="62.633380706599" lon="17.972132357068">
        <ele>58.6</ele>
        <time>2018-01-29T18:44:07Z</time>
      </trkpt>
      <trkpt lat="62.6333705645" lon="17.972189773083">
        <ele>58.6</ele>
        <time>2018-01-29T18:44:08Z</time>
      </trkpt>
      <trkpt lat="62.633361260591" lon="17.972243333424">
        <ele>58.8</ele>
        <time>2018-01-29T18:44:09Z</time>
      </trkpt>
      <trkpt lat="62.633351705225" lon="17.972310137167">
        <ele>58.6</ele>
        <time>2018-01-29T18:44:10Z</time>
      </trkpt>
      <trkpt lat="62.633343239506" lon="17.972367637001">
        <ele>58.8</ele>
        <time>2018-01-29T18:44:11Z</time>
      </trkpt>
      <trkpt lat="62.633333935597" lon="17.972433770192">
        <ele>59</ele>
        <time>2018-01-29T18:44:12Z</time>
      </trkpt>
      <trkpt lat="62.633325805154" lon="17.972494874243">
        <ele>59</ele>
        <time>2018-01-29T18:44:13Z</time>
      </trkpt>
      <trkpt lat="62.63331859672" lon="17.972557319398">
        <ele>59</ele>
        <time>2018-01-29T18:44:14Z</time>
      </trkpt>
      <trkpt lat="62.63330853844" lon="17.972626889168">
        <ele>59</ele>
        <time>2018-01-29T18:44:15Z</time>
      </trkpt>
      <trkpt lat="62.633299653626" lon="17.972686987391">
        <ele>59</ele>
        <time>2018-01-29T18:44:16Z</time>
      </trkpt>
      <trkpt lat="62.633287667509" lon="17.97274406813">
        <ele>59</ele>
        <time>2018-01-29T18:44:17Z</time>
      </trkpt>
      <trkpt lat="62.633274340288" lon="17.972807519113">
        <ele>59.2</ele>
        <time>2018-01-29T18:44:18Z</time>
      </trkpt>
      <trkpt lat="62.633263611456" lon="17.97286476749">
        <ele>59.2</ele>
        <time>2018-01-29T18:44:19Z</time>
      </trkpt>
      <trkpt lat="62.633250200416" lon="17.972928050835">
        <ele>59.4</ele>
        <time>2018-01-29T18:44:20Z</time>
      </trkpt>
      <trkpt lat="62.633237543747" lon="17.972981694995">
        <ele>59.6</ele>
        <time>2018-01-29T18:44:21Z</time>
      </trkpt>
      <trkpt lat="62.633224887078" lon="17.973039530105">
        <ele>59.8</ele>
        <time>2018-01-29T18:44:22Z</time>
      </trkpt>
      <trkpt lat="62.633214325884" lon="17.973098035767">
        <ele>59.8</ele>
        <time>2018-01-29T18:44:23Z</time>
      </trkpt>
      <trkpt lat="62.633200495749" lon="17.973158720723">
        <ele>60</ele>
        <time>2018-01-29T18:44:24Z</time>
      </trkpt>
      <trkpt lat="62.633185156872" lon="17.973227284665">
        <ele>59.8</ele>
        <time>2018-01-29T18:44:25Z</time>
      </trkpt>
      <trkpt lat="62.63317107528" lon="17.973291238562">
        <ele>59.8</ele>
        <time>2018-01-29T18:44:26Z</time>
      </trkpt>
      <trkpt lat="62.633155317308" lon="17.973356198287">
        <ele>60</ele>
        <time>2018-01-29T18:44:27Z</time>
      </trkpt>
      <trkpt lat="62.633142493001" lon="17.973416045053">
        <ele>60</ele>
        <time>2018-01-29T18:44:28Z</time>
      </trkpt>
      <trkpt lat="62.633128076133" lon="17.973468599566">
        <ele>60</ele>
        <time>2018-01-29T18:44:29Z</time>
      </trkpt>
      <trkpt lat="62.633110641781" lon="17.97353615768">
        <ele>60</ele>
        <time>2018-01-29T18:44:30Z</time>
      </trkpt>
      <trkpt lat="62.633098739483" lon="17.973595082437">
        <ele>60</ele>
        <time>2018-01-29T18:44:31Z</time>
      </trkpt>
      <trkpt lat="62.633084825529" lon="17.973650067701">
        <ele>60.2</ele>
        <time>2018-01-29T18:44:32Z</time>
      </trkpt>
      <trkpt lat="62.633070743937" lon="17.973709076277">
        <ele>60.4</ele>
        <time>2018-01-29T18:44:33Z</time>
      </trkpt>
      <trkpt lat="62.633056997621" lon="17.973762133704">
        <ele>60.4</ele>
        <time>2018-01-29T18:44:34Z</time>
      </trkpt>
      <trkpt lat="62.633042413115" lon="17.973818879167">
        <ele>60.6</ele>
        <time>2018-01-29T18:44:35Z</time>
      </trkpt>
      <trkpt lat="62.633029337351" lon="17.973867997101">
        <ele>60.6</ele>
        <time>2018-01-29T18:44:36Z</time>
      </trkpt>
      <trkpt lat="62.633011232447" lon="17.973940416717">
        <ele>60.8</ele>
        <time>2018-01-29T18:44:37Z</time>
      </trkpt>
      <trkpt lat="62.632995977389" lon="17.973996491628">
        <ele>60.8</ele>
        <time>2018-01-29T18:44:38Z</time>
      </trkpt>
      <trkpt lat="62.632979548865" lon="17.974049046141">
        <ele>60.8</ele>
        <time>2018-01-29T18:44:39Z</time>
      </trkpt>
      <trkpt lat="62.632962030694" lon="17.974107216527">
        <ele>61</ele>
        <time>2018-01-29T18:44:40Z</time>
      </trkpt>
      <trkpt lat="62.632946021265" lon="17.974160190135">
        <ele>61</ele>
        <time>2018-01-29T18:44:41Z</time>
      </trkpt>
      <trkpt lat="62.632927581085" lon="17.974219953082">
        <ele>61.4</ele>
        <time>2018-01-29T18:44:42Z</time>
      </trkpt>
      <trkpt lat="62.632912661303" lon="17.97427963221">
        <ele>61.2</ele>
        <time>2018-01-29T18:44:43Z</time>
      </trkpt>
      <trkpt lat="62.632895478408" lon="17.974328666325">
        <ele>61.2</ele>
        <time>2018-01-29T18:44:44Z</time>
      </trkpt>
      <trkpt lat="62.632877792599" lon="17.974388680729">
        <ele>61.2</ele>
        <time>2018-01-29T18:44:45Z</time>
      </trkpt>
      <trkpt lat="62.632857340763" lon="17.974445007097">
        <ele>61.2</ele>
        <time>2018-01-29T18:44:46Z</time>
      </trkpt>
      <trkpt lat="62.632835883099" lon="17.97448917971">
        <ele>61</ele>
        <time>2018-01-29T18:44:47Z</time>
      </trkpt>
      <trkpt lat="62.632806127354" lon="17.97452438369">
        <ele>61</ele>
        <time>2018-01-29T18:44:48Z</time>
      </trkpt>
      <trkpt lat="62.632778383265" lon="17.974535112522">
        <ele>61</ele>
        <time>2018-01-29T18:44:49Z</time>
      </trkpt>
      <trkpt lat="62.632747454054" lon="17.974529831925">
        <ele>61</ele>
        <time>2018-01-29T18:44:50Z</time>
      </trkpt>
      <trkpt lat="62.632724403829" lon="17.974519186912">
        <ele>61</ele>
        <time>2018-01-29T18:44:51Z</time>
      </trkpt>
      <trkpt lat="62.632681069406" lon="17.974486832778">
        <ele>61</ele>
        <time>2018-01-29T18:44:52Z</time>
      </trkpt>
      <trkpt lat="62.632656175163" lon="17.974466045666">
        <ele>61</ele>
        <time>2018-01-29T18:44:53Z</time>
      </trkpt>
      <trkpt lat="62.632631197101" lon="17.974443498355">
        <ele>61</ele>
        <time>2018-01-29T18:44:54Z</time>
      </trkpt>
      <trkpt lat="62.632607476324" lon="17.974428997668">
        <ele>61.2</ele>
        <time>2018-01-29T18:44:55Z</time>
      </trkpt>
      <trkpt lat="62.632573613448" lon="17.974394799516">
        <ele>61.2</ele>
        <time>2018-01-29T18:44:56Z</time>
      </trkpt>
      <trkpt lat="62.632541762228" lon="17.974378203354">
        <ele>61.2</ele>
        <time>2018-01-29T18:44:57Z</time>
      </trkpt>
      <trkpt lat="62.632507396438" lon="17.974364037943">
        <ele>61.6</ele>
        <time>2018-01-29T18:44:58Z</time>
      </trkpt>
      <trkpt lat="62.632482418376" lon="17.97435004017">
        <ele>61.6</ele>
        <time>2018-01-29T18:44:59Z</time>
      </trkpt>
      <trkpt lat="62.632442520532" lon="17.974326822307">
        <ele>61.8</ele>
        <time>2018-01-29T18:45:00Z</time>
      </trkpt>
      <trkpt lat="62.63241838066" lon="17.974306286652">
        <ele>61.8</ele>
        <time>2018-01-29T18:45:01Z</time>
      </trkpt>
      <trkpt lat="62.632391307123" lon="17.974287259739">
        <ele>62</ele>
        <time>2018-01-29T18:45:02Z</time>
      </trkpt>
      <trkpt lat="62.632361048464" lon="17.974254067415">
        <ele>62.2</ele>
        <time>2018-01-29T18:45:03Z</time>
      </trkpt>
      <trkpt lat="62.632337998239" lon="17.97423185538">
        <ele>62.2</ele>
        <time>2018-01-29T18:45:04Z</time>
      </trkpt>
      <trkpt lat="62.632313774548" lon="17.974210481535">
        <ele>62.4</ele>
        <time>2018-01-29T18:45:05Z</time>
      </trkpt>
      <trkpt lat="62.632288209753" lon="17.974181144885">
        <ele>62.4</ele>
        <time>2018-01-29T18:45:06Z</time>
      </trkpt>
      <trkpt lat="62.632262142044" lon="17.974150802407">
        <ele>62.4</ele>
        <time>2018-01-29T18:45:07Z</time>
      </trkpt>
      <trkpt lat="62.63223649343" lon="17.974121549576">
        <ele>62.4</ele>
        <time>2018-01-29T18:45:08Z</time>
      </trkpt>
      <trkpt lat="62.632209838988" lon="17.974097325885">
        <ele>62.4</ele>
        <time>2018-01-29T18:45:09Z</time>
      </trkpt>
      <trkpt lat="62.632180669976" lon="17.974069665615">
        <ele>62.6</ele>
        <time>2018-01-29T18:45:10Z</time>
      </trkpt>
      <trkpt lat="62.632154602267" lon="17.974040580422">
        <ele>62.4</ele>
        <time>2018-01-29T18:45:11Z</time>
      </trkpt>
      <trkpt lat="62.632121577581" lon="17.974005963175">
        <ele>62.4</ele>
        <time>2018-01-29T18:45:12Z</time>
      </trkpt>
      <trkpt lat="62.632093498216" lon="17.973975117783">
        <ele>62.4</ele>
        <time>2018-01-29T18:45:13Z</time>
      </trkpt>
      <trkpt lat="62.632064580661" lon="17.973945362038">
        <ele>62.4</ele>
        <time>2018-01-29T18:45:14Z</time>
      </trkpt>
      <trkpt lat="62.632030801604" lon="17.973903620176">
        <ele>62.4</ele>
        <time>2018-01-29T18:45:15Z</time>
      </trkpt>
      <trkpt lat="62.632003392791" lon="17.973865398712">
        <ele>62.4</ele>
        <time>2018-01-29T18:45:16Z</time>
      </trkpt>
      <trkpt lat="62.631976403073" lon="17.973830781465">
        <ele>62.2</ele>
        <time>2018-01-29T18:45:17Z</time>
      </trkpt>
      <trkpt lat="62.631947653156" lon="17.973802115367">
        <ele>62.2</ele>
        <time>2018-01-29T18:45:18Z</time>
      </trkpt>
      <trkpt lat="62.631922004542" lon="17.973764229179">
        <ele>62.2</ele>
        <time>2018-01-29T18:45:19Z</time>
      </trkpt>
      <trkpt lat="62.631892081159" lon="17.973725756258">
        <ele>62.2</ele>
        <time>2018-01-29T18:45:20Z</time>
      </trkpt>
      <trkpt lat="62.631867103097" lon="17.973692312477">
        <ele>62.2</ele>
        <time>2018-01-29T18:45:21Z</time>
      </trkpt>
      <trkpt lat="62.631837012076" lon="17.973656521764">
        <ele>62.2</ele>
        <time>2018-01-29T18:45:22Z</time>
      </trkpt>
      <trkpt lat="62.631813878032" lon="17.973628610037">
        <ele>62.2</ele>
        <time>2018-01-29T18:45:23Z</time>
      </trkpt>
      <trkpt lat="62.631786469219" lon="17.973600530672">
        <ele>62.2</ele>
        <time>2018-01-29T18:45:24Z</time>
      </trkpt>
      <trkpt lat="62.631751013782" lon="17.97355795062">
        <ele>62.2</ele>
        <time>2018-01-29T18:45:25Z</time>
      </trkpt>
      <trkpt lat="62.63172435934" lon="17.973529200703">
        <ele>62.2</ele>
        <time>2018-01-29T18:45:26Z</time>
      </trkpt>
      <trkpt lat="62.631695357966" lon="17.973498355311">
        <ele>62</ele>
        <time>2018-01-29T18:45:27Z</time>
      </trkpt>
      <trkpt lat="62.631663758203" lon="17.973477735837">
        <ele>62</ele>
        <time>2018-01-29T18:45:28Z</time>
      </trkpt>
      <trkpt lat="62.631640037426" lon="17.973468515747">
        <ele>62</ele>
        <time>2018-01-29T18:45:29Z</time>
      </trkpt>
      <trkpt lat="62.631604162894" lon="17.973475556543">
        <ele>62</ele>
        <time>2018-01-29T18:45:30Z</time>
      </trkpt>
      <trkpt lat="62.631574239511" lon="17.973492487981">
        <ele>61.8</ele>
        <time>2018-01-29T18:45:31Z</time>
      </trkpt>
      <trkpt lat="62.631551440743" lon="17.973521824631">
        <ele>61.8</ele>
        <time>2018-01-29T18:45:32Z</time>
      </trkpt>
      <trkpt lat="62.631519589523" lon="17.973562812122">
        <ele>61.6</ele>
        <time>2018-01-29T18:45:33Z</time>
      </trkpt>
      <trkpt lat="62.631496874574" lon="17.973598602835">
        <ele>61.4</ele>
        <time>2018-01-29T18:45:34Z</time>
      </trkpt>
      <trkpt lat="62.631468879028" lon="17.973629951141">
        <ele>61.6</ele>
        <time>2018-01-29T18:45:35Z</time>
      </trkpt>
      <trkpt lat="62.631435602885" lon="17.973662472913">
        <ele>61.6</ele>
        <time>2018-01-29T18:45:36Z</time>
      </trkpt>
      <trkpt lat="62.631403667846" lon="17.973685690776">
        <ele>61.2</ele>
        <time>2018-01-29T18:45:37Z</time>
      </trkpt>
      <trkpt lat="62.631372906273" lon="17.973710585019">
        <ele>61.2</ele>
        <time>2018-01-29T18:45:38Z</time>
      </trkpt>
      <trkpt lat="62.631352705894" lon="17.973733551425">
        <ele>61.2</ele>
        <time>2018-01-29T18:45:39Z</time>
      </trkpt>
      <trkpt lat="62.631317585733" lon="17.973763558627">
        <ele>61.2</ele>
        <time>2018-01-29T18:45:40Z</time>
      </trkpt>
      <trkpt lat="62.631291937119" lon="17.973791973268">
        <ele>61</ele>
        <time>2018-01-29T18:45:41Z</time>
      </trkpt>
      <trkpt lat="62.631259415347" lon="17.973831116741">
        <ele>61</ele>
        <time>2018-01-29T18:45:42Z</time>
      </trkpt>
      <trkpt lat="62.63122815086" lon="17.973860369572">
        <ele>61</ele>
        <time>2018-01-29T18:45:43Z</time>
      </trkpt>
      <trkpt lat="62.631203591893" lon="17.973884760901">
        <ele>61</ele>
        <time>2018-01-29T18:45:44Z</time>
      </trkpt>
      <trkpt lat="62.631170567207" lon="17.973914097551">
        <ele>61</ele>
        <time>2018-01-29T18:45:45Z</time>
      </trkpt>
      <trkpt lat="62.631134357399" lon="17.973938824156">
        <ele>60.8</ele>
        <time>2018-01-29T18:45:46Z</time>
      </trkpt>
      <trkpt lat="62.631109211699" lon="17.97395692906">
        <ele>61</ele>
        <time>2018-01-29T18:45:47Z</time>
      </trkpt>
      <trkpt lat="62.631068140389" lon="17.97396950191">
        <ele>61.4</ele>
        <time>2018-01-29T18:45:48Z</time>
      </trkpt>
      <trkpt lat="62.631040563938" lon="17.973970172462">
        <ele>61.4</ele>
        <time>2018-01-29T18:45:49Z</time>
      </trkpt>
      <trkpt lat="62.631005024682" lon="17.973952067558">
        <ele>61.2</ele>
        <time>2018-01-29T18:45:50Z</time>
      </trkpt>
      <trkpt lat="62.630967054675" lon="17.97393178336">
        <ele>61.2</ele>
        <time>2018-01-29T18:45:51Z</time>
      </trkpt>
      <trkpt lat="62.630938891491" lon="17.973903033443">
        <ele>61.2</ele>
        <time>2018-01-29T18:45:52Z</time>
      </trkpt>
      <trkpt lat="62.630912823782" lon="17.973860201934">
        <ele>61</ele>
        <time>2018-01-29T18:45:53Z</time>
      </trkpt>
      <trkpt lat="62.630890695566" lon="17.973817286606">
        <ele>60.8</ele>
        <time>2018-01-29T18:45:54Z</time>
      </trkpt>
      <trkpt lat="62.630865382228" lon="17.973762301342">
        <ele>60.8</ele>
        <time>2018-01-29T18:45:55Z</time>
      </trkpt>
      <trkpt lat="62.63084509803" lon="17.973700610558">
        <ele>60.4</ele>
        <time>2018-01-29T18:45:56Z</time>
      </trkpt>
      <trkpt lat="62.630824730013" lon="17.973641182887">
        <ele>60.2</ele>
        <time>2018-01-29T18:45:57Z</time>
      </trkpt>
      <trkpt lat="62.630806876566" lon="17.973591394401">
        <ele>60.2</ele>
        <time>2018-01-29T18:45:58Z</time>
      </trkpt>
      <trkpt lat="62.630792878793" lon="17.973544874856">
        <ele>60.2</ele>
        <time>2018-01-29T18:45:59Z</time>
      </trkpt>
      <trkpt lat="62.630771756405" lon="17.973484525176">
        <ele>60</ele>
        <time>2018-01-29T18:46:00Z</time>
      </trkpt>
      <trkpt lat="62.630753232406" lon="17.973430294283">
        <ele>60</ele>
        <time>2018-01-29T18:46:01Z</time>
      </trkpt>
      <trkpt lat="62.630738815538" lon="17.973379332331">
        <ele>60</ele>
        <time>2018-01-29T18:46:02Z</time>
      </trkpt>
      <trkpt lat="62.630718615159" lon="17.973318731194">
        <ele>60</ele>
        <time>2018-01-29T18:46:03Z</time>
      </trkpt>
      <trkpt lat="62.630699923522" lon="17.9732578786">
        <ele>59.8</ele>
        <time>2018-01-29T18:46:04Z</time>
      </trkpt>
      <trkpt lat="62.630682237713" lon="17.973191996866">
        <ele>59.8</ele>
        <time>2018-01-29T18:46:05Z</time>
      </trkpt>
      <trkpt lat="62.630665222456" lon="17.97312879734">
        <ele>59.8</ele>
        <time>2018-01-29T18:46:06Z</time>
      </trkpt>
      <trkpt lat="62.630647033733" lon="17.973062915606">
        <ele>59.6</ele>
        <time>2018-01-29T18:46:07Z</time>
      </trkpt>
      <trkpt lat="62.630627671544" lon="17.973002482107">
        <ele>59.6</ele>
        <time>2018-01-29T18:46:08Z</time>
      </trkpt>
      <trkpt lat="62.630612416486" lon="17.97295026287">
        <ele>59.6</ele>
        <time>2018-01-29T18:46:09Z</time>
      </trkpt>
      <trkpt lat="62.630592719021" lon="17.9728723112">
        <ele>59.6</ele>
        <time>2018-01-29T18:46:10Z</time>
      </trkpt>
      <trkpt lat="62.630575284669" lon="17.972811542425">
        <ele>59.4</ele>
        <time>2018-01-29T18:46:11Z</time>
      </trkpt>
      <trkpt lat="62.630557347403" lon="17.972740128637">
        <ele>59.4</ele>
        <time>2018-01-29T18:46:12Z</time>
      </trkpt>
      <trkpt lat="62.630545193648" lon="17.972674665998">
        <ele>59.4</ele>
        <time>2018-01-29T18:46:13Z</time>
      </trkpt>
      <trkpt lat="62.630533710445" lon="17.972612053205">
        <ele>59.2</ele>
        <time>2018-01-29T18:46:14Z</time>
      </trkpt>
      <trkpt lat="62.630516695188" lon="17.972537621933">
        <ele>59.2</ele>
        <time>2018-01-29T18:46:15Z</time>
      </trkpt>
      <trkpt lat="62.63050227832" lon="17.972467046335">
        <ele>59.2</ele>
        <time>2018-01-29T18:46:16Z</time>
      </trkpt>
      <trkpt lat="62.630490878936" lon="17.972408624492">
        <ele>59.2</ele>
        <time>2018-01-29T18:46:17Z</time>
      </trkpt>
      <trkpt lat="62.630473696041" lon="17.972329247899">
        <ele>59</ele>
        <time>2018-01-29T18:46:18Z</time>
      </trkpt>
      <trkpt lat="62.630466906702" lon="17.972260767776">
        <ele>59</ele>
        <time>2018-01-29T18:46:19Z</time>
      </trkpt>
      <trkpt lat="62.630456848422" lon="17.972186085047">
        <ele>59</ele>
        <time>2018-01-29T18:46:20Z</time>
      </trkpt>
      <trkpt lat="62.630452322196" lon="17.972111737594">
        <ele>59</ele>
        <time>2018-01-29T18:46:21Z</time>
      </trkpt>
      <trkpt lat="62.630441341907" lon="17.97203831215">
        <ele>58.8</ele>
        <time>2018-01-29T18:46:22Z</time>
      </trkpt>
      <trkpt lat="62.630432540912" lon="17.971970754036">
        <ele>58.8</ele>
        <time>2018-01-29T18:46:23Z</time>
      </trkpt>
      <trkpt lat="62.63042767941" lon="17.971909063252">
        <ele>58.8</ele>
        <time>2018-01-29T18:46:24Z</time>
      </trkpt>
      <trkpt lat="62.630415525655" lon="17.971821137121">
        <ele>58.8</ele>
        <time>2018-01-29T18:46:25Z</time>
      </trkpt>
      <trkpt lat="62.630405383556" lon="17.971751567351">
        <ele>58.6</ele>
        <time>2018-01-29T18:46:26Z</time>
      </trkpt>
      <trkpt lat="62.63039666638" lon="17.971675124423">
        <ele>58.6</ele>
        <time>2018-01-29T18:46:27Z</time>
      </trkpt>
      <trkpt lat="62.630387027195" lon="17.971607733947">
        <ele>58.4</ele>
        <time>2018-01-29T18:46:28Z</time>
      </trkpt>
      <trkpt lat="62.630377220372" lon="17.971534224684">
        <ele>58.4</ele>
        <time>2018-01-29T18:46:29Z</time>
      </trkpt>
      <trkpt lat="62.630360205115" lon="17.971440263585">
        <ele>58.4</ele>
        <time>2018-01-29T18:46:30Z</time>
      </trkpt>
      <trkpt lat="62.630350063016" lon="17.971351750721">
        <ele>58.2</ele>
        <time>2018-01-29T18:46:31Z</time>
      </trkpt>
      <trkpt lat="62.630344950057" lon="17.971281845675">
        <ele>58.2</ele>
        <time>2018-01-29T18:46:32Z</time>
      </trkpt>
      <trkpt lat="62.630334975596" lon="17.97118922568">
        <ele>58.2</ele>
        <time>2018-01-29T18:46:33Z</time>
      </trkpt>
      <trkpt lat="62.630335310872" lon="17.971120997014">
        <ele>58</ele>
        <time>2018-01-29T18:46:34Z</time>
      </trkpt>
      <trkpt lat="62.630334388863" lon="17.97105511528">
        <ele>58</ele>
        <time>2018-01-29T18:46:35Z</time>
      </trkpt>
      <trkpt lat="62.630334807958" lon="17.970971547737">
        <ele>58</ele>
        <time>2018-01-29T18:46:36Z</time>
      </trkpt>
      <trkpt lat="62.630339250365" lon="17.970899798673">
        <ele>58</ele>
        <time>2018-01-29T18:46:37Z</time>
      </trkpt>
      <trkpt lat="62.630344195686" lon="17.970829223075">
        <ele>58</ele>
        <time>2018-01-29T18:46:38Z</time>
      </trkpt>
      <trkpt lat="62.630348135179" lon="17.970762670789">
        <ele>58</ele>
        <time>2018-01-29T18:46:39Z</time>
      </trkpt>
      <trkpt lat="62.630362049133" lon="17.970683378015">
        <ele>57.8</ele>
        <time>2018-01-29T18:46:40Z</time>
      </trkpt>
      <trkpt lat="62.630383506797" lon="17.970623531249">
        <ele>57.8</ele>
        <time>2018-01-29T18:46:41Z</time>
      </trkpt>
      <trkpt lat="62.630414687465" lon="17.970562008103">
        <ele>57.6</ele>
        <time>2018-01-29T18:46:42Z</time>
      </trkpt>
      <trkpt lat="62.630443018287" lon="17.970504759726">
        <ele>57.4</ele>
        <time>2018-01-29T18:46:43Z</time>
      </trkpt>
      <trkpt lat="62.630474031317" lon="17.97045497124">
        <ele>57.2</ele>
        <time>2018-01-29T18:46:44Z</time>
      </trkpt>
      <trkpt lat="62.630512168962" lon="17.970401243261">
        <ele>56.8</ele>
        <time>2018-01-29T18:46:45Z</time>
      </trkpt>
      <trkpt lat="62.630549971331" lon="17.970366793652">
        <ele>56.6</ele>
        <time>2018-01-29T18:46:46Z</time>
      </trkpt>
      <trkpt lat="62.63057855361" lon="17.970349275481">
        <ele>56.4</ele>
        <time>2018-01-29T18:46:47Z</time>
      </trkpt>
      <trkpt lat="62.630616355979" lon="17.970325219428">
        <ele>56</ele>
        <time>2018-01-29T18:46:48Z</time>
      </trkpt>
      <trkpt lat="62.630650973226" lon="17.970303761764">
        <ele>55.8</ele>
        <time>2018-01-29T18:46:49Z</time>
      </trkpt>
      <trkpt lat="62.630691122527" lon="17.970283812842">
        <ele>55.6</ele>
        <time>2018-01-29T18:46:50Z</time>
      </trkpt>
      <trkpt lat="62.630725907412" lon="17.970267468137">
        <ele>55.6</ele>
        <time>2018-01-29T18:46:51Z</time>
      </trkpt>
      <trkpt lat="62.630766978722" lon="17.970249195595">
        <ele>55.6</ele>
        <time>2018-01-29T18:46:52Z</time>
      </trkpt>
      <trkpt lat="62.630800003408" lon="17.970228324664">
        <ele>55.4</ele>
        <time>2018-01-29T18:46:53Z</time>
      </trkpt>
      <trkpt lat="62.63083336337" lon="17.970211979959">
        <ele>55.4</ele>
        <time>2018-01-29T18:46:54Z</time>
      </trkpt>
      <trkpt lat="62.630902262588" lon="17.970181134567">
        <ele>55</ele>
        <time>2018-01-29T18:46:56Z</time>
      </trkpt>
      <trkpt lat="62.630929084668" lon="17.970165292776">
        <ele>54.8</ele>
        <time>2018-01-29T18:46:57Z</time>
      </trkpt>
      <trkpt lat="62.630940986966" lon="17.970152636107">
        <ele>54.6</ele>
        <time>2018-01-29T18:46:58Z</time>
      </trkpt>
      <trkpt lat="62.630951464341" lon="17.970145176216">
        <ele>54.6</ele>
        <time>2018-01-29T18:46:59Z</time>
      </trkpt>
      <trkpt lat="62.630961522621" lon="17.970153558116">
        <ele>54.6</ele>
        <time>2018-01-29T18:47:00Z</time>
      </trkpt>
      <trkpt lat="62.630967389951" lon="17.970174345228">
        <ele>54.6</ele>
        <time>2018-01-29T18:47:01Z</time>
      </trkpt>
      <trkpt lat="62.630967557589" lon="17.970181553662">
        <ele>54.6</ele>
        <time>2018-01-29T18:47:02Z</time>
      </trkpt>
      <trkpt lat="62.630967054675" lon="17.970176273065">
        <ele>54.6</ele>
        <time>2018-01-29T18:47:03Z</time>
      </trkpt>
      <trkpt lat="62.630965210657" lon="17.970180547834">
        <ele>54.4</ele>
        <time>2018-01-29T18:47:06Z</time>
      </trkpt>
      <trkpt lat="62.630963115182" lon="17.970165460414">
        <ele>54.4</ele>
        <time>2018-01-29T18:47:07Z</time>
      </trkpt>
      <trkpt lat="62.631177440365" lon="17.970031517652">
        <ele>53.4</ele>
        <time>2018-01-29T18:49:37Z</time>
      </trkpt>
      <trkpt lat="62.631199233305" lon="17.970030428005">
        <ele>53.2</ele>
        <time>2018-01-29T18:49:38Z</time>
      </trkpt>
      <trkpt lat="62.631220439512" lon="17.970022129924">
        <ele>53.2</ele>
        <time>2018-01-29T18:49:39Z</time>
      </trkpt>
      <trkpt lat="62.631245669031" lon="17.970006120495">
        <ele>53.2</ele>
        <time>2018-01-29T18:49:40Z</time>
      </trkpt>
      <trkpt lat="62.631264947401" lon="17.969994553473">
        <ele>53</ele>
        <time>2018-01-29T18:49:41Z</time>
      </trkpt>
      <trkpt lat="62.631289003454" lon="17.969978208768">
        <ele>53</ele>
        <time>2018-01-29T18:49:42Z</time>
      </trkpt>
      <trkpt lat="62.631312053679" lon="17.969966390289">
        <ele>53</ele>
        <time>2018-01-29T18:49:43Z</time>
      </trkpt>
      <trkpt lat="62.631332673153" lon="17.969955577638">
        <ele>53.2</ele>
        <time>2018-01-29T18:49:44Z</time>
      </trkpt>
      <trkpt lat="62.63135471755" lon="17.96994367534">
        <ele>53.2</ele>
        <time>2018-01-29T18:49:45Z</time>
      </trkpt>
      <trkpt lat="62.631377264861" lon="17.969933700879">
        <ele>53.2</ele>
        <time>2018-01-29T18:49:46Z</time>
      </trkpt>
      <trkpt lat="62.631399057801" lon="17.969918864916">
        <ele>53.2</ele>
        <time>2018-01-29T18:49:47Z</time>
      </trkpt>
      <trkpt lat="62.631424622596" lon="17.96990344222">
        <ele>53.2</ele>
        <time>2018-01-29T18:49:48Z</time>
      </trkpt>
      <trkpt lat="62.631447337545" lon="17.969891120827">
        <ele>53.4</ele>
        <time>2018-01-29T18:49:49Z</time>
      </trkpt>
      <trkpt lat="62.631470806865" lon="17.969875027579">
        <ele>53.4</ele>
        <time>2018-01-29T18:49:50Z</time>
      </trkpt>
      <trkpt lat="62.631492348348" lon="17.969865975127">
        <ele>53.2</ele>
        <time>2018-01-29T18:49:51Z</time>
      </trkpt>
      <trkpt lat="62.631514979478" lon="17.969855581571">
        <ele>53.2</ele>
        <time>2018-01-29T18:49:52Z</time>
      </trkpt>
      <trkpt lat="62.631535012219" lon="17.969840913246">
        <ele>53</ele>
        <time>2018-01-29T18:49:53Z</time>
      </trkpt>
      <trkpt lat="62.631554542046" lon="17.96983051969">
        <ele>53</ele>
        <time>2018-01-29T18:49:54Z</time>
      </trkpt>
      <trkpt lat="62.631578598099" lon="17.969819874677">
        <ele>53</ele>
        <time>2018-01-29T18:49:55Z</time>
      </trkpt>
      <trkpt lat="62.631599049935" lon="17.969809648759">
        <ele>53</ele>
        <time>2018-01-29T18:49:56Z</time>
      </trkpt>
      <trkpt lat="62.631621345789" lon="17.969797075909">
        <ele>52.8</ele>
        <time>2018-01-29T18:49:57Z</time>
      </trkpt>
      <trkpt lat="62.631643641643" lon="17.96978441924">
        <ele>52.8</ele>
        <time>2018-01-29T18:49:58Z</time>
      </trkpt>
      <trkpt lat="62.631660740719" lon="17.969771092019">
        <ele>52.6</ele>
        <time>2018-01-29T18:49:59Z</time>
      </trkpt>
      <trkpt lat="62.631685551143" lon="17.969753741486">
        <ele>52.6</ele>
        <time>2018-01-29T18:50:00Z</time>
      </trkpt>
      <trkpt lat="62.631706673531" lon="17.969733960202">
        <ele>52.6</ele>
        <time>2018-01-29T18:50:01Z</time>
      </trkpt>
      <trkpt lat="62.631724862254" lon="17.969714178918">
        <ele>52.6</ele>
        <time>2018-01-29T18:50:02Z</time>
      </trkpt>
      <trkpt lat="62.631742045149" lon="17.96968635101">
        <ele>52.6</ele>
        <time>2018-01-29T18:50:03Z</time>
      </trkpt>
      <trkpt lat="62.631758641311" lon="17.969657433455">
        <ele>52.6</ele>
        <time>2018-01-29T18:50:04Z</time>
      </trkpt>
      <trkpt lat="62.631774231645" lon="17.969635389058">
        <ele>52.4</ele>
        <time>2018-01-29T18:50:05Z</time>
      </trkpt>
      <trkpt lat="62.63179392911" lon="17.969617451792">
        <ele>52.4</ele>
        <time>2018-01-29T18:50:06Z</time>
      </trkpt>
      <trkpt lat="62.631808932711" lon="17.969593898653">
        <ele>52.2</ele>
        <time>2018-01-29T18:50:07Z</time>
      </trkpt>
      <trkpt lat="62.63182410395" lon="17.969575961387">
        <ele>52</ele>
        <time>2018-01-29T18:50:08Z</time>
      </trkpt>
      <trkpt lat="62.631840113379" lon="17.96957068079">
        <ele>52</ele>
        <time>2018-01-29T18:50:09Z</time>
      </trkpt>
      <trkpt lat="62.631861487224" lon="17.969575290835">
        <ele>51.8</ele>
        <time>2018-01-29T18:50:10Z</time>
      </trkpt>
      <trkpt lat="62.631881519965" lon="17.96958744459">
        <ele>51.8</ele>
        <time>2018-01-29T18:50:11Z</time>
      </trkpt>
      <trkpt lat="62.631901720344" lon="17.969594820662">
        <ele>51.8</ele>
        <time>2018-01-29T18:50:12Z</time>
      </trkpt>
      <trkpt lat="62.631919825248" lon="17.969594653024">
        <ele>51.8</ele>
        <time>2018-01-29T18:50:13Z</time>
      </trkpt>
      <trkpt lat="62.631939019799" lon="17.96959834106">
        <ele>51.8</ele>
        <time>2018-01-29T18:50:14Z</time>
      </trkpt>
      <trkpt lat="62.631960645101" lon="17.969598089603">
        <ele>51.8</ele>
        <time>2018-01-29T18:50:15Z</time>
      </trkpt>
      <trkpt lat="62.631981348394" lon="17.969595742671">
        <ele>51.8</ele>
        <time>2018-01-29T18:50:16Z</time>
      </trkpt>
      <trkpt lat="62.632002303144" lon="17.969595491214">
        <ele>52</ele>
        <time>2018-01-29T18:50:17Z</time>
      </trkpt>
      <trkpt lat="62.632023174075" lon="17.969594820662">
        <ele>52</ele>
        <time>2018-01-29T18:50:18Z</time>
      </trkpt>
      <trkpt lat="62.632044128825" lon="17.969591803178">
        <ele>52</ele>
        <time>2018-01-29T18:50:19Z</time>
      </trkpt>
      <trkpt lat="62.632068101059" lon="17.969588115142">
        <ele>52.2</ele>
        <time>2018-01-29T18:50:20Z</time>
      </trkpt>
      <trkpt lat="62.632089391085" lon="17.969580236156">
        <ele>52.2</ele>
        <time>2018-01-29T18:50:21Z</time>
      </trkpt>
      <trkpt lat="62.632109507645" lon="17.969572273351">
        <ele>52.2</ele>
        <time>2018-01-29T18:50:22Z</time>
      </trkpt>
      <trkpt lat="62.63213171968" lon="17.969568752953">
        <ele>52.4</ele>
        <time>2018-01-29T18:50:23Z</time>
      </trkpt>
      <trkpt lat="62.632150411317" lon="17.96956397527">
        <ele>52.6</ele>
        <time>2018-01-29T18:50:24Z</time>
      </trkpt>
      <trkpt lat="62.632176227569" lon="17.969560203415">
        <ele>52.4</ele>
        <time>2018-01-29T18:50:25Z</time>
      </trkpt>
      <trkpt lat="62.632199277794" lon="17.969555006637">
        <ele>52.6</ele>
        <time>2018-01-29T18:50:26Z</time>
      </trkpt>
      <trkpt lat="62.632220819277" lon="17.969548552574">
        <ele>52.6</ele>
        <time>2018-01-29T18:50:27Z</time>
      </trkpt>
      <trkpt lat="62.632243282769" lon="17.969542349968">
        <ele>52.4</ele>
        <time>2018-01-29T18:50:28Z</time>
      </trkpt>
      <trkpt lat="62.632265662442" lon="17.969537237009">
        <ele>52.4</ele>
        <time>2018-01-29T18:50:29Z</time>
      </trkpt>
      <trkpt lat="62.6322809175" lon="17.969530950584">
        <ele>52.6</ele>
        <time>2018-01-29T18:50:30Z</time>
      </trkpt>
      <trkpt lat="62.632307488123" lon="17.969525334711">
        <ele>52.4</ele>
        <time>2018-01-29T18:50:31Z</time>
      </trkpt>
      <trkpt lat="62.632329700158" lon="17.969522820141">
        <ele>52.4</ele>
        <time>2018-01-29T18:50:32Z</time>
      </trkpt>
      <trkpt lat="62.632346547777" lon="17.969521730494">
        <ele>52.4</ele>
        <time>2018-01-29T18:50:33Z</time>
      </trkpt>
      <trkpt lat="62.632371693477" lon="17.969525586168">
        <ele>52.6</ele>
        <time>2018-01-29T18:50:34Z</time>
      </trkpt>
      <trkpt lat="62.632395330435" lon="17.96952290396">
        <ele>52.6</ele>
        <time>2018-01-29T18:50:35Z</time>
      </trkpt>
      <trkpt lat="62.63242005704" lon="17.969516533716">
        <ele>52.6</ele>
        <time>2018-01-29T18:50:36Z</time>
      </trkpt>
      <trkpt lat="62.632438245763" lon="17.969516617535">
        <ele>52.4</ele>
        <time>2018-01-29T18:50:37Z</time>
      </trkpt>
      <trkpt lat="62.63246615749" lon="17.969517120449">
        <ele>52.4</ele>
        <time>2018-01-29T18:50:38Z</time>
      </trkpt>
      <trkpt lat="62.632485854955" lon="17.969513935327">
        <ele>52.4</ele>
        <time>2018-01-29T18:50:39Z</time>
      </trkpt>
      <trkpt lat="62.632511922664" lon="17.969516701354">
        <ele>52.2</ele>
        <time>2018-01-29T18:50:40Z</time>
      </trkpt>
      <trkpt lat="62.632530530482" lon="17.969518796829">
        <ele>52.2</ele>
        <time>2018-01-29T18:50:41Z</time>
      </trkpt>
      <trkpt lat="62.632552742517" lon="17.969521311399">
        <ele>52.4</ele>
        <time>2018-01-29T18:50:42Z</time>
      </trkpt>
      <trkpt lat="62.632573194353" lon="17.969524999435">
        <ele>52.2</ele>
        <time>2018-01-29T18:50:43Z</time>
      </trkpt>
      <trkpt lat="62.632592053628" lon="17.96952541853">
        <ele>52.2</ele>
        <time>2018-01-29T18:50:44Z</time>
      </trkpt>
      <trkpt lat="62.632612673102" lon="17.969530531489">
        <ele>52.2</ele>
        <time>2018-01-29T18:50:45Z</time>
      </trkpt>
      <trkpt lat="62.632634885137" lon="17.969538410475">
        <ele>52.2</ele>
        <time>2018-01-29T18:50:46Z</time>
      </trkpt>
      <trkpt lat="62.632655085516" lon="17.969538745751">
        <ele>52.2</ele>
        <time>2018-01-29T18:50:47Z</time>
      </trkpt>
      <trkpt lat="62.632678806293" lon="17.969540170674">
        <ele>52.2</ele>
        <time>2018-01-29T18:50:48Z</time>
      </trkpt>
      <trkpt lat="62.632700263957" lon="17.969545786547">
        <ele>52.2</ele>
        <time>2018-01-29T18:50:49Z</time>
      </trkpt>
      <trkpt lat="62.632721973078" lon="17.969549139307">
        <ele>52.2</ele>
        <time>2018-01-29T18:50:50Z</time>
      </trkpt>
      <trkpt lat="62.63274527476" lon="17.969550396592">
        <ele>52.2</ele>
        <time>2018-01-29T18:50:51Z</time>
      </trkpt>
      <trkpt lat="62.632768241166" lon="17.969554587542">
        <ele>52.2</ele>
        <time>2018-01-29T18:50:52Z</time>
      </trkpt>
      <trkpt lat="62.632788525364" lon="17.969556599198">
        <ele>52.2</ele>
        <time>2018-01-29T18:50:53Z</time>
      </trkpt>
      <trkpt lat="62.632808306648" lon="17.969555341913">
        <ele>52.4</ele>
        <time>2018-01-29T18:50:54Z</time>
      </trkpt>
      <trkpt lat="62.632832781796" lon="17.969561209243">
        <ele>52.2</ele>
        <time>2018-01-29T18:50:55Z</time>
      </trkpt>
      <trkpt lat="62.632852395442" lon="17.9695614607">
        <ele>52.4</ele>
        <time>2018-01-29T18:50:56Z</time>
      </trkpt>
      <trkpt lat="62.632877038228" lon="17.969566154564">
        <ele>52.6</ele>
        <time>2018-01-29T18:50:57Z</time>
      </trkpt>
      <trkpt lat="62.632899082625" lon="17.969571686618">
        <ele>52.6</ele>
        <time>2018-01-29T18:50:58Z</time>
      </trkpt>
      <trkpt lat="62.632917690443" lon="17.969569926419">
        <ele>52.8</ele>
        <time>2018-01-29T18:50:59Z</time>
      </trkpt>
      <trkpt lat="62.632947027093" lon="17.969573698274">
        <ele>52.8</ele>
        <time>2018-01-29T18:51:00Z</time>
      </trkpt>
      <trkpt lat="62.63296907149" lon="17.969582331631">
        <ele>52.8</ele>
        <time>2018-01-29T18:51:01Z</time>
      </trkpt>
      <trkpt lat="62.63299421719" lon="17.969589623884">
        <ele>53</ele>
        <time>2018-01-29T18:51:02Z</time>
      </trkpt>
      <trkpt lat="62.633019865804" lon="17.969597921965">
        <ele>52.8</ele>
        <time>2018-01-29T18:51:03Z</time>
      </trkpt>
      <trkpt lat="62.633040904373" lon="17.969605633313">
        <ele>52.8</ele>
        <time>2018-01-29T18:51:04Z</time>
      </trkpt>
      <trkpt lat="62.633062362037" lon="17.969612925566">
        <ele>53.2</ele>
        <time>2018-01-29T18:51:05Z</time>
      </trkpt>
      <trkpt lat="62.633089267936" lon="17.969618122344">
        <ele>53.2</ele>
        <time>2018-01-29T18:51:06Z</time>
      </trkpt>
      <trkpt lat="62.633111396152" lon="17.969621558923">
        <ele>53.2</ele>
        <time>2018-01-29T18:51:07Z</time>
      </trkpt>
      <trkpt lat="62.633135619843" lon="17.969628264443">
        <ele>53.2</ele>
        <time>2018-01-29T18:51:08Z</time>
      </trkpt>
      <trkpt lat="62.633156909869" lon="17.969630946651">
        <ele>53.2</ele>
        <time>2018-01-29T18:51:09Z</time>
      </trkpt>
      <trkpt lat="62.633182558483" lon="17.969634047954">
        <ele>53.2</ele>
        <time>2018-01-29T18:51:10Z</time>
      </trkpt>
      <trkpt lat="62.633207871821" lon="17.96963857418">
        <ele>53.2</ele>
        <time>2018-01-29T18:51:11Z</time>
      </trkpt>
      <trkpt lat="62.633233017521" lon="17.969638741818">
        <ele>53.2</ele>
        <time>2018-01-29T18:51:12Z</time>
      </trkpt>
      <trkpt lat="62.633257073574" lon="17.969636981619">
        <ele>53.4</ele>
        <time>2018-01-29T18:51:13Z</time>
      </trkpt>
      <trkpt lat="62.633278782695" lon="17.969628767357">
        <ele>53.4</ele>
        <time>2018-01-29T18:51:14Z</time>
      </trkpt>
      <trkpt lat="62.633298899255" lon="17.969609321349">
        <ele>53.4</ele>
        <time>2018-01-29T18:51:15Z</time>
      </trkpt>
      <trkpt lat="62.633316585064" lon="17.969586019667">
        <ele>53.4</ele>
        <time>2018-01-29T18:51:16Z</time>
      </trkpt>
      <trkpt lat="62.633332426855" lon="17.969563639994">
        <ele>53.6</ele>
        <time>2018-01-29T18:51:17Z</time>
      </trkpt>
      <trkpt lat="62.633347430456" lon="17.969539164846">
        <ele>53.6</ele>
        <time>2018-01-29T18:51:18Z</time>
      </trkpt>
      <trkpt lat="62.633362517876" lon="17.969513097137">
        <ele>53.6</ele>
        <time>2018-01-29T18:51:19Z</time>
      </trkpt>
      <trkpt lat="62.633382382979" lon="17.969477474062">
        <ele>53.4</ele>
        <time>2018-01-29T18:51:20Z</time>
      </trkpt>
      <trkpt lat="62.633395877838" lon="17.969444449376">
        <ele>53.4</ele>
        <time>2018-01-29T18:51:21Z</time>
      </trkpt>
      <trkpt lat="62.633408953602" lon="17.969407401378">
        <ele>53.4</ele>
        <time>2018-01-29T18:51:22Z</time>
      </trkpt>
      <trkpt lat="62.633419011882" lon="17.969363144946">
        <ele>53.2</ele>
        <time>2018-01-29T18:51:23Z</time>
      </trkpt>
      <trkpt lat="62.633422029366" lon="17.969319726704">
        <ele>53.2</ele>
        <time>2018-01-29T18:51:24Z</time>
      </trkpt>
      <trkpt lat="62.633424460117" lon="17.969263735612">
        <ele>53</ele>
        <time>2018-01-29T18:51:25Z</time>
      </trkpt>
      <trkpt lat="62.633427226144" lon="17.969212270746">
        <ele>52.8</ele>
        <time>2018-01-29T18:51:26Z</time>
      </trkpt>
      <trkpt lat="62.633428231972" lon="17.969160051509">
        <ele>52.8</ele>
        <time>2018-01-29T18:51:27Z</time>
      </trkpt>
      <trkpt lat="62.63343259056" lon="17.969105569159">
        <ele>52.8</ele>
        <time>2018-01-29T18:51:28Z</time>
      </trkpt>
      <trkpt lat="62.63343510513" lon="17.969056535044">
        <ele>52.6</ele>
        <time>2018-01-29T18:51:29Z</time>
      </trkpt>
      <trkpt lat="62.633437368243" lon="17.968996185364">
        <ele>52.4</ele>
        <time>2018-01-29T18:51:30Z</time>
      </trkpt>
      <trkpt lat="62.633442984116" lon="17.968941786833">
        <ele>52.2</ele>
        <time>2018-01-29T18:51:31Z</time>
      </trkpt>
      <trkpt lat="62.633448180894" lon="17.96888839413">
        <ele>52.2</ele>
        <time>2018-01-29T18:51:32Z</time>
      </trkpt>
      <trkpt lat="62.633452874758" lon="17.968841371671">
        <ele>52</ele>
        <time>2018-01-29T18:51:33Z</time>
      </trkpt>
      <trkpt lat="62.63345857445" lon="17.968792253737">
        <ele>51.8</ele>
        <time>2018-01-29T18:51:34Z</time>
      </trkpt>
      <trkpt lat="62.633463771228" lon="17.968742213794">
        <ele>51.8</ele>
        <time>2018-01-29T18:51:35Z</time>
      </trkpt>
      <trkpt lat="62.63346947092" lon="17.968695778068">
        <ele>51.6</ele>
        <time>2018-01-29T18:51:36Z</time>
      </trkpt>
      <trkpt lat="62.633479026286" lon="17.968643977926">
        <ele>51.4</ele>
        <time>2018-01-29T18:51:37Z</time>
      </trkpt>
      <trkpt lat="62.633486989091" lon="17.968590082309">
        <ele>51.4</ele>
        <time>2018-01-29T18:51:38Z</time>
      </trkpt>
      <trkpt lat="62.633494868077" lon="17.968546580248">
        <ele>51</ele>
        <time>2018-01-29T18:51:39Z</time>
      </trkpt>
      <trkpt lat="62.633507105651" lon="17.968483883636">
        <ele>51</ele>
        <time>2018-01-29T18:51:40Z</time>
      </trkpt>
      <trkpt lat="62.633513727352" lon="17.968430826209">
        <ele>50.6</ele>
        <time>2018-01-29T18:51:41Z</time>
      </trkpt>
      <trkpt lat="62.63351724775" lon="17.968375757126">
        <ele>50.4</ele>
        <time>2018-01-29T18:51:42Z</time>
      </trkpt>
      <trkpt lat="62.633525964926" lon="17.968317922016">
        <ele>50</ele>
        <time>2018-01-29T18:51:43Z</time>
      </trkpt>
      <trkpt lat="62.633531916075" lon="17.968269306996">
        <ele>49.8</ele>
        <time>2018-01-29T18:51:44Z</time>
      </trkpt>
      <trkpt lat="62.633540381794" lon="17.968216836302">
        <ele>49.8</ele>
        <time>2018-01-29T18:51:45Z</time>
      </trkpt>
      <trkpt lat="62.633548763694" lon="17.968166963997">
        <ele>49.6</ele>
        <time>2018-01-29T18:51:46Z</time>
      </trkpt>
      <trkpt lat="62.633557732327" lon="17.968115666769">
        <ele>49.4</ele>
        <time>2018-01-29T18:51:47Z</time>
      </trkpt>
      <trkpt lat="62.633560665992" lon="17.968060849143">
        <ele>49.4</ele>
        <time>2018-01-29T18:51:48Z</time>
      </trkpt>
      <trkpt lat="62.633566617141" lon="17.968006953526">
        <ele>49.4</ele>
        <time>2018-01-29T18:51:49Z</time>
      </trkpt>
      <trkpt lat="62.633572233014" lon="17.967953141728">
        <ele>49.2</ele>
        <time>2018-01-29T18:51:50Z</time>
      </trkpt>
      <trkpt lat="62.633579525267" lon="17.967904778165">
        <ele>48.8</ele>
        <time>2018-01-29T18:51:51Z</time>
      </trkpt>
      <trkpt lat="62.633587152796" lon="17.967851134005">
        <ele>48.6</ele>
        <time>2018-01-29T18:51:52Z</time>
      </trkpt>
      <trkpt lat="62.633594528868" lon="17.967801010243">
        <ele>48.4</ele>
        <time>2018-01-29T18:51:53Z</time>
      </trkpt>
      <trkpt lat="62.633601234388" lon="17.967757424363">
        <ele>48.2</ele>
        <time>2018-01-29T18:51:54Z</time>
      </trkpt>
      <trkpt lat="62.633609700107" lon="17.967696152674">
        <ele>48.2</ele>
        <time>2018-01-29T18:51:55Z</time>
      </trkpt>
      <trkpt lat="62.633615986532" lon="17.967646280369">
        <ele>48</ele>
        <time>2018-01-29T18:51:56Z</time>
      </trkpt>
      <trkpt lat="62.633622608233" lon="17.967591295105">
        <ele>48</ele>
        <time>2018-01-29T18:51:57Z</time>
      </trkpt>
      <trkpt lat="62.63363124159" lon="17.967538153859">
        <ele>47.8</ele>
        <time>2018-01-29T18:51:58Z</time>
      </trkpt>
      <trkpt lat="62.633636606006" lon="17.967491801952">
        <ele>47.6</ele>
        <time>2018-01-29T18:51:59Z</time>
      </trkpt>
      <trkpt lat="62.633642640974" lon="17.967438241611">
        <ele>47.4</ele>
        <time>2018-01-29T18:52:00Z</time>
      </trkpt>
      <trkpt lat="62.633650687598" lon="17.967387782573">
        <ele>47.2</ele>
        <time>2018-01-29T18:52:01Z</time>
      </trkpt>
      <trkpt lat="62.633657644575" lon="17.96733522806">
        <ele>46.8</ele>
        <time>2018-01-29T18:52:02Z</time>
      </trkpt>
      <trkpt lat="62.633664014819" lon="17.967284852841">
        <ele>46.4</ele>
        <time>2018-01-29T18:52:03Z</time>
      </trkpt>
      <trkpt lat="62.633671223253" lon="17.967233387975">
        <ele>46.2</ele>
        <time>2018-01-29T18:52:04Z</time>
      </trkpt>
      <trkpt lat="62.633679688972" lon="17.967184018584">
        <ele>45.8</ele>
        <time>2018-01-29T18:52:05Z</time>
      </trkpt>
      <trkpt lat="62.633685640121" lon="17.967131631709">
        <ele>45.8</ele>
        <time>2018-01-29T18:52:06Z</time>
      </trkpt>
      <trkpt lat="62.63369159127" lon="17.96707622735">
        <ele>45.4</ele>
        <time>2018-01-29T18:52:07Z</time>
      </trkpt>
      <trkpt lat="62.63369913498" lon="17.967027277054">
        <ele>45.2</ele>
        <time>2018-01-29T18:52:08Z</time>
      </trkpt>
      <trkpt lat="62.633703074473" lon="17.966984697002">
        <ele>45</ele>
        <time>2018-01-29T18:52:09Z</time>
      </trkpt>
      <trkpt lat="62.633711791649" lon="17.966923425313">
        <ele>44.8</ele>
        <time>2018-01-29T18:52:10Z</time>
      </trkpt>
      <trkpt lat="62.633717658979" lon="17.966870954619">
        <ele>44.8</ele>
        <time>2018-01-29T18:52:11Z</time>
      </trkpt>
      <trkpt lat="62.633722017567" lon="17.966814041518">
        <ele>44.6</ele>
        <time>2018-01-29T18:52:12Z</time>
      </trkpt>
      <trkpt lat="62.633729477458" lon="17.966757296055">
        <ele>44.4</ele>
        <time>2018-01-29T18:52:13Z</time>
      </trkpt>
      <trkpt lat="62.633734590417" lon="17.966702729886">
        <ele>44.4</ele>
        <time>2018-01-29T18:52:14Z</time>
      </trkpt>
      <trkpt lat="62.633740541566" lon="17.966654366323">
        <ele>44.2</ele>
        <time>2018-01-29T18:52:15Z</time>
      </trkpt>
      <trkpt lat="62.633747833819" lon="17.966597034127">
        <ele>44</ele>
        <time>2018-01-29T18:52:16Z</time>
      </trkpt>
      <trkpt lat="62.633754287882" lon="17.966545988356">
        <ele>44</ele>
        <time>2018-01-29T18:52:17Z</time>
      </trkpt>
      <trkpt lat="62.63376032285" lon="17.96649117073">
        <ele>43.6</ele>
        <time>2018-01-29T18:52:18Z</time>
      </trkpt>
      <trkpt lat="62.633766693094" lon="17.96644423209">
        <ele>43.4</ele>
        <time>2018-01-29T18:52:19Z</time>
      </trkpt>
      <trkpt lat="62.63377373389" lon="17.966391007025">
        <ele>43.4</ele>
        <time>2018-01-29T18:52:20Z</time>
      </trkpt>
      <trkpt lat="62.633778176297" lon="17.966340547987">
        <ele>43.2</ele>
        <time>2018-01-29T18:52:21Z</time>
      </trkpt>
      <trkpt lat="62.633784378903" lon="17.966292771157">
        <ele>43</ele>
        <time>2018-01-29T18:52:22Z</time>
      </trkpt>
      <trkpt lat="62.6337896595" lon="17.966238288807">
        <ele>42.8</ele>
        <time>2018-01-29T18:52:23Z</time>
      </trkpt>
      <trkpt lat="62.633794521002" lon="17.966196546945">
        <ele>42.4</ele>
        <time>2018-01-29T18:52:24Z</time>
      </trkpt>
      <trkpt lat="62.633797370848" lon="17.966140304396">
        <ele>42.2</ele>
        <time>2018-01-29T18:52:25Z</time>
      </trkpt>
      <trkpt lat="62.633802399988" lon="17.966086660236">
        <ele>41.8</ele>
        <time>2018-01-29T18:52:26Z</time>
      </trkpt>
      <trkpt lat="62.6338064233" lon="17.966039051044">
        <ele>41.6</ele>
        <time>2018-01-29T18:52:27Z</time>
      </trkpt>
      <trkpt lat="62.633809692241" lon="17.965994459336">
        <ele>41.4</ele>
        <time>2018-01-29T18:52:28Z</time>
      </trkpt>
      <trkpt lat="62.633813212639" lon="17.965946514868">
        <ele>41.2</ele>
        <time>2018-01-29T18:52:29Z</time>
      </trkpt>
      <trkpt lat="62.633816565399" lon="17.965886249007">
        <ele>41</ele>
        <time>2018-01-29T18:52:30Z</time>
      </trkpt>
      <trkpt lat="62.633820001978" lon="17.965839394186">
        <ele>40.8</ele>
        <time>2018-01-29T18:52:31Z</time>
      </trkpt>
      <trkpt lat="62.63382151072" lon="17.96578457656">
        <ele>40.8</ele>
        <time>2018-01-29T18:52:32Z</time>
      </trkpt>
      <trkpt lat="62.633823354738" lon="17.965731435314">
        <ele>40.6</ele>
        <time>2018-01-29T18:52:33Z</time>
      </trkpt>
      <trkpt lat="62.633823522376" lon="17.965687849434">
        <ele>40.4</ele>
        <time>2018-01-29T18:52:34Z</time>
      </trkpt>
      <trkpt lat="62.633822013634" lon="17.965633953817">
        <ele>40.2</ele>
        <time>2018-01-29T18:52:35Z</time>
      </trkpt>
      <trkpt lat="62.633820588711" lon="17.965578465639">
        <ele>40.2</ele>
        <time>2018-01-29T18:52:36Z</time>
      </trkpt>
      <trkpt lat="62.633820169616" lon="17.965529850619">
        <ele>40</ele>
        <time>2018-01-29T18:52:37Z</time>
      </trkpt>
      <trkpt lat="62.633817906503" lon="17.965475032993">
        <ele>40</ele>
        <time>2018-01-29T18:52:38Z</time>
      </trkpt>
      <trkpt lat="62.633815140476" lon="17.965431447113">
        <ele>39.8</ele>
        <time>2018-01-29T18:52:39Z</time>
      </trkpt>
      <trkpt lat="62.633812039173" lon="17.965379395514">
        <ele>39.6</ele>
        <time>2018-01-29T18:52:40Z</time>
      </trkpt>
      <trkpt lat="62.633809273146" lon="17.965330864313">
        <ele>39.4</ele>
        <time>2018-01-29T18:52:41Z</time>
      </trkpt>
      <trkpt lat="62.633809608422" lon="17.965278812714">
        <ele>39.4</ele>
        <time>2018-01-29T18:52:42Z</time>
      </trkpt>
      <trkpt lat="62.633808686413" lon="17.965232125531">
        <ele>39</ele>
        <time>2018-01-29T18:52:43Z</time>
      </trkpt>
      <trkpt lat="62.63380893787" lon="17.965186025081">
        <ele>38.8</ele>
        <time>2018-01-29T18:52:44Z</time>
      </trkpt>
      <trkpt lat="62.633811536259" lon="17.965136907147">
        <ele>38.6</ele>
        <time>2018-01-29T18:52:45Z</time>
      </trkpt>
      <trkpt lat="62.633811536259" lon="17.965094997647">
        <ele>38.2</ele>
        <time>2018-01-29T18:52:46Z</time>
      </trkpt>
      <trkpt lat="62.633814553743" lon="17.965051076491">
        <ele>38</ele>
        <time>2018-01-29T18:52:47Z</time>
      </trkpt>
      <trkpt lat="62.633815140476" lon="17.965011094828">
        <ele>37.8</ele>
        <time>2018-01-29T18:52:48Z</time>
      </trkpt>
      <trkpt lat="62.633818074141" lon="17.964969185328">
        <ele>37.6</ele>
        <time>2018-01-29T18:52:49Z</time>
      </trkpt>
      <trkpt lat="62.633824276747" lon="17.964931131502">
        <ele>37.4</ele>
        <time>2018-01-29T18:52:50Z</time>
      </trkpt>
      <trkpt lat="62.633835005579" lon="17.964886791251">
        <ele>37.4</ele>
        <time>2018-01-29T18:52:51Z</time>
      </trkpt>
      <trkpt lat="62.633853781035" lon="17.964852593099">
        <ele>37.2</ele>
        <time>2018-01-29T18:52:52Z</time>
      </trkpt>
      <trkpt lat="62.63387180212" lon="17.96482149625">
        <ele>37.2</ele>
        <time>2018-01-29T18:52:53Z</time>
      </trkpt>
      <trkpt lat="62.633890996671" lon="17.96479886512">
        <ele>37</ele>
        <time>2018-01-29T18:52:54Z</time>
      </trkpt>
      <trkpt lat="62.633917483475" lon="17.964770031384">
        <ele>36.8</ele>
        <time>2018-01-29T18:52:55Z</time>
      </trkpt>
      <trkpt lat="62.633936761845" lon="17.96474438277">
        <ele>36.8</ele>
        <time>2018-01-29T18:52:56Z</time>
      </trkpt>
      <trkpt lat="62.633961656088" lon="17.964722254554">
        <ele>36.6</ele>
        <time>2018-01-29T18:52:57Z</time>
      </trkpt>
      <trkpt lat="62.63398747234" lon="17.96471588431">
        <ele>36.6</ele>
        <time>2018-01-29T18:52:58Z</time>
      </trkpt>
      <trkpt lat="62.634008930004" lon="17.964712363912">
        <ele>36.6</ele>
        <time>2018-01-29T18:52:59Z</time>
      </trkpt>
      <trkpt lat="62.63403776374" lon="17.964711944817">
        <ele>36.6</ele>
        <time>2018-01-29T18:53:00Z</time>
      </trkpt>
      <trkpt lat="62.634063915268" lon="17.964710938989">
        <ele>36.4</ele>
        <time>2018-01-29T18:53:01Z</time>
      </trkpt>
      <trkpt lat="62.634089228606" lon="17.964711106627">
        <ele>36.4</ele>
        <time>2018-01-29T18:53:02Z</time>
      </trkpt>
      <trkpt lat="62.634114541944" lon="17.964709597885">
        <ele>36.4</ele>
        <time>2018-01-29T18:53:03Z</time>
      </trkpt>
      <trkpt lat="62.634139603825" lon="17.964708508238">
        <ele>36.4</ele>
        <time>2018-01-29T18:53:04Z</time>
      </trkpt>
      <trkpt lat="62.634163743697" lon="17.964705658392">
        <ele>36.2</ele>
        <time>2018-01-29T18:53:05Z</time>
      </trkpt>
      <trkpt lat="62.634191236329" lon="17.964706831858">
        <ele>36.2</ele>
        <time>2018-01-29T18:53:06Z</time>
      </trkpt>
      <trkpt lat="62.634216214391" lon="17.964709849342">
        <ele>36</ele>
        <time>2018-01-29T18:53:07Z</time>
      </trkpt>
      <trkpt lat="62.634240354263" lon="17.964708927333">
        <ele>36</ele>
        <time>2018-01-29T18:53:08Z</time>
      </trkpt>
      <trkpt lat="62.634263069212" lon="17.964707334772">
        <ele>35.8</ele>
        <time>2018-01-29T18:53:09Z</time>
      </trkpt>
      <trkpt lat="62.634290561844" lon="17.964704820202">
        <ele>35.8</ele>
        <time>2018-01-29T18:53:10Z</time>
      </trkpt>
      <trkpt lat="62.634312354784" lon="17.964703227641">
        <ele>35.8</ele>
        <time>2018-01-29T18:53:11Z</time>
      </trkpt>
      <trkpt lat="62.634338338674" lon="17.964705574573">
        <ele>35.6</ele>
        <time>2018-01-29T18:53:12Z</time>
      </trkpt>
      <trkpt lat="62.634360885985" lon="17.964706161306">
        <ele>35.4</ele>
        <time>2018-01-29T18:53:13Z</time>
      </trkpt>
      <trkpt lat="62.634382176011" lon="17.964698114682">
        <ele>35.6</ele>
        <time>2018-01-29T18:53:14Z</time>
      </trkpt>
      <trkpt lat="62.634408411358" lon="17.96469241499">
        <ele>35.4</ele>
        <time>2018-01-29T18:53:15Z</time>
      </trkpt>
      <trkpt lat="62.634429533746" lon="17.964692582628">
        <ele>35.4</ele>
        <time>2018-01-29T18:53:16Z</time>
      </trkpt>
      <trkpt lat="62.634450823772" lon="17.964691995895">
        <ele>35.4</ele>
        <time>2018-01-29T18:53:17Z</time>
      </trkpt>
      <trkpt lat="62.634474544549" lon="17.964696354483">
        <ele>35.4</ele>
        <time>2018-01-29T18:53:18Z</time>
      </trkpt>
      <trkpt lat="62.634495834575" lon="17.964697276492">
        <ele>35.2</ele>
        <time>2018-01-29T18:53:19Z</time>
      </trkpt>
      <trkpt lat="62.634519471533" lon="17.96469744413">
        <ele>35.2</ele>
        <time>2018-01-29T18:53:20Z</time>
      </trkpt>
      <trkpt lat="62.634543862862" lon="17.964697360311">
        <ele>35.2</ele>
        <time>2018-01-29T18:53:21Z</time>
      </trkpt>
      <trkpt lat="62.634566577811" lon="17.96469492956">
        <ele>35.2</ele>
        <time>2018-01-29T18:53:22Z</time>
      </trkpt>
      <trkpt lat="62.634590298588" lon="17.964692666447">
        <ele>35.2</ele>
        <time>2018-01-29T18:53:23Z</time>
      </trkpt>
      <trkpt lat="62.634612007709" lon="17.96469241499">
        <ele>35</ele>
        <time>2018-01-29T18:53:24Z</time>
      </trkpt>
      <trkpt lat="62.634636315219" lon="17.964689732782">
        <ele>35</ele>
        <time>2018-01-29T18:53:25Z</time>
      </trkpt>
      <trkpt lat="62.634662382928" lon="17.964688056402">
        <ele>35</ele>
        <time>2018-01-29T18:53:26Z</time>
      </trkpt>
      <trkpt lat="62.634685768429" lon="17.964685960927">
        <ele>34.8</ele>
        <time>2018-01-29T18:53:27Z</time>
      </trkpt>
      <trkpt lat="62.634708986292" lon="17.964681434701">
        <ele>34.8</ele>
        <time>2018-01-29T18:53:28Z</time>
      </trkpt>
      <trkpt lat="62.634729773404" lon="17.964682608167">
        <ele>34.8</ele>
        <time>2018-01-29T18:53:29Z</time>
      </trkpt>
      <trkpt lat="62.634753494181" lon="17.964680596511">
        <ele>34.8</ele>
        <time>2018-01-29T18:53:30Z</time>
      </trkpt>
      <trkpt lat="62.634772269637" lon="17.964679171588">
        <ele>34.8</ele>
        <time>2018-01-29T18:53:31Z</time>
      </trkpt>
      <trkpt lat="62.634796493328" lon="17.964676405561">
        <ele>34.6</ele>
        <time>2018-01-29T18:53:32Z</time>
      </trkpt>
      <trkpt lat="62.634821052295" lon="17.964674310086">
        <ele>34.4</ele>
        <time>2018-01-29T18:53:33Z</time>
      </trkpt>
      <trkpt lat="62.634841252674" lon="17.964669951498">
        <ele>34.6</ele>
        <time>2018-01-29T18:53:34Z</time>
      </trkpt>
      <trkpt lat="62.634865644003" lon="17.964669197127">
        <ele>34.4</ele>
        <time>2018-01-29T18:53:35Z</time>
      </trkpt>
      <trkpt lat="62.634887520762" lon="17.964661485779">
        <ele>34.4</ele>
        <time>2018-01-29T18:53:36Z</time>
      </trkpt>
      <trkpt lat="62.63490948134" lon="17.964655031716">
        <ele>34.6</ele>
        <time>2018-01-29T18:53:37Z</time>
      </trkpt>
      <trkpt lat="62.634927250968" lon="17.964653942069">
        <ele>34.4</ele>
        <time>2018-01-29T18:53:38Z</time>
      </trkpt>
      <trkpt lat="62.634950133555" lon="17.964649583481">
        <ele>34.4</ele>
        <time>2018-01-29T18:53:39Z</time>
      </trkpt>
      <trkpt lat="62.634977039454" lon="17.964643716151">
        <ele>34.2</ele>
        <time>2018-01-29T18:53:40Z</time>
      </trkpt>
      <trkpt lat="62.634997239833" lon="17.964639692839">
        <ele>34.4</ele>
        <time>2018-01-29T18:53:41Z</time>
      </trkpt>
      <trkpt lat="62.635018781316" lon="17.964630640387">
        <ele>34.2</ele>
        <time>2018-01-29T18:53:42Z</time>
      </trkpt>
      <trkpt lat="62.635042669731" lon="17.964624018686">
        <ele>34.2</ele>
        <time>2018-01-29T18:53:43Z</time>
      </trkpt>
      <trkpt lat="62.635063373024" lon="17.964616223519">
        <ele>34.2</ele>
        <time>2018-01-29T18:53:44Z</time>
      </trkpt>
      <trkpt lat="62.635087931991" lon="17.96460524323">
        <ele>34</ele>
        <time>2018-01-29T18:53:45Z</time>
      </trkpt>
      <trkpt lat="62.635112742415" lon="17.964594598217">
        <ele>34</ele>
        <time>2018-01-29T18:53:46Z</time>
      </trkpt>
      <trkpt lat="62.635132523699" lon="17.964582193005">
        <ele>34.2</ele>
        <time>2018-01-29T18:53:47Z</time>
      </trkpt>
      <trkpt lat="62.635155741562" lon="17.964569284879">
        <ele>34.2</ele>
        <time>2018-01-29T18:53:48Z</time>
      </trkpt>
      <trkpt lat="62.635178288873" lon="17.964558136952">
        <ele>34.2</ele>
        <time>2018-01-29T18:53:49Z</time>
      </trkpt>
      <trkpt lat="62.63519949508" lon="17.964546402292">
        <ele>34.2</ele>
        <time>2018-01-29T18:53:50Z</time>
      </trkpt>
      <trkpt lat="62.635213828129" lon="17.964539277677">
        <ele>34</ele>
        <time>2018-01-29T18:53:51Z</time>
      </trkpt>
      <trkpt lat="62.635246601358" lon="17.96452729156">
        <ele>34.2</ele>
        <time>2018-01-29T18:53:52Z</time>
      </trkpt>
      <trkpt lat="62.635266801737" lon="17.96451639509">
        <ele>34</ele>
        <time>2018-01-29T18:53:53Z</time>
      </trkpt>
      <trkpt lat="62.635288762315" lon="17.964506755905">
        <ele>34</ele>
        <time>2018-01-29T18:53:54Z</time>
      </trkpt>
      <trkpt lat="62.635314746205" lon="17.964499798928">
        <ele>33.8</ele>
        <time>2018-01-29T18:53:55Z</time>
      </trkpt>
      <trkpt lat="62.635335952412" lon="17.964489321553">
        <ele>33.8</ele>
        <time>2018-01-29T18:53:56Z</time>
      </trkpt>
      <trkpt lat="62.635361433388" lon="17.964474150314">
        <ele>33.8</ele>
        <time>2018-01-29T18:53:57Z</time>
      </trkpt>
      <trkpt lat="62.635385740898" lon="17.964460823093">
        <ele>33.6</ele>
        <time>2018-01-29T18:53:58Z</time>
      </trkpt>
      <trkpt lat="62.635406192734" lon="17.964449172252">
        <ele>33.6</ele>
        <time>2018-01-29T18:53:59Z</time>
      </trkpt>
      <trkpt lat="62.635434439737" lon="17.964440874171">
        <ele>33.4</ele>
        <time>2018-01-29T18:54:00Z</time>
      </trkpt>
      <trkpt lat="62.635458663428" lon="17.964434671565">
        <ele>33.4</ele>
        <time>2018-01-29T18:54:01Z</time>
      </trkpt>
      <trkpt lat="62.635478528531" lon="17.964423439819">
        <ele>33.2</ele>
        <time>2018-01-29T18:54:02Z</time>
      </trkpt>
      <trkpt lat="62.63550375805" lon="17.964409274408">
        <ele>33.2</ele>
        <time>2018-01-29T18:54:03Z</time>
      </trkpt>
      <trkpt lat="62.635527897922" lon="17.964398964671">
        <ele>33.2</ele>
        <time>2018-01-29T18:54:04Z</time>
      </trkpt>
      <trkpt lat="62.635549774681" lon="17.964383877251">
        <ele>33.2</ele>
        <time>2018-01-29T18:54:05Z</time>
      </trkpt>
      <trkpt lat="62.635576010028" lon="17.964370130935">
        <ele>33.2</ele>
        <time>2018-01-29T18:54:06Z</time>
      </trkpt>
      <trkpt lat="62.635598892615" lon="17.964354708239">
        <ele>33</ele>
        <time>2018-01-29T18:54:07Z</time>
      </trkpt>
      <trkpt lat="62.635620601736" lon="17.964341381018">
        <ele>33</ele>
        <time>2018-01-29T18:54:08Z</time>
      </trkpt>
      <trkpt lat="62.635638958097" lon="17.964328891987">
        <ele>32.8</ele>
        <time>2018-01-29T18:54:09Z</time>
      </trkpt>
      <trkpt lat="62.635663265607" lon="17.964314642757">
        <ele>32.8</ele>
        <time>2018-01-29T18:54:10Z</time>
      </trkpt>
      <trkpt lat="62.635680113226" lon="17.964300812622">
        <ele>32.8</ele>
        <time>2018-01-29T18:54:11Z</time>
      </trkpt>
      <trkpt lat="62.635699978329" lon="17.964288575048">
        <ele>32.8</ele>
        <time>2018-01-29T18:54:12Z</time>
      </trkpt>
      <trkpt lat="62.635721435993" lon="17.964277846216">
        <ele>32.8</ele>
        <time>2018-01-29T18:54:13Z</time>
      </trkpt>
      <trkpt lat="62.635744234761" lon="17.964263596986">
        <ele>32.6</ele>
        <time>2018-01-29T18:54:14Z</time>
      </trkpt>
      <trkpt lat="62.635770470108" lon="17.964244402435">
        <ele>32.6</ele>
        <time>2018-01-29T18:54:15Z</time>
      </trkpt>
      <trkpt lat="62.635791760134" lon="17.964226297531">
        <ele>32.4</ele>
        <time>2018-01-29T18:54:16Z</time>
      </trkpt>
      <trkpt lat="62.635816570558" lon="17.964212299758">
        <ele>32.4</ele>
        <time>2018-01-29T18:54:17Z</time>
      </trkpt>
      <trkpt lat="62.635841632439" lon="17.964193189026">
        <ele>32.4</ele>
        <time>2018-01-29T18:54:18Z</time>
      </trkpt>
      <trkpt lat="62.635862251913" lon="17.964176006131">
        <ele>32.2</ele>
        <time>2018-01-29T18:54:19Z</time>
      </trkpt>
      <trkpt lat="62.635887313794" lon="17.964159242331">
        <ele>32.4</ele>
        <time>2018-01-29T18:54:20Z</time>
      </trkpt>
      <trkpt lat="62.63591195658" lon="17.964143651997">
        <ele>32.2</ele>
        <time>2018-01-29T18:54:21Z</time>
      </trkpt>
      <trkpt lat="62.635934922986" lon="17.964118757754">
        <ele>32.2</ele>
        <time>2018-01-29T18:54:22Z</time>
      </trkpt>
      <trkpt lat="62.635960320143" lon="17.964101658678">
        <ele>32.2</ele>
        <time>2018-01-29T18:54:23Z</time>
      </trkpt>
      <trkpt lat="62.635983035092" lon="17.964090175475">
        <ele>32.2</ele>
        <time>2018-01-29T18:54:24Z</time>
      </trkpt>
      <trkpt lat="62.63600499567" lon="17.964073746951">
        <ele>32.2</ele>
        <time>2018-01-29T18:54:25Z</time>
      </trkpt>
      <trkpt lat="62.636032236845" lon="17.964073746951">
        <ele>32</ele>
        <time>2018-01-29T18:54:26Z</time>
      </trkpt>
      <trkpt lat="62.636056628174" lon="17.964076010064">
        <ele>32</ele>
        <time>2018-01-29T18:54:27Z</time>
      </trkpt>
      <trkpt lat="62.636080935684" lon="17.964074417503">
        <ele>32</ele>
        <time>2018-01-29T18:54:28Z</time>
      </trkpt>
      <trkpt lat="62.636103818271" lon="17.964079362824">
        <ele>31.8</ele>
        <time>2018-01-29T18:54:29Z</time>
      </trkpt>
      <trkpt lat="62.636130556532" lon="17.96408891819">
        <ele>31.8</ele>
        <time>2018-01-29T18:54:30Z</time>
      </trkpt>
      <trkpt lat="62.636153103843" lon="17.964106101085">
        <ele>31.8</ele>
        <time>2018-01-29T18:54:31Z</time>
      </trkpt>
      <trkpt lat="62.636175399697" lon="17.964129738043">
        <ele>31.8</ele>
        <time>2018-01-29T18:54:32Z</time>
      </trkpt>
      <trkpt lat="62.636197611732" lon="17.964150273698">
        <ele>31.8</ele>
        <time>2018-01-29T18:54:33Z</time>
      </trkpt>
      <trkpt lat="62.63621957231" lon="17.96417441357">
        <ele>31.8</ele>
        <time>2018-01-29T18:54:34Z</time>
      </trkpt>
      <trkpt lat="62.636242790173" lon="17.964195452139">
        <ele>31.8</ele>
        <time>2018-01-29T18:54:35Z</time>
      </trkpt>
      <trkpt lat="62.636265756579" lon="17.964205594238">
        <ele>31.6</ele>
        <time>2018-01-29T18:54:36Z</time>
      </trkpt>
      <trkpt lat="62.636291405193" lon="17.964206013333">
        <ele>31.6</ele>
        <time>2018-01-29T18:54:37Z</time>
      </trkpt>
      <trkpt lat="62.636316467074" lon="17.964199140175">
        <ele>31.8</ele>
        <time>2018-01-29T18:54:38Z</time>
      </trkpt>
      <trkpt lat="62.636334236702" lon="17.964184052755">
        <ele>31.8</ele>
        <time>2018-01-29T18:54:39Z</time>
      </trkpt>
      <trkpt lat="62.636360639687" lon="17.964163600919">
        <ele>31.8</ele>
        <time>2018-01-29T18:54:40Z</time>
      </trkpt>
      <trkpt lat="62.636384109007" lon="17.964145328377">
        <ele>31.8</ele>
        <time>2018-01-29T18:54:41Z</time>
      </trkpt>
      <trkpt lat="62.636407745965" lon="17.964120182677">
        <ele>31.8</ele>
        <time>2018-01-29T18:54:42Z</time>
      </trkpt>
      <trkpt lat="62.636432640208" lon="17.964106855456">
        <ele>31.8</ele>
        <time>2018-01-29T18:54:43Z</time>
      </trkpt>
      <trkpt lat="62.636455606614" lon="17.964097048633">
        <ele>31.8</ele>
        <time>2018-01-29T18:54:44Z</time>
      </trkpt>
      <trkpt lat="62.636484105074" lon="17.964086822715">
        <ele>31.8</ele>
        <time>2018-01-29T18:54:45Z</time>
      </trkpt>
      <trkpt lat="62.636512184439" lon="17.964071567657">
        <ele>31.8</ele>
        <time>2018-01-29T18:54:46Z</time>
      </trkpt>
      <trkpt lat="62.636533306827" lon="17.964056564056">
        <ele>31.6</ele>
        <time>2018-01-29T18:54:47Z</time>
      </trkpt>
      <trkpt lat="62.636562056744" lon="17.964037620962">
        <ele>31.8</ele>
        <time>2018-01-29T18:54:48Z</time>
      </trkpt>
      <trkpt lat="62.636582927675" lon="17.964016247117">
        <ele>31.8</ele>
        <time>2018-01-29T18:54:49Z</time>
      </trkpt>
      <trkpt lat="62.636605391167" lon="17.963984479716">
        <ele>31.8</ele>
        <time>2018-01-29T18:54:50Z</time>
      </trkpt>
      <trkpt lat="62.636629866315" lon="17.963968805563">
        <ele>31.8</ele>
        <time>2018-01-29T18:54:51Z</time>
      </trkpt>
      <trkpt lat="62.636656688395" lon="17.963964279337">
        <ele>31.8</ele>
        <time>2018-01-29T18:54:52Z</time>
      </trkpt>
      <trkpt lat="62.636682169371" lon="17.963973583246">
        <ele>31.8</ele>
        <time>2018-01-29T18:54:53Z</time>
      </trkpt>
      <trkpt lat="62.636704968139" lon="17.963992861616">
        <ele>31.8</ele>
        <time>2018-01-29T18:54:54Z</time>
      </trkpt>
      <trkpt lat="62.636730113839" lon="17.964026221578">
        <ele>31.8</ele>
        <time>2018-01-29T18:54:55Z</time>
      </trkpt>
      <trkpt lat="62.636750230399" lon="17.964056983151">
        <ele>31.6</ele>
        <time>2018-01-29T18:54:56Z</time>
      </trkpt>
      <trkpt lat="62.636770011683" lon="17.964099311746">
        <ele>31.6</ele>
        <time>2018-01-29T18:54:57Z</time>
      </trkpt>
      <trkpt lat="62.636786021112" lon="17.964134767183">
        <ele>31.4</ele>
        <time>2018-01-29T18:54:58Z</time>
      </trkpt>
      <trkpt lat="62.636802365817" lon="17.964169635887">
        <ele>31.2</ele>
        <time>2018-01-29T18:54:59Z</time>
      </trkpt>
      <trkpt lat="62.636826338051" lon="17.964210371921">
        <ele>31</ele>
        <time>2018-01-29T18:55:00Z</time>
      </trkpt>
      <trkpt lat="62.636846119335" lon="17.964234260336">
        <ele>30.8</ele>
        <time>2018-01-29T18:55:01Z</time>
      </trkpt>
      <trkpt lat="62.636870594483" lon="17.964261417692">
        <ele>31</ele>
        <time>2018-01-29T18:55:02Z</time>
      </trkpt>
      <trkpt lat="62.636894399079" lon="17.964283126813">
        <ele>31</ele>
        <time>2018-01-29T18:55:03Z</time>
      </trkpt>
      <trkpt lat="62.636916275838" lon="17.964305841762">
        <ele>30.8</ele>
        <time>2018-01-29T18:55:04Z</time>
      </trkpt>
      <trkpt lat="62.636939661339" lon="17.964328389073">
        <ele>30.8</ele>
        <time>2018-01-29T18:55:05Z</time>
      </trkpt>
      <trkpt lat="62.636964304125" lon="17.96435378623">
        <ele>30.8</ele>
        <time>2018-01-29T18:55:06Z</time>
      </trkpt>
      <trkpt lat="62.636993305499" lon="17.964367700184">
        <ele>31</ele>
        <time>2018-01-29T18:55:07Z</time>
      </trkpt>
      <trkpt lat="62.637018618837" lon="17.964366610537">
        <ele>31</ele>
        <time>2018-01-29T18:55:08Z</time>
      </trkpt>
      <trkpt lat="62.637038567759" lon="17.964353199497">
        <ele>30.8</ele>
        <time>2018-01-29T18:55:09Z</time>
      </trkpt>
      <trkpt lat="62.637064048735" lon="17.964320342449">
        <ele>30.8</ele>
        <time>2018-01-29T18:55:10Z</time>
      </trkpt>
      <trkpt lat="62.637082153639" lon="17.964295867301">
        <ele>30.8</ele>
        <time>2018-01-29T18:55:11Z</time>
      </trkpt>
      <trkpt lat="62.637103276027" lon="17.964265860099">
        <ele>30.8</ele>
        <time>2018-01-29T18:55:12Z</time>
      </trkpt>
      <trkpt lat="62.637125571881" lon="17.964236942544">
        <ele>30.6</ele>
        <time>2018-01-29T18:55:13Z</time>
      </trkpt>
      <trkpt lat="62.637145353165" lon="17.964209952826">
        <ele>30.4</ele>
        <time>2018-01-29T18:55:14Z</time>
      </trkpt>
      <trkpt lat="62.637163709526" lon="17.964179526529">
        <ele>30.2</ele>
        <time>2018-01-29T18:55:15Z</time>
      </trkpt>
      <trkpt lat="62.637185753923" lon="17.964156560123">
        <ele>30.2</ele>
        <time>2018-01-29T18:55:16Z</time>
      </trkpt>
      <trkpt lat="62.637204948474" lon="17.964136192106">
        <ele>30.2</ele>
        <time>2018-01-29T18:55:17Z</time>
      </trkpt>
      <trkpt lat="62.637224813577" lon="17.964108615655">
        <ele>30</ele>
        <time>2018-01-29T18:55:18Z</time>
      </trkpt>
      <trkpt lat="62.637246606517" lon="17.964084559602">
        <ele>30</ele>
        <time>2018-01-29T18:55:19Z</time>
      </trkpt>
      <trkpt lat="62.637267645086" lon="17.964057486065">
        <ele>30</ele>
        <time>2018-01-29T18:55:20Z</time>
      </trkpt>
      <trkpt lat="62.637285330895" lon="17.964028736148">
        <ele>30</ele>
        <time>2018-01-29T18:55:21Z</time>
      </trkpt>
      <trkpt lat="62.637308129663" lon="17.963999650955">
        <ele>29.8</ele>
        <time>2018-01-29T18:55:22Z</time>
      </trkpt>
      <trkpt lat="62.637320702513" lon="17.963981378413">
        <ele>29.8</ele>
        <time>2018-01-29T18:55:23Z</time>
      </trkpt>
      <trkpt lat="62.637347189317" lon="17.963953382867">
        <ele>29.8</ele>
        <time>2018-01-29T18:55:24Z</time>
      </trkpt>
      <trkpt lat="62.63737543632" lon="17.963941732026">
        <ele>29.6</ele>
        <time>2018-01-29T18:55:25Z</time>
      </trkpt>
      <trkpt lat="62.637398402726" lon="17.963939133637">
        <ele>29.4</ele>
        <time>2018-01-29T18:55:26Z</time>
      </trkpt>
      <trkpt lat="62.637416675268" lon="17.96394642589">
        <ele>29.4</ele>
        <time>2018-01-29T18:55:27Z</time>
      </trkpt>
      <trkpt lat="62.637429164299" lon="17.963959501654">
        <ele>29.4</ele>
        <time>2018-01-29T18:55:28Z</time>
      </trkpt>
      <trkpt lat="62.637439054941" lon="17.963976516911">
        <ele>29</ele>
        <time>2018-01-29T18:55:29Z</time>
      </trkpt>
      <trkpt lat="62.637449699954" lon="17.964002836077">
        <ele>29</ele>
        <time>2018-01-29T18:55:30Z</time>
      </trkpt>
      <trkpt lat="62.637458584768" lon="17.964020354248">
        <ele>29</ele>
        <time>2018-01-29T18:55:31Z</time>
      </trkpt>
      <trkpt lat="62.637467804858" lon="17.964046002862">
        <ele>29</ele>
        <time>2018-01-29T18:55:32Z</time>
      </trkpt>
      <trkpt lat="62.63747518093" lon="17.964073998408">
        <ele>29</ele>
        <time>2018-01-29T18:55:33Z</time>
      </trkpt>
      <trkpt lat="62.637478952785" lon="17.964101826316">
        <ele>28.8</ele>
        <time>2018-01-29T18:55:34Z</time>
      </trkpt>
      <trkpt lat="62.637485742124" lon="17.964127223473">
        <ele>28.8</ele>
        <time>2018-01-29T18:55:35Z</time>
      </trkpt>
      <trkpt lat="62.637492866739" lon="17.964154632286">
        <ele>28.8</ele>
        <time>2018-01-29T18:55:36Z</time>
      </trkpt>
      <trkpt lat="62.637497476784" lon="17.964174078294">
        <ele>28.8</ele>
        <time>2018-01-29T18:55:37Z</time>
      </trkpt>
      <trkpt lat="62.637726218835" lon="17.963156096539">
        <ele>25.6</ele>
        <time>2018-01-29T18:56:33Z</time>
      </trkpt>
      <trkpt lat="62.637737702038" lon="17.963127933355">
        <ele>25.6</ele>
        <time>2018-01-29T18:56:34Z</time>
      </trkpt>
      <trkpt lat="62.637773325113" lon="17.963039252853">
        <ele>25.6</ele>
        <time>2018-01-29T18:56:35Z</time>
      </trkpt>
      <trkpt lat="62.637804757238" lon="17.962972030015">
        <ele>25.4</ele>
        <time>2018-01-29T18:56:36Z</time>
      </trkpt>
      <trkpt lat="62.637834596802" lon="17.962916793294">
        <ele>25.4</ele>
        <time>2018-01-29T18:56:37Z</time>
      </trkpt>
      <trkpt lat="62.637859826321" lon="17.962875805803">
        <ele>25.4</ele>
        <time>2018-01-29T18:56:38Z</time>
      </trkpt>
      <trkpt lat="62.637889330609" lon="17.962822832195">
        <ele>25.2</ele>
        <time>2018-01-29T18:56:39Z</time>
      </trkpt>
    </trkseg>
  </trk>
</gpx>